GFSCGP_700_temp_000.txt.gz
Temp
2 3 3 3 4 5 5 6 6 7 8 8 8 8 8 8 8 8 8 9 9 9 9 9 9 10 10 10 10 10 10 10 10 10 9 8 7 7 6 6 6 5 5 5
2 2 3 3 4 4 5 5 6 7 7 7 7 8 8 8 8 8 8 8 8 8 9 9 9 9 10 10 10 9 9 9 9 9 9 8 7 7 6 6 6 5 5 5
2 2 3 4 3 4 4 5 6 6 7 7 7 7 7 8 8 8 8 8 8 9 9 9 9 9 9 9 8 8 8 8 8 8 8 8 7 7 6 6 6 6 6 5
1 2 3 3 3 4 5 5 5 6 6 7 7 6 8 8 8 8 8 8 9 9 9 9 9 9 8 8 8 8 7 7 7 7 7 7 7 7 7 7 6 6 6 6
2 2 3 3 5 4 5 5 6 6 6 6 7 7 8 8 8 8 8 8 8 8 8 8 8 8 8 7 7 7 7 6 6 6 6 6 6 6 6 6 6 6 6 6
2 3 4 4 5 5 5 6 6 6 6 4 7 7 8 9 11 9 8 8 8 8 8 7 7 7 7 7 6 6 6 6 6 6 6 5 5 5 5 5 5 5 5 4
3 3 4 4 5 5 5 5 4 4 3 3 7 7 9 9 10 10 9 8 8 8 7 7 6 6 6 6 6 6 6 6 5 5 5 4 4 4 4 4 4 4 3 3
2 3 3 4 5 5 5 6 5 4 2 4 7 7 9 10 9 9 8 7 7 7 7 6 6 6 6 6 6 6 5 5 4 4 3 3 3 3 3 3 3 2 2 2
3 4 4 5 5 5 5 5 6 6 5 5 7 8 9 9 10 8 8 8 7 6 6 6 5 5 5 6 5 4 4 4 4 3 3 3 2 2 2 2 2 2 1 1
4 4 4 5 5 5 6 6 5 6 4 4 5 7 9 9 9 8 8 8 7 6 6 5 5 5 5 5 4 4 4 3 3 3 2 2 2 1 1 1 0 0 0 0
5 5 4 4 5 5 5 5 5 6 6 3 3 6 8 9 8 8 7 7 6 5 5 4 4 4 4 4 3 3 3 2 2 2 1 1 1 0 -0 -0 -0 -0 -0 -0
5 5 4 4 5 5 5 5 6 6 5 5 5 7 7 7 7 6 6 5 5 4 4 4 4 4 3 3 3 2 2 2 1 1 0 -0 -0 -1 -1 -1 -1 -1 -1 -1
5 5 3 3 4 4 5 5 5 5 5 5 4 7 7 6 6 5 5 4 4 4 4 4 3 3 2 2 2 2 1 1 0 -0 -1 -1 -1 -1 -1 -1 -1 -1 -1 -1
5 5 5 5 5 5 4 5 5 5 5 6 6 7 6 6 6 5 4 4 4 4 4 3 3 2 2 1 1 -0 -1 -1 -1 -1 -1 -2 -2 -2 -2 -2 -2 -2 -2 -2
5 5 5 6 5 5 5 6 6 5 5 6 6 6 6 5 5 5 5 4 3 3 3 3 2 2 1 0 -0 -1 -1 -1 -2 -2 -2 -2 -3 -3 -3 -3 -3 -3 -3 -3
5 5 5 5 5 5 5 5 5 5 5 5 5 6 5 5 4 4 3 3 3 3 2 2 1 1 -0 -1 -1 -2 -2 -2 -3 -3 -3 -3 -3 -4 -4 -4 -4 -5 -4 -4
5 6 5 5 5 5 5 5 5 6 5 5 4 5 4 4 4 3 3 2 2 1 1 1 0 -0 -1 -2 -2 -2 -2 -3 -3 -4 -4 -5 -5 -5 -5 -5 -5 -5 -5 -5
5 5 5 5 4 2 4 5 4 4 4 4 4 4 3 3 3 2 2 1 1 1 -0 -1 -1 -2 -2 -2 -2 -3 -3 -4 -5 -5 -5 -5 -6 -6 -6 -6 -6 -6 -6 -6
4 4 4 3 2 4 4 4 4 3 3 3 3 3 3 3 3 2 1 1 1 0 -1 -2 -2 -2 -3 -3 -3 -4 -4 -5 -5 -6 -6 -6 -6 -7 -7 -7 -7 -7 -8 -8
3 3 3 1 1 0 3 3 3 4 2 3 3 2 2 2 2 2 1 0 -1 -2 -3 -3 -3 -3 -3 -4 -4 -5 -5 -5 -6 -6 -7 -7 -7 -7 -8 -8 -8 -9 -9 -9
2 2 2 1 1 2 2 2 2 2 2 2 2 2 1 0 -1 -1 -1 -2 -2 -3 -3 -3 -4 -4 -5 -5 -5 -5 -6 -6 -7 -7 -7 -8 -8 -8 -8 -9 -9 -10 -10 -10
2 2 1 0 -0 -0 1 1 1 1 1 0 0 -0 -1 -1 -1 -2 -3 -3 -3 -4 -4 -5 -5 -6 -6 -6 -6 -6 -7 -7 -7 -8 -8 -8 -8 -9 -9 -10 -10 -10 -11 -11
1 1 2 2 1 1 1 1 1 0 -0 -0 -0 -1 -1 -2 -3 -3 -3 -4 -6 -6 -5 -6 -6 -6 -6 -6 -7 -7 -7 -8 -8 -9 -9 -9 -9 -10 -10 -11 -11 -12 -12 -12
0 1 0 1 1 1 -0 -0 -0 -0 -0 -0 -1 -1 -2 -2 -3 -3 -4 -5 -5 -6 -7 -7 -7 -6 -7 -7 -8 -8 -9 -9 -9 -9 -9 -10 -10 -11 -11 -12 -12 -12 -13 -13
-0 1 0 1 0 0 -0 -1 -1 -1 -1 -1 -2 -2 -2 -3 -3 -3 -4 -5 -5 -5 -5 -6 -6 -8 -8 -8 -9 -9 -9 -9 -9 -10 -10 -11 -11 -12 -12 -13 -13 -13 -13 -14
1 1 0 1 0 0 0 -1 -1 -2 -2 -2 -2 -3 -3 -3 -3 -4 -4 -5 -5 -6 -6 -7 -8 -8 -8 -8 -9 -9 -10 -10 -11 -11 -11 -12 -12 -13 -13 -13 -13 -13 -14 -14

GFSCGP_700_temp_003.txt.gz
Temp
2 2 1 4 2 4 4 5 5 6 7 6 7 8 8 8 8 8 8 8 8 8 8 8 8 9 9 9 9 9 9 9 9 9 9 8 8 7 6 6 6 6 6 5
1 2 3 3 2 3 3 4 5 6 6 6 7 7 7 7 8 8 8 8 8 8 8 8 9 9 9 8 8 8 8 8 8 8 8 8 8 7 7 7 7 7 6 6
1 2 2 2 3 2 3 4 5 5 6 6 6 7 8 7 8 8 8 8 8 8 8 8 8 8 8 8 7 8 8 8 8 8 8 8 7 7 7 7 7 7 6 6
1 2 2 2 2 3 3 5 5 5 4 5 6 5 7 8 7 7 8 8 7 7 7 8 8 8 7 7 7 7 7 7 7 7 7 7 7 6 6 6 6 5 5 5
1 1 1 2 3 3 4 5 5 5 4 5 6 6 7 8 7 8 8 8 8 8 7 8 8 7 7 6 6 6 6 6 6 6 6 5 5 5 5 4 4 4 4 4
1 2 3 4 3 4 4 4 4 5 5 3 6 6 8 8 10 8 8 8 8 7 7 7 7 6 6 6 6 6 6 6 5 5 5 5 4 4 4 3 3 3 3 3
0 1 2 3 2 3 3 4 4 3 3 2 7 5 8 9 9 9 9 8 8 7 7 7 6 6 6 6 5 5 5 4 4 4 4 4 3 3 3 3 2 2 2 2
1 1 2 2 3 4 4 4 5 3 1 2 5 6 9 9 9 9 8 7 7 7 6 6 6 5 5 5 5 4 4 4 4 3 3 3 2 2 2 2 1 1 1 1
2 3 3 3 4 4 4 5 5 5 4 3 6 8 9 9 9 9 8 7 7 6 6 6 5 5 5 4 4 3 3 3 3 3 2 2 1 1 1 1 0 0 0 0
3 3 3 4 4 5 5 5 5 5 3 3 4 6 9 9 9 9 8 7 6 6 5 5 5 5 4 3 3 3 3 2 2 2 1 1 0 0 -0 -0 -1 -1 -1 -1
4 4 3 4 4 4 4 4 5 5 5 2 2 6 7 8 9 8 7 6 6 5 5 5 4 4 4 3 2 2 2 1 1 0 -0 -0 -1 -1 -1 -1 -1 -1 -1 -1
4 5 3 4 4 4 4 5 5 5 4 4 4 6 8 8 8 6 6 5 5 5 4 4 4 3 2 2 2 1 1 1 -0 -1 -1 -1 -1 -2 -2 -2 -2 -2 -2 -2
5 5 3 3 3 4 4 4 5 5 5 5 4 6 7 7 7 5 5 4 4 4 4 4 3 2 2 1 1 0 -0 -1 -1 -1 -1 -2 -2 -2 -2 -2 -2 -3 -3 -3
5 5 5 4 4 5 4 5 5 5 5 5 6 6 6 6 6 4 4 4 4 4 3 3 2 1 1 0 -0 -1 -1 -2 -2 -2 -2 -2 -2 -2 -3 -3 -4 -4 -4 -4
4 5 5 5 5 6 6 6 5 5 5 5 6 6 5 5 4 4 5 4 4 3 3 2 1 1 0 -0 -0 -1 -2 -2 -2 -2 -2 -3 -3 -4 -4 -4 -5 -5 -5 -5
4 5 5 5 5 5 5 4 4 5 5 4 5 5 5 5 5 4 4 3 3 3 2 1 0 0 -0 -1 -2 -2 -2 -2 -2 -3 -3 -4 -4 -5 -5 -6 -6 -6 -6 -6
5 5 5 4 4 4 4 5 5 4 5 5 4 4 4 4 4 3 3 3 2 2 1 0 -0 -1 -1 -1 -2 -2 -3 -3 -3 -4 -4 -5 -5 -6 -6 -6 -7 -7 -7 -7
4 5 5 5 4 1 5 5 4 4 4 4 3 4 3 3 3 2 2 2 1 1 0 0 -0 -1 -1 -2 -3 -3 -3 -4 -4 -4 -5 -6 -6 -7 -7 -7 -7 -8 -8 -8
4 4 4 4 3 4 3 4 3 3 3 3 3 3 3 3 3 2 2 2 2 1 0 -1 -1 -2 -3 -3 -3 -3 -4 -4 -5 -6 -6 -7 -7 -7 -8 -8 -8 -8 -8 -8
4 4 4 2 3 2 3 3 3 3 3 3 3 2 2 2 2 2 2 1 1 -0 -2 -3 -3 -3 -3 -3 -4 -4 -5 -5 -6 -6 -7 -7 -8 -8 -8 -8 -9 -9 -9 -10
2 2 2 2 2 3 2 2 2 2 3 3 2 2 2 2 2 1 1 0 -1 -1 -2 -3 -4 -5 -5 -6 -6 -7 -6 -6 -7 -7 -7 -8 -8 -9 -9 -9 -9 -10 -10 -11
3 2 1 1 1 1 2 2 2 2 2 2 1 1 1 1 0 0 -0 -0 -1 -2 -3 -4 -5 -5 -6 -7 -7 -7 -6 -7 -7 -7 -8 -8 -9 -9 -9 -10 -10 -11 -12 -12
2 2 2 2 2 2 2 2 2 2 1 1 1 1 -0 -0 -0 -1 -1 -2 -2 -3 -4 -5 -5 -5 -6 -6 -6 -6 -7 -7 -7 -8 -9 -9 -9 -10 -10 -11 -12 -12 -13 -13
1 1 1 2 1 1 1 1 0 0 0 0 -0 -0 -0 -0 -1 -1 -2 -3 -3 -4 -4 -5 -5 -6 -6 -7 -7 -8 -8 -8 -8 -9 -9 -10 -10 -11 -11 -12 -12 -13 -14 -14
0 0 1 1 0 0 0 0 -0 -0 -0 -0 -1 -1 -1 -1 -2 -2 -3 -3 -3 -4 -5 -6 -6 -7 -7 -8 -8 -8 -8 -9 -9 -9 -10 -11 -11 -11 -12 -12 -13 -14 -14 -15
-1 -1 -0 0 0 -0 -0 -0 -0 -1 -1 -1 -1 -1 -2 -2 -2 -3 -3 -3 -4 -5 -5 -6 -7 -7 -8 -8 -8 -9 -9 -10 -10 -11 -11 -11 -11 -11 -12 -13 -13 -14 -15 -15

GFSCGP_700_temp_006.txt.gz
Temp
0 1 2 2 3 3 3 3 4 5 5 5 7 7 8 8 8 8 8 8 8 8 8 8 8 8 8 8 9 9 9 8 8 8 8 8 7 7 7 7 7 6 6 6
1 1 2 2 3 2 3 3 4 5 5 5 6 7 7 8 8 8 8 8 8 8 8 8 8 8 8 8 8 8 8 7 7 7 7 7 7 7 7 6 6 6 6 5
1 2 1 2 2 2 2 2 4 4 5 5 6 7 8 8 8 8 7 7 7 7 7 7 7 7 7 7 7 7 7 7 7 7 7 7 6 6 6 6 5 5 5 5
1 1 2 2 2 2 2 3 4 4 4 4 5 4 6 8 8 7 7 7 7 6 6 7 7 7 7 6 7 7 6 6 6 6 7 6 6 5 5 5 4 4 4 4
1 1 1 1 3 2 2 4 3 3 4 4 5 4 6 8 8 8 7 7 6 6 6 6 7 6 6 6 6 6 6 6 6 6 6 5 5 4 4 4 3 3 3 3
0 2 2 3 3 2 2 2 2 3 4 2 5 5 6 8 8 7 7 7 6 6 6 6 6 6 6 5 5 5 5 5 5 5 4 4 4 3 3 2 2 2 2 2
1 1 2 2 2 2 2 2 1 3 2 1 5 5 7 9 8 8 7 7 6 6 6 6 6 6 5 5 5 4 4 4 4 3 3 3 3 2 2 2 1 1 1 1
0 -0 1 1 2 2 2 2 4 2 1 2 4 5 8 8 9 8 8 6 6 6 6 6 6 5 5 5 4 4 3 3 3 3 2 2 2 1 1 1 0 0 -0 -0
-0 1 2 3 3 3 1 2 4 4 3 2 5 7 8 8 9 9 8 8 6 6 6 6 5 5 4 4 3 3 2 2 2 2 1 1 1 0 -0 -1 -1 -1 -1 -1
1 1 2 2 2 2 3 4 3 4 3 2 3 5 8 8 8 9 9 8 6 6 6 5 5 5 4 3 2 2 2 2 2 1 1 0 -0 -1 -1 -2 -2 -2 -2 -2
3 3 1 2 2 1 2 3 4 4 4 1 1 6 7 8 8 8 8 6 6 5 5 5 4 4 3 3 2 2 1 1 1 0 -0 -1 -1 -2 -2 -2 -2 -2 -2 -2
3 4 2 3 3 3 4 4 4 5 3 4 3 5 7 7 8 7 6 5 5 5 4 4 4 3 3 2 1 1 1 1 0 -0 -1 -2 -2 -2 -2 -2 -2 -2 -3 -3
3 3 2 1 2 3 4 4 4 4 5 5 3 5 7 7 7 7 5 4 4 4 4 4 4 3 2 1 1 1 0 -0 -1 -2 -2 -2 -2 -2 -3 -3 -3 -3 -4 -4
4 4 4 2 3 4 4 4 4 4 4 4 5 6 6 6 6 6 5 5 4 4 4 4 2 2 1 1 0 -0 -1 -1 -2 -2 -2 -3 -2 -3 -3 -3 -4 -4 -5 -5
3 4 4 5 5 4 4 5 4 4 4 4 5 5 5 5 6 5 5 4 4 4 4 3 2 1 1 0 -0 -1 -2 -2 -2 -2 -3 -3 -4 -3 -3 -4 -5 -5 -5 -6
2 4 5 4 4 5 4 5 5 5 5 5 4 5 5 5 4 4 4 4 4 3 3 2 1 1 -0 -1 -1 -2 -2 -2 -3 -3 -4 -4 -4 -4 -5 -5 -5 -6 -6 -7
2 4 4 4 4 3 3 5 5 5 4 5 4 5 5 4 4 4 3 3 3 2 2 1 1 0 -1 -1 -2 -2 -2 -3 -3 -4 -4 -4 -4 -5 -5 -6 -6 -7 -7 -7
4 4 4 4 3 1 5 5 5 4 4 4 4 4 4 4 3 3 3 2 2 1 1 1 0 -0 -1 -2 -2 -3 -4 -4 -4 -4 -4 -4 -5 -6 -6 -7 -7 -8 -8 -8
4 4 4 4 3 4 4 5 5 5 4 4 4 3 3 3 2 2 2 1 1 2 1 1 0 -1 -2 -3 -4 -4 -5 -5 -4 -4 -5 -5 -6 -6 -7 -7 -8 -8 -8 -8
4 4 4 3 3 1 4 5 4 3 3 3 3 2 2 2 1 1 1 2 2 2 1 0 -1 -2 -2 -3 -4 -4 -5 -5 -5 -5 -6 -6 -7 -7 -8 -8 -8 -8 -9 -9
3 3 3 3 3 3 3 3 3 2 3 3 2 2 1 1 1 1 1 1 1 1 0 -0 -1 -2 -3 -4 -4 -5 -5 -5 -5 -6 -7 -7 -8 -8 -9 -9 -9 -9 -9 -10
4 4 2 2 1 1 2 2 2 2 2 2 1 1 1 1 1 1 1 1 1 0 -1 -1 -2 -3 -4 -5 -5 -5 -5 -6 -6 -7 -8 -8 -8 -9 -9 -9 -9 -10 -10 -11
3 3 3 3 3 2 2 2 1 1 1 1 1 1 1 0 1 1 1 0 -0 -1 -2 -3 -3 -4 -5 -5 -5 -5 -6 -7 -7 -8 -8 -9 -9 -10 -10 -10 -10 -10 -11 -12
2 2 2 2 2 2 1 1 1 1 0 0 0 0 1 1 0 -0 -1 -1 -2 -2 -3 -4 -4 -4 -4 -5 -6 -6 -7 -7 -8 -8 -9 -9 -10 -9 -10 -10 -11 -12 -12 -12
1 1 1 1 1 1 1 1 0 -0 -0 -0 -0 -0 -0 -0 -1 -1 -2 -2 -2 -3 -4 -4 -4 -4 -5 -6 -7 -7 -8 -8 -9 -9 -10 -10 -10 -10 -10 -10 -11 -12 -12 -13
1 1 0 -0 0 -0 0 -0 -0 -0 0 -0 -1 -1 -1 -2 -2 -3 -3 -3 -3 -3 -4 -4 -4 -5 -6 -7 -8 -8 -9 -10 -10 -10 -10 -10 -10 -10 -10 -11 -11 -12 -13 -13

GFSCGP_700_temp_009.txt.gz
Temp
-1 0 1 1 2 3 3 3 3 4 4 4 5 6 7 8 7 7 7 7 8 8 8 8 8 8 8 8 8 8 8 8 8 8 7 7 7 7 6 6 6 5 5 5
-1 0 1 1 2 2 2 3 3 4 4 4 4 6 7 8 8 8 8 8 8 8 7 7 8 7 7 7 7 7 7 7 7 7 7 7 7 6 6 6 5 5 5 4
-1 1 0 1 1 2 2 3 4 3 4 4 4 6 8 8 8 8 8 7 8 7 7 7 7 7 6 6 7 7 7 7 7 7 7 7 7 6 6 5 5 5 4 4
-1 0 1 1 2 2 2 2 3 3 3 3 4 4 7 8 9 8 7 7 7 7 7 6 6 6 6 6 6 6 6 6 6 6 6 6 5 5 5 4 4 4 3 3
-0 -0 1 1 2 2 1 3 2 2 2 3 4 4 6 7 7 7 7 6 7 7 6 6 6 6 5 6 5 5 5 6 6 6 5 5 4 4 4 3 3 2 2 1
0 0 1 1 2 2 1 2 2 2 2 2 4 4 6 8 7 7 7 6 6 6 6 6 5 5 5 5 5 5 5 5 5 4 4 3 3 3 2 2 2 1 1 1
-0 1 0 1 1 1 1 2 1 0 1 3 4 4 6 8 7 7 7 7 7 6 6 5 5 5 5 5 4 4 4 4 4 3 3 3 3 2 2 1 1 0 -0 -0
-1 1 1 1 1 2 2 2 2 3 2 3 3 4 7 7 8 7 7 6 6 6 6 5 5 5 5 4 4 4 3 3 3 3 2 2 2 1 1 1 -0 -0 -1 -1
-1 -0 1 2 2 2 1 1 3 3 2 2 5 6 7 8 8 8 8 7 6 6 6 5 5 5 4 4 4 3 3 2 2 2 2 1 1 0 -0 -1 -1 -1 -1 -1
0 0 1 1 1 1 2 3 0 2 3 2 3 5 7 7 8 8 8 8 6 6 6 5 5 4 4 4 3 3 2 2 1 1 1 1 -0 -1 -2 -2 -2 -2 -2 -2
1 2 0 1 1 1 1 1 1 3 3 3 2 6 6 7 7 8 8 7 6 6 5 5 4 4 4 3 3 2 2 1 1 1 0 -0 -1 -2 -2 -2 -2 -2 -2 -3
2 2 1 1 2 2 3 2 1 4 2 4 3 5 6 7 7 8 7 6 5 5 4 4 4 4 3 3 2 2 1 1 0 0 -0 -1 -2 -3 -3 -3 -3 -3 -3 -3
2 2 1 1 2 2 2 2 2 3 4 4 3 5 6 6 7 7 7 6 5 4 4 4 4 3 3 2 2 1 1 0 -0 -1 -2 -3 -3 -3 -3 -3 -3 -3 -3 -4
2 3 3 2 2 2 2 2 3 4 3 4 4 5 5 6 6 6 6 6 5 4 4 4 3 3 2 2 1 1 0 -0 -1 -2 -3 -3 -3 -3 -3 -3 -3 -4 -4 -4
2 3 3 4 4 4 3 3 3 4 4 4 4 5 5 5 5 5 5 5 5 4 3 3 3 3 2 1 1 0 -0 -1 -2 -3 -3 -4 -4 -3 -4 -3 -4 -4 -5 -5
1 2 3 4 3 3 4 4 4 4 4 4 4 4 5 5 5 5 5 4 4 3 3 3 2 2 1 1 0 -1 -2 -2 -3 -4 -4 -3 -3 -4 -3 -3 -4 -5 -5 -6
2 3 3 4 3 3 2 4 4 4 4 5 4 6 5 4 4 4 4 4 4 3 3 2 2 1 1 -0 -1 -2 -3 -3 -4 -4 -3 -4 -3 -4 -4 -4 -5 -5 -6 -6
2 1 0 3 2 0 5 5 5 5 5 5 5 4 4 4 4 4 4 3 3 2 2 2 2 2 0 -1 -2 -3 -3 -3 -4 -4 -3 -4 -4 -4 -5 -6 -6 -6 -6 -6
1 1 2 3 2 3 4 5 6 6 5 5 4 4 3 3 3 3 3 2 2 2 2 2 2 1 -1 -2 -2 -3 -3 -3 -4 -4 -4 -5 -5 -6 -6 -6 -6 -7 -7 -6
2 3 3 2 3 2 5 5 5 4 4 5 5 4 3 2 2 2 2 2 2 2 2 1 1 -0 -1 -2 -3 -3 -3 -4 -4 -5 -5 -6 -6 -7 -7 -7 -7 -7 -7 -7
2 2 1 3 3 4 5 5 4 3 5 5 3 2 1 1 1 1 1 1 2 1 1 0 -0 -1 -2 -2 -3 -4 -4 -5 -5 -6 -6 -7 -7 -7 -8 -8 -8 -8 -8 -8
3 3 3 3 2 2 4 3 3 4 3 3 2 1 1 1 1 1 1 1 0 -0 -0 -1 -1 -2 -3 -3 -4 -4 -5 -5 -6 -7 -7 -7 -8 -8 -8 -8 -8 -9 -9 -9
3 3 4 4 4 4 4 3 2 2 2 2 1 1 0 0 1 0 0 -0 -1 -1 -2 -2 -2 -3 -3 -4 -4 -5 -5 -6 -7 -7 -8 -8 -9 -9 -9 -9 -9 -9 -10 -10
3 3 2 2 3 3 2 2 1 1 1 1 0 0 0 0 -0 -1 -1 -2 -2 -2 -2 -2 -3 -3 -4 -5 -5 -5 -6 -7 -7 -8 -8 -9 -9 -9 -9 -10 -10 -10 -10 -10
2 2 2 2 2 2 1 1 1 1 0 -0 -0 -0 -1 -1 -1 -2 -2 -2 -2 -2 -2 -3 -4 -4 -5 -5 -6 -6 -7 -8 -8 -8 -9 -9 -9 -10 -10 -10 -11 -11 -11 -12
2 2 1 1 1 0 0 -0 -0 -0 -1 -1 -1 -1 -1 -2 -2 -2 -2 -2 -2 -2 -3 -4 -5 -5 -6 -6 -7 -7 -8 -8 -9 -9 -9 -10 -10 -10 -10 -11 -11 -11 -12 -13

GFSCGP_700_temp_012.txt.gz
Temp
-2 -3 -1 -0 1 2 4 4 4 4 4 4 4 5 5 7 7 7 7 7 7 8 8 8 8 8 8 8 8 8 8 8 8 8 7 7 7 7 7 6 6 5 5 5
-3 -3 -0 0 1 2 3 3 3 4 3 3 4 4 5 7 7 7 7 7 7 7 8 8 8 8 7 7 7 7 7 7 7 7 7 6 7 6 6 6 5 5 4 4
-2 -1 -1 1 0 2 2 3 4 4 3 3 4 6 6 7 8 8 7 7 8 7 7 7 7 7 7 6 6 6 7 6 6 6 6 6 6 6 5 5 5 4 4 4
-3 -2 -1 -0 1 1 2 2 3 3 3 5 4 7 6 6 8 8 8 8 8 7 7 7 6 6 6 6 6 6 6 6 6 6 7 6 6 5 5 4 4 4 3 3
-2 -2 -0 0 1 1 3 3 2 2 2 3 4 5 8 7 8 8 8 7 7 7 6 6 6 6 6 6 6 6 6 6 6 6 5 5 4 4 4 4 3 3 2 1
-1 -1 -0 1 1 1 2 2 2 2 2 4 6 5 8 7 7 8 7 7 6 6 6 6 6 5 5 5 5 5 5 6 6 5 4 4 3 3 3 2 2 1 1 1
-2 -1 0 1 0 1 1 1 1 2 2 6 4 4 8 7 7 7 7 7 6 6 6 5 5 5 5 5 5 5 5 5 4 4 3 3 2 2 2 2 1 0 -0 -0
-3 -0 0 1 1 1 1 3 5 6 6 7 4 6 7 7 7 8 7 6 6 6 5 5 5 5 5 5 5 5 5 4 4 3 2 2 2 1 1 1 0 -0 -1 -1
-2 -0 1 1 1 1 0 1 3 4 3 6 7 6 7 7 7 8 7 7 6 6 6 5 5 5 5 4 4 4 4 3 3 2 2 2 1 1 0 -0 -1 -1 -1 -1
-1 -1 -0 1 1 1 2 1 1 3 5 6 7 6 8 6 7 7 8 7 6 6 5 5 5 4 4 4 4 4 3 3 2 2 1 1 1 0 -1 -1 -2 -2 -2 -2
-1 -0 -0 1 1 1 1 1 2 3 3 8 8 8 6 7 8 8 8 7 6 6 5 5 4 4 4 4 3 3 3 2 1 1 1 0 -0 -1 -2 -3 -3 -3 -3 -2
0 2 -0 1 1 1 2 2 1 3 3 3 5 8 6 6 7 8 8 7 6 5 5 4 4 4 4 3 3 3 2 1 1 1 0 -0 -1 -2 -3 -3 -3 -3 -3 -3
1 2 1 -1 0 1 1 1 2 3 4 5 6 7 6 6 7 7 7 7 6 5 4 4 4 4 3 3 3 2 2 1 1 0 -0 -1 -2 -3 -3 -3 -3 -3 -3 -3
1 2 3 4 4 2 1 2 2 3 3 5 5 6 6 6 6 6 6 6 6 5 4 4 4 3 3 3 3 2 1 1 0 -1 -1 -2 -3 -3 -3 -3 -3 -3 -4 -4
1 2 2 3 3 3 3 3 3 2 3 4 5 4 6 5 5 5 5 5 6 5 5 4 3 3 3 3 2 2 1 0 -1 -1 -2 -3 -4 -3 -3 -3 -4 -4 -5 -5
1 2 3 3 3 3 3 3 4 4 3 3 4 4 4 5 5 5 5 5 5 5 4 3 3 3 3 2 2 1 0 -1 -2 -2 -3 -4 -4 -4 -4 -4 -5 -5 -5 -5
0 1 2 3 3 2 2 2 3 4 4 5 4 6 4 5 4 4 4 4 4 4 3 3 3 2 2 2 1 0 -1 -2 -2 -3 -4 -4 -4 -4 -4 -5 -5 -5 -5 -6
0 1 2 1 1 2 5 5 5 4 5 4 5 4 4 4 4 4 4 4 4 3 3 2 2 2 2 1 0 -1 -2 -2 -3 -3 -4 -5 -4 -5 -5 -5 -5 -6 -6 -6
0 0 1 1 2 4 5 5 5 5 6 5 5 4 4 4 3 3 3 3 3 2 2 2 2 2 2 1 -0 -1 -2 -3 -3 -4 -4 -4 -5 -5 -6 -6 -6 -7 -7 -7
0 1 -0 -0 2 4 5 6 5 5 4 6 6 5 4 3 2 3 2 2 2 1 1 1 2 2 1 0 -1 -2 -3 -4 -4 -4 -5 -5 -6 -6 -6 -7 -7 -7 -8 -7
-1 -0 -1 0 0 3 5 5 5 4 5 6 6 4 3 2 2 2 1 1 1 1 1 2 1 1 -0 -1 -2 -3 -4 -4 -5 -6 -6 -6 -7 -7 -7 -8 -8 -8 -8 -8
0 0 0 1 -0 2 4 4 4 5 5 4 4 3 2 1 1 1 1 1 1 1 1 1 0 -0 -1 -2 -3 -4 -4 -5 -6 -6 -6 -7 -8 -8 -8 -9 -9 -9 -9 -9
2 2 2 2 3 4 4 4 3 4 4 3 2 1 1 0 0 0 0 1 1 0 0 -0 -1 -2 -2 -3 -4 -5 -5 -6 -6 -7 -7 -8 -8 -9 -9 -9 -9 -9 -9 -9
3 2 2 3 3 4 4 4 3 2 2 1 1 1 0 0 0 0 0 -0 -0 -0 -1 -1 -2 -2 -3 -4 -5 -5 -6 -6 -7 -8 -8 -9 -9 -9 -10 -10 -10 -10 -10 -10
3 3 3 3 3 3 2 2 2 1 1 1 -0 -0 -0 -0 -0 -0 -1 -1 -1 -1 -2 -2 -3 -3 -4 -5 -5 -6 -6 -7 -8 -8 -9 -9 -9 -9 -10 -10 -10 -10 -11 -11
2 2 2 2 2 1 1 1 1 1 0 -0 -0 -1 -1 -1 -1 -1 -1 -1 -2 -2 -2 -3 -4 -4 -4 -5 -6 -7 -8 -8 -9 -9 -9 -10 -10 -10 -10 -10 -10 -10 -11 -12

GFSCGP_700_temp_015.txt.gz
Temp
-4 -3 -2 0 1 1 3 4 5 6 6 6 5 5 6 6 6 6 6 6 7 7 8 8 8 8 8 8 8 8 8 8 8 8 8 7 7 7 7 6 6 5 5 5
-4 -3 -3 -0 1 0 2 3 6 6 6 5 5 6 6 6 6 6 7 6 7 7 7 7 7 7 8 8 7 7 7 7 7 7 7 7 7 7 6 6 5 5 5 4
-4 -2 -1 -2 -1 -0 1 3 6 6 5 4 4 5 5 6 6 7 7 6 7 7 7 7 7 7 7 7 7 7 7 7 6 6 7 7 7 6 6 5 5 4 4 4
-4 -4 -2 -2 -1 -0 1 3 5 5 4 5 5 8 9 8 7 8 8 7 7 7 7 7 7 7 7 6 6 6 6 6 6 6 6 6 6 5 5 4 4 4 4 4
-3 -3 -3 -2 -1 0 1 2 4 3 4 3 4 6 8 8 8 7 8 7 7 7 7 7 6 6 6 6 6 6 6 6 6 6 6 6 6 5 4 4 4 3 3 3
-4 -3 -3 -2 -1 0 1 3 3 3 3 4 6 7 9 9 8 8 8 7 7 7 6 6 6 6 6 6 6 6 6 6 6 6 5 5 4 4 3 3 3 3 3 2
-3 -3 -2 -1 0 0 0 1 2 3 2 7 7 7 9 8 8 7 7 6 6 6 6 6 6 6 5 5 5 5 5 6 5 5 5 4 3 3 2 2 2 2 2 1
-3 -3 -2 -1 -0 -0 0 2 5 5 6 8 5 7 8 7 7 7 7 6 6 6 6 5 5 5 5 5 5 5 5 5 5 4 4 3 2 2 2 1 1 1 1 0
-3 -2 -1 -0 0 0 1 2 5 6 7 9 7 7 7 7 7 7 7 7 6 6 6 5 5 5 5 5 5 5 5 4 4 3 3 2 2 2 1 1 1 0 0 -0
-3 -1 0 0 1 1 1 3 4 5 7 8 9 9 9 7 7 7 7 7 7 6 6 6 5 5 5 5 4 4 4 4 3 3 2 2 1 1 1 0 -0 -0 -0 -1
-2 -2 -1 0 0 0 1 2 3 6 7 9 10 9 8 7 7 8 7 7 7 6 6 5 5 5 5 4 4 4 3 3 3 2 2 1 1 0 -0 -1 -1 -1 -1 -1
-2 -1 -1 -0 1 1 1 1 3 6 6 6 7 8 7 7 7 8 8 8 7 6 6 5 5 5 4 4 4 3 3 3 3 2 1 1 0 -0 -1 -1 -1 -2 -2 -2
-1 -0 -0 -1 0 1 1 2 3 4 6 7 8 8 7 7 7 7 7 7 7 6 6 5 5 4 4 4 3 3 3 3 2 2 1 0 -0 -1 -1 -2 -2 -2 -2 -3
-1 0 3 5 4 2 1 2 3 3 5 6 7 7 6 7 7 7 6 6 7 6 5 5 5 4 4 3 3 3 3 3 2 1 0 -0 -1 -2 -2 -2 -3 -3 -3 -4
-1 2 4 4 4 3 3 3 2 3 4 5 7 6 7 6 6 6 6 6 6 6 6 5 5 4 3 3 3 3 2 2 1 0 -0 -1 -2 -2 -3 -3 -3 -4 -4 -4
-1 2 2 3 3 4 4 3 3 3 4 4 5 6 6 6 5 5 5 5 5 5 5 5 4 3 3 3 3 2 2 1 1 -0 -1 -2 -2 -3 -3 -3 -4 -4 -5 -5
-1 1 3 4 2 2 3 4 4 3 3 4 4 5 5 5 5 5 4 4 5 4 4 4 3 3 3 3 2 2 1 1 -0 -1 -2 -3 -3 -3 -4 -4 -5 -5 -5 -5
0 1 2 2 2 3 5 5 4 4 4 4 4 5 5 4 4 4 4 4 4 4 4 3 3 3 2 2 1 1 1 0 -1 -2 -2 -3 -4 -4 -4 -5 -5 -6 -6 -6
-0 -0 1 2 3 4 4 5 5 4 5 5 4 4 3 4 4 4 4 4 4 3 3 3 2 2 2 1 1 1 0 -0 -1 -2 -3 -3 -4 -4 -5 -6 -6 -6 -6 -7
-0 -0 0 1 3 4 5 5 5 4 4 5 5 5 4 5 4 4 4 3 3 2 2 2 1 1 1 1 1 1 -0 -1 -2 -3 -3 -4 -5 -5 -6 -6 -6 -7 -7 -7
-1 -1 -0 0 1 3 4 5 5 4 5 6 6 5 5 3 3 3 2 2 2 1 1 1 1 1 1 1 0 -0 -1 -2 -3 -4 -4 -5 -6 -6 -6 -7 -7 -7 -8 -8
-1 -0 -1 -1 -0 1 4 4 4 5 5 5 5 5 4 4 3 2 2 1 1 1 1 1 1 1 1 0 -1 -1 -2 -3 -4 -5 -6 -6 -6 -7 -7 -7 -8 -8 -9 -9
1 1 2 2 2 4 4 4 4 4 4 4 4 4 3 2 1 1 1 1 1 1 1 1 1 0 -0 -1 -2 -3 -3 -4 -5 -6 -6 -7 -7 -7 -8 -8 -9 -9 -9 -9
1 2 2 3 3 3 4 4 4 4 3 3 3 2 2 1 0 0 0 0 0 0 0 0 -0 -1 -1 -2 -3 -4 -4 -5 -6 -6 -7 -7 -8 -9 -9 -9 -9 -10 -10 -10
2 3 3 3 3 3 3 3 3 3 3 2 2 1 1 0 0 0 0 0 -0 -0 -0 -1 -1 -2 -2 -3 -4 -5 -5 -6 -6 -7 -8 -8 -9 -9 -9 -9 -10 -10 -11 -11
2 3 3 3 3 3 3 3 3 2 2 1 0 -0 -0 -0 -0 -0 -1 -1 -1 -1 -1 -2 -2 -3 -3 -4 -5 -5 -6 -6 -7 -8 -9 -9 -9 -10 -10 -10 -10 -11 -11 -12

GFSCGP_700_temp_018.txt.gz
Temp
-4 -4 -2 0 0 2 1 1 2 3 4 4 5 5 5 5 6 6 6 6 7 7 7 7 8 8 8 8 8 8 8 8 8 8 8 7 7 7 7 6 6 6 6 6
-4 -4 1 -1 -2 -1 -1 0 2 3 4 5 5 6 6 5 6 6 6 6 7 7 8 7 7 7 7 7 8 8 8 8 7 7 7 7 7 6 6 6 6 5 5 5
-4 -0 -3 -3 -3 -2 -2 -1 1 1 4 5 5 6 5 6 6 6 6 7 7 6 7 7 7 7 7 7 7 7 7 7 7 7 6 6 6 6 6 5 5 4 4 4
-5 -3 -4 -4 -3 -2 -2 -1 0 1 2 3 4 4 6 8 7 7 7 6 7 6 7 7 7 7 7 7 7 6 6 6 6 6 6 6 6 5 5 5 4 4 4 3
-3 -4 -4 -4 -3 -2 -2 -1 0 1 1 4 4 5 6 8 8 7 7 7 6 7 7 7 7 7 6 6 6 6 6 6 6 6 6 6 5 5 4 4 4 4 4 4
-4 -4 -4 -3 -2 -2 -2 -2 -0 1 2 2 4 5 7 8 8 8 7 7 6 7 7 7 7 6 6 6 5 5 5 5 5 6 5 5 5 4 4 3 3 3 3 3
-4 -4 -4 -4 -3 -2 -2 -1 0 1 2 3 5 6 7 9 9 8 8 7 7 7 7 7 6 6 6 5 5 5 5 5 5 5 5 5 4 4 3 3 3 2 2 2
-4 -4 -2 -3 -3 -2 -1 -1 -0 2 2 4 6 6 7 8 8 8 8 7 7 6 6 6 6 5 5 5 5 5 5 5 5 5 4 4 4 3 2 2 2 2 2 2
-4 -3 -2 -2 -1 -2 -1 -2 -0 4 7 6 6 7 7 8 7 7 7 7 7 6 6 6 5 5 5 5 5 5 4 4 4 4 4 4 3 2 2 2 1 1 1 1
-4 -3 -1 -2 -1 -2 -0 -0 1 3 5 5 6 7 8 7 7 7 7 7 7 6 6 6 5 5 5 5 4 4 4 4 4 4 4 3 3 2 2 1 1 1 0 0
-4 -4 -2 -1 -1 -0 -1 0 1 4 7 5 5 7 8 7 7 7 7 7 7 7 6 6 5 5 5 5 4 4 4 4 3 3 3 3 2 1 1 1 0 0 -0 -0
-4 -4 -2 -1 0 0 1 1 4 6 6 6 7 5 6 7 7 7 7 7 7 6 6 6 5 5 5 4 4 4 4 3 3 3 3 3 2 1 1 0 -0 -1 -1 -1
-3 -3 -2 -1 -0 0 -0 2 4 4 5 6 6 5 6 7 7 7 7 7 7 6 6 5 5 5 5 4 4 4 3 3 3 3 3 2 1 1 0 -0 -1 -2 -1 -2
-2 -1 -1 0 2 1 1 2 3 3 4 6 7 6 6 7 7 7 7 7 7 6 6 5 5 5 5 4 4 3 3 3 3 3 2 1 1 0 -1 -1 -2 -2 -2 -2
-2 -1 -0 0 3 4 4 3 2 3 4 5 6 7 7 7 7 6 6 6 6 6 6 5 5 5 4 4 3 3 3 3 2 2 1 1 0 -1 -1 -2 -2 -2 -3 -3
-1 -1 1 3 3 3 3 3 4 4 3 5 6 6 6 6 6 6 6 5 5 5 5 5 5 5 4 4 3 3 3 2 2 1 1 0 -0 -1 -2 -3 -3 -3 -3 -4
-1 -0 2 2 3 4 3 4 4 4 4 4 4 6 6 6 5 5 5 5 5 5 5 5 4 4 3 3 3 2 2 2 1 1 0 -0 -1 -2 -3 -3 -3 -4 -5 -5
0 1 1 2 3 2 4 5 5 4 4 4 4 4 5 5 5 5 4 4 4 4 4 4 4 3 3 3 2 2 2 1 1 0 -1 -2 -2 -2 -3 -3 -4 -5 -6 -6
0 0 1 2 3 4 5 5 5 5 5 4 4 4 4 4 4 4 4 4 4 4 4 3 3 3 2 2 2 1 1 1 0 -1 -2 -2 -2 -3 -4 -4 -5 -6 -6 -6
-0 -0 0 0 2 2 4 4 5 4 4 4 4 4 4 4 4 4 4 4 3 3 3 2 2 2 2 1 1 1 1 0 -1 -1 -2 -3 -4 -4 -5 -5 -6 -7 -7 -7
-1 -1 -0 -0 0 3 3 4 4 4 4 5 5 5 4 4 4 4 3 3 3 2 2 2 1 1 1 1 1 1 0 -1 -2 -2 -3 -4 -4 -5 -6 -7 -7 -7 -7 -8
-1 -1 -1 -1 -0 0 3 3 4 4 4 5 5 5 5 4 3 3 2 2 2 1 1 1 1 1 1 1 0 -0 -1 -2 -2 -3 -4 -4 -5 -6 -7 -7 -7 -8 -8 -9
-0 1 1 1 2 3 3 4 4 4 4 4 4 4 4 3 2 2 1 1 1 0 0 0 0 0 0 -0 -1 -1 -2 -3 -3 -4 -5 -6 -7 -7 -7 -8 -8 -9 -9 -9
0 1 1 1 2 3 3 3 4 4 4 4 3 3 3 2 1 1 0 0 0 0 0 0 0 -0 -1 -1 -1 -2 -3 -4 -4 -5 -6 -7 -7 -7 -8 -9 -9 -9 -9 -9
1 1 1 2 2 3 4 4 4 3 3 3 3 2 2 1 0 0 -0 -0 0 -0 -0 -0 -0 -1 -1 -2 -2 -3 -4 -5 -6 -7 -7 -7 -7 -8 -9 -9 -10 -10 -10 -11
2 2 2 2 3 3 3 3 3 3 2 2 1 1 1 -0 -0 -0 -0 -0 -0 -1 -1 -1 -1 -1 -2 -3 -3 -4 -5 -6 -7 -7 -7 -8 -9 -9 -9 -9 -9 -10 -10 -11

GFSCGP_700_temp_021.txt.gz
Temp
-2 -2 -4 -2 -2 -2 -1 -1 -0 1 2 2 3 4 5 5 5 6 6 6 6 6 6 7 7 7 8 8 8 8 8 8 8 8 8 7 7 7 6 6 6 6 5 5
-4 -3 -2 -2 -2 -2 -2 -1 0 1 2 2 3 4 5 5 5 6 6 6 6 6 6 7 7 7 7 7 7 7 8 8 7 7 7 7 7 6 6 6 5 5 5 4
-2 -3 -1 -2 -3 -3 -2 -2 -1 -1 1 2 2 3 4 5 5 5 6 6 6 6 6 7 7 7 7 7 7 7 7 7 7 7 6 6 6 6 5 5 5 4 4 4
-4 -4 -3 -3 -3 -3 -3 -2 -2 -2 -1 0 2 3 4 5 5 5 6 6 6 6 6 6 7 7 7 7 7 7 7 7 6 6 6 6 6 5 5 5 4 3 3 3
-4 -4 -3 -4 -3 -3 -3 -3 -2 -2 -2 -1 -0 1 3 5 5 6 6 6 6 6 6 7 7 7 7 6 6 6 6 6 6 6 6 5 5 5 5 4 3 3 3 3
-4 -4 -4 -4 -3 -4 -2 -3 -3 -2 -2 -0 -1 1 4 5 7 8 8 6 6 6 6 7 7 7 7 6 6 6 5 5 5 5 5 5 5 5 4 3 3 3 3 3
-4 -4 -4 -4 -4 -4 -4 -4 -3 -2 -2 -0 2 0 2 7 8 8 8 7 6 6 6 7 7 6 6 6 6 5 5 5 5 5 5 4 4 4 3 3 3 2 2 2
-5 -5 -4 -4 -3 -3 -3 -4 -2 -3 1 2 3 1 3 7 8 9 8 8 7 7 7 7 6 6 6 5 5 5 5 5 4 4 4 4 4 3 3 2 2 2 1 1
-4 -4 -3 -3 -2 -3 -4 -4 -1 -2 0 2 0 4 6 7 7 8 7 7 7 7 7 7 6 5 5 5 5 5 4 4 4 4 4 4 3 3 3 2 2 1 1 1
-4 -5 -3 -4 -3 -4 -4 -3 -3 -3 0 1 2 5 6 6 7 7 7 7 7 7 7 6 5 5 5 5 4 4 4 4 4 4 3 3 3 3 2 2 1 1 0 -0
-4 -5 -4 -4 -3 -3 -3 -3 -2 -2 -1 2 2 5 7 7 7 7 7 7 7 7 7 6 5 5 5 4 4 4 4 4 4 3 3 3 3 2 2 1 1 0 -0 -0
-4 -4 -4 -3 -2 -1 -1 -1 -2 -1 1 4 5 4 7 7 7 7 7 7 7 7 6 6 5 5 5 4 4 4 4 4 3 3 3 3 2 2 1 1 0 -0 -1 -1
-4 -4 -4 -2 -1 -1 -1 -1 -1 -1 0 5 3 4 6 6 7 7 7 7 6 6 6 6 5 5 5 4 4 4 4 3 3 3 3 2 2 1 1 0 0 -1 -1 -1
-4 -3 -2 -1 -0 -0 -1 0 -1 -0 2 5 5 5 6 7 7 7 7 6 6 6 6 6 5 5 4 4 4 4 3 3 3 2 2 2 2 1 0 -0 -1 -1 -2 -2
-4 -3 -1 -1 -0 0 0 0 -0 0 4 5 4 6 6 7 7 6 6 6 6 6 6 6 5 5 4 4 4 4 3 3 2 2 2 1 1 0 -0 -1 -2 -2 -2 -3
-3 -2 -1 -0 1 0 2 2 2 1 4 5 5 5 6 6 5 6 6 6 6 6 6 5 5 4 4 4 4 3 3 2 2 2 1 1 0 -0 -1 -2 -2 -2 -3 -3
-2 -1 -0 0 0 0 1 3 3 3 5 4 5 5 5 5 5 5 5 5 5 5 5 5 5 4 4 4 3 3 2 2 1 1 0 -0 -1 -1 -2 -2 -3 -3 -4 -4
-1 -0 -0 2 3 1 4 4 4 4 4 4 4 5 4 4 4 5 5 5 5 5 5 4 4 4 4 3 3 2 1 1 1 0 -0 -0 -1 -2 -3 -3 -4 -4 -4 -5
-0 -0 0 1 2 3 4 4 4 4 4 3 4 4 4 4 4 4 4 4 5 4 4 4 4 3 3 2 1 1 1 1 0 0 -1 -1 -2 -3 -4 -4 -4 -5 -5 -6
-0 -1 -0 1 0 1 3 3 4 4 4 4 4 4 4 4 4 4 4 4 4 3 3 3 2 2 1 1 1 1 0 0 -0 -1 -2 -2 -3 -4 -4 -5 -5 -5 -6 -7
-1 -1 -0 0 1 2 3 3 4 4 4 5 5 4 4 4 4 4 4 3 3 2 2 1 1 1 1 0 0 -0 -0 -1 -1 -2 -3 -3 -4 -5 -5 -5 -6 -7 -7 -7
-0 -1 -1 -1 -0 0 4 4 4 4 4 5 5 5 4 4 3 3 3 3 2 2 1 1 0 0 0 -0 -0 -0 -1 -1 -2 -3 -3 -4 -5 -5 -6 -6 -7 -8 -8 -8
-1 0 0 1 2 3 3 3 3 4 4 4 4 4 3 3 3 2 2 1 1 1 0 -0 -0 -0 -0 -0 -1 -1 -2 -2 -3 -4 -4 -5 -6 -6 -7 -8 -8 -8 -9 -9
0 -0 0 1 2 3 3 3 4 4 4 4 4 3 3 3 2 2 1 0 0 -0 -0 -0 -0 -0 -1 -1 -1 -2 -2 -3 -4 -5 -5 -6 -7 -7 -8 -8 -8 -9 -9 -10
2 1 1 1 2 3 3 3 3 3 3 3 3 3 2 2 1 0 0 -0 -0 -0 -0 -1 -1 -1 -1 -2 -2 -3 -3 -4 -5 -5 -6 -7 -8 -8 -8 -9 -9 -10 -10 -10
1 2 2 3 2 2 3 3 3 3 3 3 2 2 1 1 0 -0 -0 -0 -0 -1 -1 -1 -1 -1 -2 -2 -3 -3 -4 -5 -5 -6 -7 -8 -8 -8 -9 -9 -10 -10 -10 -11

GFSCGP_700_temp_024.txt.gz
Temp
-3 -3 -3 -1 -1 -1 -1 -2 -2 -1 -0 0 1 2 2 3 4 5 5 6 6 6 6 6 6 7 7 7 8 8 7 8 8 7 7 7 7 6 6 6 6 5 5 5
-4 -5 -3 -1 -1 -2 -2 -2 -2 -1 -1 -0 0 1 1 3 4 4 5 6 5 6 6 6 6 7 7 7 7 7 7 7 7 7 7 7 6 6 6 6 5 5 5 4
-4 -3 -2 -2 -2 -3 -3 -3 -3 -3 -1 -0 -0 1 2 4 4 4 5 5 5 5 6 6 6 7 7 7 7 7 7 7 7 7 7 6 6 6 6 5 5 4 4 3
-4 -3 -3 -2 -3 -3 -3 -2 -3 -3 -3 -3 -0 0 2 3 4 4 5 5 6 5 5 6 6 6 6 7 7 7 7 7 7 6 6 6 5 5 5 5 4 4 3 3
-4 -3 -3 -3 -2 -3 -3 -3 -3 -3 -3 -3 -2 -2 0 3 3 5 6 6 5 6 6 6 6 6 6 6 6 6 6 6 6 6 5 5 5 5 4 4 4 3 3 2
-4 -4 -4 -4 -3 -3 -4 -4 -4 -3 -3 -3 -1 -1 1 3 5 6 6 6 6 6 5 6 6 6 6 6 6 6 6 6 5 5 5 5 5 4 4 4 3 3 2 2
-4 -4 -4 -4 -5 -4 -5 -5 -4 -4 -4 -3 0 -1 1 3 5 6 7 7 6 6 6 6 6 6 6 6 6 6 6 5 5 5 5 4 4 4 4 3 3 2 2 2
-4 -5 -4 -4 -4 -4 -4 -4 -4 -5 -4 -2 -0 0 1 4 6 6 6 6 7 6 5 6 6 6 6 6 6 5 5 5 5 4 4 4 4 4 3 3 2 2 2 1
-5 -5 -4 -4 -3 -4 -4 -4 -2 -4 -2 -1 1 2 2 4 7 7 6 8 8 7 6 6 6 6 5 5 5 5 5 4 4 4 4 4 4 3 3 2 2 1 1 1
-4 -5 -3 -4 -4 -4 -4 -4 -4 -5 -5 -2 0 1 3 6 7 7 8 8 8 7 6 6 6 5 5 5 5 4 4 4 4 4 4 3 3 3 2 2 2 1 1 0
-4 -5 -4 -4 -4 -3 -4 -4 -4 -3 -2 -3 -0 2 5 6 7 7 7 8 8 7 6 6 5 4 4 4 4 4 4 4 3 3 3 3 3 2 2 2 1 1 0 -0
-4 -5 -5 -4 -3 -4 -4 -4 -4 -3 -2 -2 -2 1 6 6 7 7 7 7 7 6 6 5 4 4 4 4 4 4 3 3 3 3 3 3 2 2 2 1 1 0 -0 -1
-4 -5 -4 -3 -4 -4 -4 -4 -3 -2 -1 -1 -1 2 5 7 6 7 7 7 6 6 5 4 4 5 4 4 4 4 3 3 3 3 2 2 2 2 1 1 0 -0 -1 -1
-4 -4 -4 -3 -2 -2 -3 -3 -2 -3 -2 -2 -3 -0 6 6 6 6 6 6 5 5 5 5 5 5 4 4 4 3 3 3 3 2 2 2 1 1 1 -0 -1 -1 -1 -2
-4 -4 -3 -3 -3 -2 -2 0 -1 -2 -2 -2 0 3 6 6 6 6 6 5 5 5 5 5 5 4 4 4 3 3 3 3 2 2 2 1 1 1 -0 -1 -1 -1 -2 -2
-4 -3 -3 -3 -1 -1 -1 -1 -2 -1 -2 -1 -0 5 6 6 6 6 6 6 6 6 5 5 4 4 4 3 3 3 3 2 2 1 1 1 0 -0 -0 -1 -2 -2 -2 -3
-3 -3 -2 -1 -0 -0 -0 -0 -1 -1 -0 -0 1 5 5 6 6 6 5 5 5 5 5 5 5 4 4 3 3 3 2 1 1 1 1 0 -0 -0 -1 -2 -2 -3 -3 -3
-2 -2 -2 -0 -0 0 2 2 2 2 2 3 4 4 4 5 5 5 4 5 5 5 5 5 4 4 3 3 2 2 1 1 0 0 0 -0 -1 -1 -2 -3 -3 -3 -4 -4
-2 -2 -1 -0 0 2 3 3 3 3 4 4 4 4 4 4 4 4 4 4 4 4 4 4 3 3 2 2 1 1 0 0 0 0 -0 -1 -2 -2 -3 -3 -3 -4 -5 -5
-1 -1 -1 -0 -1 1 3 3 3 3 3 4 4 4 4 4 4 4 4 4 4 3 3 3 2 2 1 1 1 0 0 -0 -0 -1 -1 -2 -2 -3 -3 -4 -4 -5 -5 -6
-1 -1 -1 -1 -0 2 3 3 3 3 3 4 4 4 4 4 4 4 4 3 3 2 2 2 1 1 0 0 0 -0 -0 -0 -1 -1 -2 -3 -3 -3 -4 -5 -5 -6 -6 -6
-1 -1 -1 -1 -0 -0 3 3 3 4 4 4 5 4 4 3 3 3 3 3 2 2 1 1 1 0 -0 -0 -0 -1 -1 -1 -2 -2 -3 -3 -4 -4 -5 -6 -6 -6 -7 -8
-0 -0 1 1 2 2 3 3 3 4 4 4 5 4 4 3 3 3 3 2 2 1 1 0 -0 -0 -1 -1 -1 -1 -1 -2 -2 -3 -3 -4 -5 -5 -6 -6 -6 -7 -8 -8
1 0 0 1 2 2 2 3 3 3 4 4 4 4 4 3 2 2 2 1 1 1 0 -0 -1 -1 -1 -1 -1 -2 -2 -3 -3 -3 -4 -5 -6 -6 -6 -7 -8 -8 -9 -9
1 1 1 1 2 3 3 3 3 3 3 3 3 3 3 2 2 1 1 0 0 -0 -1 -1 -1 -1 -1 -2 -2 -2 -3 -3 -4 -4 -5 -6 -6 -7 -7 -8 -8 -9 -9 -10
1 2 2 2 2 2 2 2 2 2 2 2 2 2 2 1 0 0 -0 -1 -1 -1 -1 -1 -2 -2 -2 -2 -2 -3 -3 -4 -5 -5 -6 -6 -7 -8 -8 -9 -9 -10 -10 -11

GFSCGP_700_temp_027.txt.gz
Temp
-2 -3 -3 -3 -3 -3 -2 -2 -2 -2 -2 -0 0 1 1 2 3 3 5 5 5 6 6 5 6 6 7 6 6 7 7 7 7 7 7 7 6 6 6 5 5 5 5 5
-3 -3 -2 -2 -2 -3 -3 -3 -3 -2 -2 -2 -1 0 1 2 3 3 5 5 5 6 6 6 6 6 6 6 6 6 7 7 7 7 7 6 6 5 5 5 5 5 5 4
-3 -3 -1 -3 -2 -3 -3 -3 -4 -4 -2 -1 -2 1 2 3 4 5 5 5 6 6 5 5 6 6 6 6 6 6 6 6 6 6 6 6 6 5 5 5 5 5 4 4
-4 -3 -3 -3 -3 -3 -4 -3 -3 -3 -4 -3 -2 -2 1 3 5 5 5 5 6 6 5 5 5 5 6 6 6 6 6 6 6 6 6 6 5 5 5 5 4 4 4 3
-4 -3 -2 -3 -2 -3 -5 -4 -4 -4 -3 -3 -3 -3 -1 1 5 6 5 5 6 6 5 5 5 5 6 6 6 6 6 6 6 6 6 6 5 5 5 4 4 3 3 2
-4 -4 -4 -3 -3 -3 -4 -4 -4 -4 -4 -4 -3 -3 -1 1 4 6 6 6 6 6 6 5 5 5 5 6 6 6 6 6 6 6 5 5 5 4 4 4 3 3 3 2
-4 -4 -5 -4 -4 -5 -5 -4 -4 -4 -4 -4 -1 -2 0 3 5 5 6 6 6 6 6 6 5 6 5 6 6 6 6 6 6 5 5 4 4 4 4 3 3 3 2 2
-4 -4 -4 -4 -4 -4 -4 -4 -4 -4 -5 -5 -1 -1 1 4 5 5 5 6 6 6 6 6 6 5 5 6 5 5 6 6 5 5 4 4 4 4 3 3 3 2 2 2
-5 -5 -3 -3 -3 -5 -4 -5 -3 -5 -4 -4 -1 -0 1 3 4 5 7 6 6 6 6 6 6 5 5 5 5 5 5 5 5 4 4 4 3 3 3 3 2 2 2 1
-5 -5 -4 -3 -5 -4 -5 -4 -4 -4 -5 -5 -2 -1 0 3 5 6 7 7 6 6 6 6 5 6 5 5 5 5 5 4 4 4 3 3 3 3 2 2 2 2 1 1
-5 -6 -5 -5 -5 -3 -5 -5 -5 -4 -4 -6 -3 -1 1 2 3 5 7 7 7 6 7 7 6 5 5 5 4 4 4 4 4 3 3 3 3 2 2 2 1 1 1 0
-3 -5 -5 -5 -4 -4 -3 -3 -5 -4 -4 -4 -3 -2 1 2 3 5 6 6 6 7 7 7 6 5 5 4 4 4 4 3 3 3 3 3 2 2 2 1 1 1 0 0
-4 -5 -5 -4 -4 -5 -5 -4 -4 -4 -3 -3 -4 -2 1 3 4 4 5 6 7 7 7 6 5 5 4 4 3 3 3 3 3 3 2 2 2 1 1 1 0 0 0 -0
-4 -4 -4 -4 -3 -4 -5 -5 -5 -4 -4 -3 -3 -2 0 3 2 3 5 6 6 7 6 5 5 4 3 3 3 3 3 3 2 2 2 2 1 1 1 0 0 -0 -0 -1
-4 -4 -4 -3 -3 -4 -4 -3 -4 -4 -4 -3 -1 -2 2 2 1 3 4 6 6 5 5 4 4 3 3 3 3 2 2 2 2 2 1 1 1 0 0 -0 -0 -1 -2 -2
-3 -3 -3 -3 -3 -3 -4 -3 -3 -3 -3 -2 -2 0 1 2 1 3 4 5 5 5 5 4 3 3 3 3 3 2 2 2 1 1 1 0 0 -0 -0 -0 -1 -2 -2 -2
-3 -3 -4 -3 -1 -1 -3 -1 -2 -2 -2 -3 -3 -0 1 3 3 4 5 5 5 5 4 4 3 3 3 3 2 2 1 1 1 0 0 -0 -0 -0 -1 -1 -2 -2 -2 -3
-2 -2 -3 -2 -1 -0 -1 -0 -1 -1 -2 -2 -2 -1 0 1 4 5 5 5 5 4 4 3 3 2 2 2 1 1 1 0 0 -0 -0 -0 -0 -1 -1 -2 -2 -2 -3 -4
-2 -2 -2 -1 -1 1 1 0 0 -1 -0 0 0 1 1 3 4 5 5 4 4 4 3 3 2 2 1 1 1 1 0 0 -0 -0 -1 -1 -1 -1 -2 -2 -2 -3 -4 -5
-2 -2 -2 -1 -1 -0 2 1 1 1 2 1 2 2 3 4 4 4 4 4 4 4 3 2 2 2 1 1 1 0 -0 -0 -0 -1 -1 -1 -1 -2 -2 -3 -3 -4 -5 -6
-1 -1 -2 -1 -1 2 2 3 2 3 3 3 3 4 4 4 4 4 4 4 4 3 3 2 2 1 0 0 0 -0 -1 -1 -1 -1 -1 -2 -2 -2 -3 -4 -5 -5 -6 -6
-0 -1 -1 -1 -1 0 2 3 3 3 3 4 4 4 4 3 3 3 3 3 3 3 2 2 1 1 0 -0 -0 -1 -1 -1 -1 -2 -2 -2 -3 -3 -4 -5 -6 -6 -6 -7
-1 -0 0 0 1 2 2 2 3 3 4 4 4 4 4 3 3 3 3 3 2 2 1 1 0 -0 -0 -1 -1 -1 -1 -2 -2 -2 -2 -3 -4 -5 -5 -6 -6 -7 -7 -7
0 -0 -0 0 2 2 2 2 3 3 3 4 4 4 4 3 3 2 2 2 2 1 1 0 -0 -1 -1 -1 -1 -1 -2 -2 -2 -2 -3 -4 -5 -5 -6 -7 -7 -7 -8 -8
0 1 1 1 2 2 2 2 2 3 3 3 4 4 3 2 2 2 2 1 1 0 -0 -1 -1 -1 -1 -1 -1 -2 -2 -2 -3 -4 -5 -5 -6 -7 -7 -7 -8 -8 -9 -9
1 2 2 1 2 2 2 2 2 2 3 3 3 3 3 2 2 2 1 0 0 -0 -1 -1 -1 -1 -1 -2 -2 -2 -3 -4 -4 -5 -6 -6 -7 -7 -7 -8 -9 -9 -9 -10

GFSCGP_700_temp_030.txt.gz
Temp
-2 -3 -4 -1 -2 -3 -3 -3 -3 -3 -2 -2 0 1 2 2 2 4 4 5 5 6 6 6 6 6 5 6 7 6 6 6 6 6 6 6 6 6 6 5 5 3 4 3
-3 -2 -1 -2 -3 -3 -4 -3 -3 -3 -2 -2 -1 1 2 2 3 4 4 5 6 5 6 6 6 5 5 6 6 7 6 6 6 6 6 5 5 5 5 5 5 4 4 4
-2 -2 -2 -2 -2 -3 -3 -3 -3 -3 -2 -2 -2 0 2 4 4 4 5 5 5 5 5 6 5 5 5 6 6 6 6 6 6 6 6 5 5 5 5 5 4 4 3 4
-4 -3 -3 -3 -4 -3 -3 -3 -3 -3 -4 -4 -3 -3 0 2 3 5 5 5 5 6 5 6 5 5 5 6 5 6 6 6 6 6 6 5 5 4 4 4 4 4 4 3
-3 -3 -3 -4 -3 -4 -5 -4 -4 -4 -4 -4 -4 -4 -2 0 3 5 5 6 6 6 6 6 5 5 5 5 5 6 6 6 6 6 6 5 5 4 4 4 4 4 3 3
-4 -4 -4 -4 -4 -4 -5 -5 -4 -4 -4 -4 -3 -4 -1 0 2 4 5 5 6 6 6 6 5 5 5 5 5 5 5 5 6 6 6 5 5 4 4 4 3 3 3 2
-4 -4 -4 -4 -4 -4 -5 -4 -4 -4 -4 -4 -2 -3 -1 1 2 4 5 6 6 6 6 6 5 5 5 5 5 5 5 5 6 6 5 5 4 4 3 3 3 3 2 2
-4 -4 -3 -3 -3 -3 -4 -4 -4 -4 -4 -6 -2 -3 -1 1 2 4 4 4 5 5 6 6 6 5 5 5 5 5 5 5 5 5 5 4 4 4 3 3 3 2 2 2
-5 -5 -4 -3 -3 -4 -5 -5 -3 -4 -5 -4 -2 -1 -0 1 2 3 4 5 5 5 4 5 5 5 5 5 5 5 5 5 5 5 4 4 4 3 3 3 2 2 2 1
-5 -5 -4 -4 -4 -5 -5 -5 -5 -4 -4 -4 -4 -2 -1 1 2 2 3 4 4 5 5 5 5 5 5 5 5 5 5 5 5 4 4 4 3 3 3 2 2 2 2 1
-6 -6 -5 -5 -5 -4 -5 -5 -5 -5 -4 -6 -4 -2 -0 1 0 1 3 4 4 5 5 5 5 5 5 5 5 5 5 4 4 4 3 3 3 3 2 2 2 2 1 1
-4 -6 -5 -5 -3 -4 -5 -4 -5 -4 -5 -4 -3 -3 -0 0 1 1 1 3 5 5 6 6 6 6 5 5 5 5 4 4 4 3 3 3 2 2 2 2 2 1 1 0
-4 -5 -5 -4 -4 -5 -5 -5 -5 -5 -4 -5 -5 -2 -1 -0 0 1 1 2 5 5 6 6 6 6 5 5 4 4 4 4 3 3 2 2 2 2 2 1 1 1 0 -0
-5 -5 -4 -4 -2 -4 -5 -5 -5 -5 -4 -4 -4 -3 -1 0 1 1 1 1 4 4 5 6 6 5 4 4 4 3 3 3 3 2 2 2 1 1 1 1 0 0 -0 -0
-4 -4 -4 -3 -3 -4 -4 -4 -4 -4 -4 -4 -3 -4 -2 -1 -1 1 0 2 3 4 5 5 5 5 4 3 3 3 3 2 2 2 1 1 1 1 0 0 -0 -0 -0 -1
-4 -4 -3 -3 -3 -4 -4 -4 -4 -4 -4 -4 -5 -3 -2 -1 -2 -1 1 2 3 4 5 5 4 3 3 2 2 2 2 1 1 1 1 1 0 0 -0 -0 -0 -1 -1 -1
-3 -3 -4 -3 -3 -2 -2 -2 -2 -3 -4 -3 -4 -0 -3 -2 -1 0 2 3 3 4 4 4 3 2 2 2 2 2 1 1 1 0 0 -0 -0 -0 -1 -1 -1 -1 -2 -2
-3 -3 -3 -3 -1 -1 -1 -2 -2 -2 -2 -2 -2 -2 -3 -1 0 2 3 3 3 3 3 3 2 2 2 2 2 1 0 0 -0 -0 -0 -0 -1 -1 -1 -1 -1 -2 -2 -3
-2 -2 -3 -2 -2 -1 0 -1 -1 -1 -1 -0 1 -1 0 1 3 4 3 3 3 2 2 1 1 1 1 1 1 0 -0 -0 -0 -0 -1 -1 -1 -1 -1 -2 -2 -2 -3 -4
-2 -2 -3 -2 -2 -1 1 1 1 1 2 2 2 1 2 2 4 3 3 3 4 3 2 1 1 1 1 1 1 -0 -0 -1 -1 -1 -1 -1 -2 -1 -2 -2 -3 -4 -4 -5
-2 -2 -2 -2 -2 0 1 1 2 2 2 2 3 2 2 2 2 2 2 3 4 3 2 2 1 1 1 1 -0 -0 -1 -1 -1 -1 -2 -2 -2 -2 -2 -3 -4 -4 -5 -6
-1 -1 -1 -2 -2 -1 1 2 2 2 2 3 4 3 2 2 2 3 3 3 3 3 3 2 2 1 1 -0 -1 -1 -1 -1 -1 -2 -2 -2 -2 -3 -4 -4 -5 -5 -6 -6
-1 -0 -1 -1 0 1 1 2 2 3 3 4 4 3 3 2 3 3 3 3 3 2 2 1 1 0 -0 -1 -1 -1 -1 -1 -2 -2 -2 -3 -3 -4 -5 -5 -6 -6 -7 -7
0 0 -0 -0 1 2 2 2 2 3 3 4 4 3 3 3 3 3 3 2 2 2 1 1 0 -0 -1 -1 -1 -1 -2 -2 -2 -3 -3 -4 -4 -5 -5 -6 -7 -7 -7 -8
0 0 1 1 1 1 2 2 2 3 3 3 4 3 3 2 2 2 2 2 1 1 0 -0 -1 -1 -1 -1 -2 -2 -2 -2 -3 -3 -4 -4 -5 -6 -6 -7 -7 -8 -8 -8
1 1 1 1 1 2 2 2 2 2 3 3 3 3 3 2 1 1 1 1 0 -0 -1 -1 -1 -1 -1 -2 -2 -2 -3 -3 -4 -4 -5 -5 -6 -6 -7 -7 -8 -8 -9 -9

GFSCGP_700_temp_033.txt.gz
Temp
-2 -2 -1 1 -1 -2 -2 -2 -2 -2 -3 -1 1 2 2 3 3 4 5 5 5 6 5 6 5 5 5 5 5 6 6 6 6 6 6 6 6 6 5 5 5 5 3 3
-2 -1 -0 -1 -2 -3 -3 -3 -3 -4 -2 -3 -1 2 2 4 5 5 5 5 5 5 5 5 6 5 5 5 5 6 6 6 6 6 6 6 5 5 4 4 4 4 3 4
-2 -2 -2 -2 -3 -3 -3 -4 -4 -3 -3 -2 -3 1 3 5 5 5 5 6 6 6 6 5 5 6 6 5 5 6 6 6 6 6 6 6 5 4 4 4 4 2 3 3
-3 -2 -3 -4 -4 -4 -4 -3 -3 -4 -4 -5 -3 -2 -0 2 3 4 5 5 6 6 6 6 6 5 5 5 5 6 5 5 6 6 6 6 5 4 4 2 2 3 3 4
-2 -3 -3 -4 -3 -4 -4 -4 -4 -4 -4 -5 -5 -5 -0 -0 2 3 5 5 5 6 6 6 6 6 5 5 5 5 5 5 6 6 6 6 5 4 3 2 1 4 3 3
-4 -4 -5 -4 -4 -4 -4 -5 -5 -4 -5 -4 -3 -4 -1 -1 2 4 4 4 5 4 5 6 5 5 5 5 5 5 5 5 5 6 6 5 5 4 3 3 2 2 3 3
-4 -4 -4 -4 -4 -4 -5 -5 -4 -4 -4 -3 -2 -4 -1 1 2 2 4 4 3 4 4 5 5 5 5 5 5 5 5 5 5 5 5 5 5 4 3 3 3 3 3 2
-4 -4 -3 -5 -4 -5 -5 -4 -3 -4 -3 -3 -2 -4 -1 1 1 2 2 3 3 3 4 4 5 5 5 5 4 5 5 5 5 5 5 5 5 3 2 3 3 3 2 2
-4 -5 -4 -4 -4 -4 -5 -5 -4 -5 -4 -4 -3 -2 -1 1 0 1 1 1 2 3 4 4 4 4 5 4 4 5 5 5 5 5 5 5 4 2 2 3 3 2 2 2
-5 -5 -4 -4 -4 -4 -5 -5 -5 -5 -4 -3 -3 -4 -2 1 1 1 1 1 1 2 4 4 4 4 4 5 5 5 5 5 5 5 4 4 3 2 3 2 2 2 2 1
-5 -6 -5 -5 -4 -2 -4 -5 -5 -5 -4 -3 -3 -1 -1 0 0 1 0 1 1 2 3 4 4 4 4 5 5 5 5 5 5 4 4 4 3 3 2 2 2 2 1 1
-4 -6 -5 -4 -3 -4 -4 -4 -5 -4 -4 -5 -5 -3 -1 -0 0 1 0 0 1 1 4 5 5 4 4 5 5 4 4 4 4 4 3 3 3 2 2 2 1 1 1 1
-4 -5 -5 -4 -3 -3 -5 -4 -5 -5 -5 -5 -4 -2 -1 -1 -1 -1 -1 0 1 1 3 5 5 4 4 5 4 4 4 4 3 3 3 3 2 2 2 1 1 1 0 0
-4 -5 -4 -4 -2 -3 -4 -4 -4 -5 -5 -4 -5 -3 -2 -2 -1 -2 -1 -1 1 1 3 5 6 5 4 4 4 4 4 3 3 2 2 2 2 1 1 1 1 0 0 -0
-4 -5 -4 -3 -3 -3 -4 -4 -4 -5 -4 -5 -3 -4 -1 -2 -3 -2 -1 -1 0 2 3 5 5 5 4 4 4 3 3 3 2 2 1 1 1 1 1 0 -0 -0 -0 -1
-4 -4 -4 -3 -2 -3 -3 -2 -3 -4 -4 -4 -5 -4 -2 -3 -3 -2 -1 -1 0 1 3 4 4 4 3 3 3 3 2 2 2 1 1 0 1 0 0 -0 -1 -1 -1 -1
-4 -4 -4 -3 -2 -2 -2 -2 -2 -3 -4 -3 -4 -1 -2 -2 -2 -1 -1 0 1 2 3 4 3 3 2 2 2 2 2 1 1 0 0 0 0 -0 -0 -1 -1 -1 -2 -2
-4 -4 -4 -3 -2 -1 -1 -2 -2 -2 -2 -2 -2 -2 -2 -2 -1 1 1 2 2 3 3 3 3 2 1 1 1 1 1 0 -0 -0 -0 -0 -0 -1 -1 -1 -2 -2 -2 -3
-3 -4 -3 -3 -2 -1 -0 -1 -1 -1 -1 -1 -1 -1 -1 -1 0 1 2 2 2 2 2 2 1 1 0 0 0 0 -0 -0 -1 -1 -0 -0 -1 -1 -2 -2 -2 -3 -3 -3
-2 -3 -3 -3 -2 -2 1 1 0 0 -1 -0 -0 -0 -0 0 1 2 3 2 2 1 1 1 0 -0 -0 0 0 -0 -1 -1 -1 -1 -1 -1 -2 -2 -2 -3 -3 -3 -4 -4
-2 -3 -3 -3 -2 -0 1 1 2 2 -0 -0 0 0 0 1 2 2 3 3 2 2 2 1 0 -0 -0 -0 -0 -1 -1 -1 -1 -1 -1 -2 -2 -2 -3 -3 -3 -4 -5 -5
-2 -2 -2 -2 -2 -2 1 1 1 1 2 2 2 0 0 1 1 1 2 3 2 2 2 1 1 0 -0 -1 -1 -1 -1 -1 -1 -2 -2 -2 -2 -3 -3 -4 -4 -5 -5 -6
-1 -1 -1 -1 1 1 1 1 2 2 3 3 3 2 1 2 2 2 2 2 2 2 2 1 0 0 -0 -1 -1 -2 -2 -2 -2 -2 -2 -3 -3 -4 -4 -5 -5 -6 -6 -6
-0 -0 -1 -0 1 1 2 1 2 3 3 3 3 2 2 2 2 2 2 2 2 2 1 1 0 -0 -1 -1 -1 -2 -2 -2 -2 -3 -3 -3 -4 -4 -5 -6 -6 -6 -6 -6
-1 -0 0 1 1 1 2 2 2 3 3 3 3 3 2 2 2 2 2 1 1 1 1 -0 -1 -1 -1 -2 -2 -2 -2 -3 -3 -3 -4 -4 -5 -5 -6 -6 -6 -6 -7 -7
0 0 1 1 1 1 2 2 2 2 3 2 2 3 2 2 2 1 1 1 0 0 -0 -1 -1 -2 -2 -2 -2 -3 -3 -3 -4 -4 -5 -5 -5 -6 -6 -6 -7 -7 -8 -8

GFSCGP_700_temp_036.txt.gz
Temp
-2 -2 -0 0 -0 -1 -1 -2 -1 -1 -2 -1 1 0 1 3 4 4 5 5 5 6 6 6 6 6 5 5 5 5 6 6 6 6 6 6 6 6 5 5 5 5 5 4
-2 -1 -0 -1 -1 -2 -3 -3 -2 -2 -2 -2 -2 3 1 3 6 5 5 5 6 6 5 5 6 6 6 6 5 5 6 6 6 6 6 5 5 5 5 5 5 4 4 3
-2 -2 -1 -1 -2 -3 -4 -3 -2 -3 -3 -3 -3 1 3 2 4 5 6 6 6 6 6 6 6 6 6 6 5 5 5 5 6 6 6 6 6 5 5 5 4 4 3 3
-3 -3 -2 -3 -3 -3 -3 -4 -3 -4 -4 -2 -4 1 1 2 2 2 4 5 5 5 6 6 6 6 6 6 6 5 5 5 6 6 5 5 5 5 5 4 4 2 2 3
-2 -2 -2 -4 -2 -4 -4 -4 -4 -4 -4 -4 -3 -4 1 1 1 1 4 4 4 4 5 5 6 6 6 5 5 5 5 5 6 5 5 5 5 6 5 4 3 3 3 2
-4 -3 -4 -4 -3 -4 -4 -5 -5 -4 -4 -3 -2 -3 1 2 2 2 2 3 3 3 3 4 5 6 6 5 5 5 5 5 5 5 5 6 6 5 5 3 2 2 3 1
-4 -4 -3 -4 -5 -5 -5 -5 -2 -2 -3 -1 -0 -0 -0 2 2 3 2 2 2 2 3 3 4 5 5 5 5 4 4 5 5 5 5 5 5 5 4 3 2 3 1 2
-4 -2 -4 -3 -4 -4 -5 -5 -2 -1 2 2 -2 -1 1 1 -0 0 1 1 1 1 3 3 3 4 5 5 5 4 4 5 5 5 5 5 5 5 4 2 1 2 2 2
-4 -4 -3 -3 -4 -5 -5 -4 -4 -4 -3 -3 -1 0 0 0 -0 -1 1 -0 0 0 2 3 3 4 4 5 4 4 4 5 5 5 5 5 5 5 2 2 2 1 2 2
-4 -4 -4 -3 -4 -4 -5 -5 -4 -5 -3 -1 1 1 1 1 -0 0 1 -0 -0 0 1 2 4 4 4 4 4 4 4 4 5 5 5 5 5 4 2 3 1 1 2 1
-5 -5 -5 -5 -4 -4 -5 -5 -5 -4 -3 -1 1 3 1 0 -0 -0 -0 -0 -0 1 1 2 3 4 4 4 4 4 4 4 4 5 5 5 4 4 2 1 2 2 1 1
-4 -5 -6 -5 -3 -4 -4 -4 -5 -4 -2 -4 -3 -1 -1 -1 -1 -1 -0 -0 1 0 1 1 3 3 4 4 4 4 4 4 4 4 4 4 4 3 1 2 2 1 1 1
-5 -6 -4 -1 -3 -3 -5 -1 -4 -5 -4 -4 -3 -1 -1 -2 -2 -1 -1 -1 -1 0 1 1 3 3 3 4 4 4 4 4 4 4 4 4 3 1 1 1 1 1 0 0
-5 -5 -4 -1 -0 -2 -4 -4 -4 -5 -5 -3 -4 -3 -2 -4 -4 -3 -3 -2 -2 -0 1 1 3 4 4 4 3 4 4 4 4 4 4 3 2 2 1 1 0 0 -0 -0
-5 -5 -4 -2 -2 -3 -3 -4 -3 -4 -4 -4 -3 -4 -3 -4 -4 -4 -4 -2 -2 -0 1 1 3 4 4 4 4 3 3 3 3 3 3 1 2 1 1 -0 -0 -0 -1 -1
-4 -4 -4 -3 -3 -3 -3 -2 -2 -2 -2 -3 -4 -4 -3 -3 -4 -3 -3 -3 -2 -0 1 1 3 4 4 4 3 3 3 2 2 1 1 1 0 -0 -0 -1 -1 -1 -1 -1
-4 -4 -4 -3 -3 -2 -1 -2 -2 -2 -3 -3 -4 -2 -3 -3 -3 -3 -2 -2 -2 -1 1 2 3 4 4 3 2 2 2 1 1 2 1 0 -1 -1 -1 -1 -1 -1 -1 -2
-4 -4 -4 -4 -3 -1 -1 -2 -2 -1 -2 -2 -1 -2 -2 -2 -2 -2 -1 -1 -0 0 2 2 2 2 2 1 1 0 0 1 1 0 -1 -1 -1 -1 -1 -2 -2 -2 -2 -2
-3 -4 -4 -4 -3 -1 -0 -1 -1 -1 -1 -1 -1 -1 -1 -1 -1 -0 -0 -0 0 1 1 1 1 0 1 0 0 0 -0 -0 -0 -1 -1 -1 -1 -2 -2 -2 -2 -3 -3 -3
-3 -3 -4 -3 -3 -0 1 1 1 -1 -1 -1 -1 -1 -0 -0 -1 0 0 -0 0 1 1 1 0 0 0 0 -0 -0 -1 -1 -1 -1 -1 -1 -2 -2 -3 -3 -3 -3 -4 -3
-3 -3 -3 -3 -3 -1 1 0 1 1 -0 -0 -0 -0 -0 -0 0 1 1 0 -0 -0 0 0 0 -0 -0 -0 -1 -1 -1 -1 -1 -2 -2 -2 -3 -3 -3 -3 -4 -3 -4 -4
-2 -2 -2 -2 -2 -1 1 1 1 1 0 1 -0 0 0 0 0 -0 0 0 -0 0 0 -0 -0 -0 -0 -1 -1 -1 -1 -2 -2 -2 -3 -3 -3 -3 -4 -4 -4 -4 -4 -4
-2 -1 -1 -1 0 1 1 1 1 2 2 2 1 1 0 0 0 -0 1 0 0 -0 -0 -0 -1 -0 -1 -1 -2 -2 -2 -3 -3 -3 -3 -4 -4 -4 -4 -4 -4 -4 -5 -5
-1 -1 -1 -1 1 0 1 1 2 2 2 2 2 2 1 1 1 1 0 1 1 1 0 -0 -1 -1 -1 -1 -2 -3 -3 -4 -4 -4 -4 -4 -4 -4 -4 -4 -5 -5 -5 -6
-1 -1 -0 0 1 1 1 2 2 2 3 3 2 2 2 2 2 1 1 1 1 0 -0 -1 -1 -2 -2 -2 -2 -3 -3 -4 -4 -4 -4 -4 -4 -4 -5 -5 -5 -6 -6 -6
0 -0 -1 -1 0 1 1 2 2 2 2 2 2 2 2 2 2 1 1 0 0 -0 -1 -1 -2 -2 -3 -3 -3 -3 -3 -3 -3 -3 -4 -4 -5 -5 -5 -6 -6 -6 -7 -7

GFSCGP_700_temp_039.txt.gz
Temp
-2 -3 -1 -0 -1 0 1 0 2 2 2 0 1 1 2 2 3 5 5 6 6 6 6 6 6 6 6 6 6 6 6 6 6 6 6 6 6 6 6 6 5 5 5 5
-3 -1 -1 -1 -1 -1 -1 -1 0 1 0 -0 0 4 2 5 7 6 7 6 6 6 6 6 6 6 7 6 6 6 6 6 6 6 6 6 6 6 6 6 5 5 4 4
-3 -2 -1 -2 -2 -2 -2 -1 -0 -0 -0 -1 -0 3 7 5 5 7 7 7 7 7 7 6 6 6 6 6 6 6 5 5 5 6 6 5 6 6 6 5 5 5 4 4
-3 -2 -2 -2 -2 -2 -2 -1 -2 -2 -2 0 -1 2 3 5 4 4 3 5 6 6 5 6 6 6 6 6 6 6 5 5 5 5 5 6 6 6 6 5 5 4 4 3
-3 -2 -3 -3 -3 -3 -2 -3 -3 -3 -2 -3 -1 -1 2 4 4 3 3 3 3 3 3 4 5 5 6 5 5 5 5 5 5 5 5 5 5 5 5 5 5 4 3 3
-3 -4 -3 -3 -3 -3 -4 -4 -4 -4 -4 -2 -0 1 2 4 5 5 4 3 2 2 1 2 4 4 5 5 5 5 5 5 5 5 5 5 5 6 5 5 5 4 3 3
-4 -4 -4 -3 -4 -4 -4 -4 -1 -1 -3 -0 2 2 2 4 3 3 3 2 2 2 2 1 2 3 4 5 5 5 5 4 5 5 5 5 5 5 5 5 5 4 3 2
-3 -2 -3 -3 -4 -3 -4 -4 -1 1 3 4 2 2 3 3 2 1 2 1 1 1 2 5 2 3 3 4 4 5 5 4 4 4 4 5 5 5 5 5 4 3 2 2
-3 -3 -3 -4 -4 -4 -4 -4 -3 -3 -2 -1 0 2 2 2 2 2 2 1 0 0 -0 1 2 3 2 3 4 5 4 4 4 4 4 5 5 5 5 4 4 3 2 2
-3 -3 -3 -4 -4 -4 -4 -3 -4 -4 -2 0 4 4 4 4 3 2 1 1 0 -0 -1 0 1 2 2 2 3 4 4 3 4 4 4 5 5 5 4 5 3 3 2 1
-4 -4 -4 -5 -4 -4 -4 -5 -4 -3 -2 0 2 4 3 2 0 0 0 1 0 -1 -1 0 1 1 2 2 3 3 3 3 3 4 4 4 5 5 5 4 2 2 2 1
-4 -5 -5 -3 -3 -3 -3 -4 -4 -4 -1 -2 -3 -1 0 0 -1 -1 -2 -1 -1 -2 -2 0 1 1 1 2 2 3 3 3 3 4 4 4 4 4 4 3 2 2 2 1
-4 -5 -4 -2 -3 -3 -4 -4 -3 -4 -4 -3 -3 -0 0 -1 -2 -2 -2 -2 -2 -2 -2 -0 1 1 1 2 2 3 3 3 3 4 4 4 4 4 3 2 2 2 1 1
-5 -4 -4 -0 -1 -2 -3 -3 -4 -4 -4 -3 -3 -2 -2 -2 -3 -3 -4 -4 -3 -3 -2 -0 0 1 1 2 2 3 3 3 3 4 4 4 3 3 2 1 1 0 0 0
-5 -5 -4 -4 -3 -3 -3 -3 -2 -3 -3 -4 -2 -3 -2 -3 -3 -3 -3 -3 -3 -3 -3 -0 0 1 1 2 2 2 3 3 3 3 3 3 3 2 1 2 1 0 0 -0
-4 -5 -5 -4 -2 -2 -3 -3 -2 -2 -2 -2 -3 -2 -3 -3 -2 -3 -3 -3 -3 -3 -1 -1 0 1 2 3 3 3 2 2 3 3 2 3 1 0 2 0 -1 -1 -1 -2
-5 -5 -5 -4 -1 -2 -1 -1 -2 -2 -2 -3 -3 -3 -3 -3 -3 -3 -3 -3 -3 -3 -2 -1 -0 2 3 3 3 2 2 2 2 2 2 1 1 1 -0 -1 -2 -2 -2 -2
-4 -5 -5 -4 -2 0 0 -1 -1 -1 -2 -2 -2 -2 -2 -2 -2 -2 -2 -2 -1 -1 -1 -1 1 2 3 2 2 1 1 2 1 1 1 1 0 -1 -1 -2 -2 -2 -2 -3
-4 -4 -4 -3 -2 -1 1 -0 -0 -1 -1 -1 -1 -1 -2 -1 -2 -2 -2 -2 -1 -1 -1 -0 1 1 2 1 1 1 1 1 1 1 1 0 -1 -1 -2 -2 -2 -3 -3 -3
-4 -4 -4 -3 -3 0 2 0 1 0 -0 -1 -1 -1 -1 -1 -1 -1 -2 -1 -1 -1 -0 0 1 0 1 1 0 1 1 1 0 -0 -1 -1 -1 -2 -2 -3 -3 -3 -3 -3
-3 -3 -4 -4 -3 -1 1 0 1 1 0 -0 -1 -1 -1 -0 -0 -1 -1 -1 -0 -0 -0 -0 0 1 1 0 -1 -1 -1 -1 -1 -2 -2 -2 -2 -3 -3 -3 -3 -3 -3 -3
-2 -2 -3 -3 -3 -1 1 1 0 0 1 1 -0 -1 -1 -1 -0 -0 -1 -1 -1 -0 -0 -1 -0 -0 -1 -1 -1 -1 -2 -2 -2 -2 -3 -3 -2 -3 -3 -3 -3 -3 -3 -4
-1 -1 -1 -1 -1 -0 0 1 1 2 2 2 1 0 -0 -1 -1 -1 -0 -1 -1 -1 -1 -0 -1 -1 -1 -1 -1 -2 -2 -2 -2 -2 -2 -3 -3 -3 -3 -3 -3 -4 -5 -5
-1 -1 -1 -1 -0 -0 1 1 2 2 3 2 2 1 1 -0 -1 -1 -1 -1 -0 -0 -1 -1 -1 -1 -1 -2 -2 -2 -2 -2 -3 -3 -3 -3 -3 -3 -3 -4 -4 -5 -5 -5
-1 -1 -1 -0 0 0 1 1 2 2 2 2 2 1 1 1 -0 -0 -0 -0 -0 -0 -1 -1 -1 -2 -2 -2 -2 -3 -3 -3 -3 -3 -3 -3 -3 -4 -4 -5 -5 -5 -5 -6
-0 1 -1 -0 -0 0 0 1 1 1 1 1 2 1 2 2 1 1 0 -0 -0 -1 -1 -1 -1 -2 -2 -3 -3 -3 -3 -3 -3 -3 -4 -4 -4 -5 -5 -5 -5 -6 -6 -6

GFSCGP_700_temp_042.txt.gz
Temp
-1 -1 -1 -1 -0 0 1 2 2 3 3 2 2 2 2 4 4 6 6 5 7 7 7 7 7 7 7 6 5 5 5 6 6 6 6 6 6 6 6 6 6 6 6 5
-2 -1 -1 -1 -0 -0 -0 -0 0 1 2 1 1 3 4 6 7 7 7 7 8 8 7 7 7 7 7 7 6 5 4 4 6 6 6 6 6 6 6 6 6 6 5 5
-3 -1 -1 -1 -1 -1 -1 -1 -1 -0 0 0 1 3 7 6 6 7 8 8 7 7 7 7 7 6 6 7 6 5 5 4 4 5 6 6 5 5 6 6 6 6 5 4
-2 -2 -2 -1 -2 -2 -2 -1 -1 -1 -2 -1 -1 -1 5 7 7 6 6 7 7 6 6 6 6 6 5 5 6 6 5 5 4 4 5 5 5 6 6 5 5 5 5 4
-2 -2 -2 -2 -2 -2 -2 -2 -2 -2 -2 -3 -0 -1 5 5 5 6 5 4 4 4 4 5 4 4 4 4 2 4 5 3 4 3 4 5 5 5 5 5 5 5 4 4
-3 -3 -2 -2 -3 -3 -3 -3 -3 -3 -4 -4 -1 1 4 5 4 5 4 4 4 3 3 3 3 3 3 4 3 4 3 3 2 2 3 4 5 5 5 5 5 5 4 4
-3 -3 -4 -3 -3 -3 -3 -4 -3 -3 -4 -5 3 -0 3 4 5 5 3 3 3 3 2 2 2 2 3 4 4 4 3 2 2 2 3 4 4 4 4 5 5 5 5 4
-4 -2 -4 -3 -3 -3 -4 -4 -2 -2 -2 -1 0 2 2 4 3 3 3 3 2 2 2 2 1 1 2 3 3 4 2 2 2 2 3 3 4 4 4 4 5 5 5 4
-3 -3 -3 -4 -4 -3 -4 -4 -3 -3 -2 -3 -1 2 3 4 4 3 3 2 2 2 2 1 0 0 1 2 2 3 3 2 2 3 3 3 3 4 4 4 4 5 4 3
-3 -3 -3 -4 -4 -4 -4 -3 -4 -4 -7 -4 1 2 3 3 3 2 2 1 1 1 1 0 0 0 0 1 1 2 2 3 2 2 2 3 3 4 4 4 4 4 4 3
-4 -4 -4 -4 -4 -3 -4 -4 -4 -4 -3 -5 -3 2 3 3 3 2 2 1 1 0 -0 -0 -1 0 0 1 1 1 2 2 1 2 2 2 3 3 4 4 4 4 3 2
-4 -4 -4 -4 -3 -3 -3 -4 -4 -4 -2 -2 -2 -2 1 0 0 -1 -1 -1 -1 -1 -1 -2 -2 -1 -0 0 0 1 2 1 1 2 2 2 3 3 3 4 3 3 2 2
-4 -5 -4 -3 -3 -3 -3 -3 -3 -3 -3 -4 -4 -1 1 0 -1 -2 -3 -2 -2 -2 -2 -2 -3 -1 -0 0 0 0 -0 0 2 2 2 2 3 3 3 3 2 2 1 1
-4 -4 -3 -3 -2 -3 -3 -3 -3 -4 -4 -3 -3 -2 -1 -2 -2 -2 -3 -3 -3 -3 -3 -3 -3 -1 -0 -0 -1 -1 -0 0 2 2 2 2 3 3 3 3 2 1 1 1
-4 -5 -4 -4 -2 -2 -2 -3 -3 -3 -3 -3 -3 -3 -1 -2 -3 -3 -3 -3 -3 -3 -3 -3 -2 -1 -1 -0 -1 -1 1 1 1 2 2 2 2 1 2 2 2 1 1 1
-5 -5 -4 -3 -1 -2 -2 -2 -2 -2 -2 -2 -2 -2 -2 -3 -3 -3 -3 -3 -2 -3 -3 -3 -3 -2 -1 -1 -1 2 1 1 1 2 2 2 2 2 1 1 0 -0 0 -1
-4 -4 -4 -4 -3 -2 -2 0 -0 -0 -1 -2 -2 -2 -2 -2 -2 -2 -2 -3 -3 -4 -3 -3 -3 -1 -1 -0 1 1 1 1 1 1 1 1 1 0 -0 0 0 -0 -2 -2
-4 -4 -4 -4 -2 -2 0 0 -0 -1 -1 -1 -1 -1 -2 -2 -2 -2 -2 -2 -2 -3 -3 -3 -2 -1 -1 -0 1 1 1 0 1 1 1 1 0 0 1 0 -1 -2 -2 -2
-4 -4 -4 -4 -3 -0 1 -0 0 -0 0 -1 -1 -1 -2 -1 -1 -2 -2 -2 -2 -2 -2 -2 -2 -1 -0 1 1 1 -1 1 1 1 0 1 1 1 -0 -1 -2 -2 -3 -3
-4 -4 -4 -4 -3 -2 1 0 0 0 -0 -1 -1 -1 -0 -0 -1 -3 -1 -1 -2 -2 -1 -1 -1 -0 0 -0 -1 0 1 -1 1 -0 0 1 -0 -2 -2 -2 -3 -3 -3 -3
-4 -4 -4 -4 -3 -2 1 0 1 0 -0 -1 -1 -1 -1 -0 -1 -1 -1 -1 -2 -2 -2 -3 -2 -1 -1 -1 -1 0 0 -1 -1 -2 -2 -2 -2 -3 -3 -3 -3 -3 -3 -3
-3 -3 -3 -4 -4 -3 -0 -0 -0 1 0 0 -0 -1 -1 -0 -1 -2 -1 -1 -1 -1 -1 -1 -0 -1 -1 -1 -2 -2 -2 -2 -1 -2 -2 -3 -3 -3 -3 -3 -3 -3 -3 -3
-1 -1 -1 -1 0 0 -1 -0 1 1 1 2 1 -0 -0 -1 -1 -1 -1 -1 -2 -2 -2 -2 -2 -2 -2 -2 -2 -2 -2 -2 -3 -3 -3 -3 -3 -3 -3 -3 -3 -3 -4 -4
-1 -1 -1 -1 -0 -1 -0 0 1 2 2 2 1 1 0 -0 -1 -1 -1 -1 -1 -1 -1 -1 -1 -1 -2 -2 -2 -3 -3 -3 -3 -3 -3 -3 -3 -3 -3 -3 -3 -4 -4 -4
-1 -1 -1 -0 0 -0 0 0 1 1 1 2 2 1 0 0 -0 -0 -1 -1 -1 -1 -1 -2 -2 -2 -2 -3 -3 -3 -4 -4 -3 -3 -3 -2 -3 -3 -3 -4 -4 -4 -5 -5
-1 -0 -1 -1 -1 -0 0 0 1 1 1 1 1 1 1 1 1 0 -0 -1 -1 -1 -2 -2 -2 -2 -3 -3 -3 -3 -3 -3 -2 -2 -3 -3 -3 -4 -4 -5 -5 -5 -5 -5

GFSCGP_700_temp_045.txt.gz
Temp
-1 -1 -0 -0 1 1 1 0 0 2 1 1 1 1 2 5 5 5 6 6 7 7 8 8 7 7 7 7 6 5 5 4 5 5 6 6 6 6 6 6 6 6 6 6
-2 -1 -0 -1 -0 -0 -0 -0 0 2 2 1 2 4 4 5 7 7 8 8 8 8 7 7 6 6 6 6 6 5 4 4 4 4 5 5 5 5 5 5 5 6 6 5
-2 -2 -2 -1 -1 -1 -1 -0 0 -0 2 2 2 4 6 7 8 7 8 8 8 8 8 7 7 7 6 6 5 4 4 4 4 4 4 4 4 5 5 5 5 6 6 5
-3 -2 -1 -1 -1 -1 -1 -1 -1 -1 -1 -1 -0 -2 6 6 6 6 7 7 7 7 7 7 7 7 6 6 5 5 4 4 4 3 3 3 4 4 5 5 5 5 5 4
-2 -2 -2 -2 -2 -2 -2 -2 -2 -1 -1 -2 -0 -1 4 5 6 6 5 5 5 5 6 6 5 5 5 6 5 5 5 4 4 3 3 3 3 4 4 4 4 4 4 4
-3 -3 -2 -2 -2 -2 -2 -2 -2 -2 -3 -5 2 -0 2 5 5 5 5 4 5 5 4 4 5 5 4 4 4 4 3 4 3 3 3 3 3 3 4 4 4 4 4 4
-3 -3 -3 -3 -3 -3 -3 -3 -5 -3 -4 -5 -0 -2 2 4 5 4 4 4 4 4 3 3 2 3 2 2 2 3 2 2 3 3 3 3 3 3 3 3 3 3 3 4
-3 -3 -2 -2 -3 -2 -3 -3 -3 -4 -4 -4 0 -2 3 4 3 3 3 3 3 3 2 2 2 2 3 2 2 3 3 3 2 2 3 2 2 2 2 3 3 3 3 3
-3 -3 -3 -3 -3 -3 -4 -4 -4 -4 -3 -5 -1 1 3 4 4 3 3 2 2 2 2 2 2 2 2 2 2 2 2 3 3 2 2 2 1 2 2 2 2 3 3 3
-2 -3 -3 -3 -4 -4 -3 -3 -4 -4 -9 -6 -3 -1 2 3 3 3 2 2 2 1 1 1 1 2 1 1 1 1 1 2 2 2 2 2 1 1 2 2 2 3 3 3
-3 -3 -4 -3 -4 -3 -4 -4 -4 -4 -4 -7 -5 -1 2 2 2 2 2 1 0 -0 -1 -1 -0 -0 0 0 0 1 1 1 1 2 1 1 1 1 2 2 2 3 3 3
-4 -3 -3 -3 -3 -3 -3 -3 -4 -4 -3 -3 -3 -2 0 2 0 1 -1 -1 -1 -1 -2 -1 -1 -1 -1 -0 -0 0 1 1 1 1 2 1 1 1 2 2 2 3 3 3
-4 -4 -4 -4 -4 -4 -4 -4 -4 -4 -4 -4 -4 -2 -0 -0 -1 -2 -3 -3 -2 -2 -3 -2 -2 -2 -2 -1 -1 0 1 1 0 1 1 1 2 2 1 2 2 2 3 3
-4 -4 -3 -3 -3 -4 -4 -3 -3 -3 -4 -3 -3 -2 -0 -1 -2 -2 -3 -2 -2 -3 -2 -3 -2 -2 -2 -2 -1 0 -0 0 0 -1 -1 1 1 1 1 2 2 2 2 1
-4 -4 -4 -3 -2 -2 -3 -2 -3 -4 -2 -4 -0 -2 -2 -2 -2 -3 -3 -3 -3 -2 -3 -3 -3 -3 -2 -2 -1 -0 -2 -2 -1 -1 -1 0 1 1 1 1 1 1 0 1
-5 -4 -4 -3 -2 -2 -2 -2 -1 -2 -2 -3 -2 -2 -2 -1 -2 -2 -2 -2 -2 -3 -4 -3 -3 -4 -3 -3 -2 -2 -2 -1 -1 -0 -1 -0 -0 0 0 0 0 1 0 -0
-5 -5 -4 -3 -2 -3 -1 0 0 -0 -1 -1 -2 -1 -1 -1 -2 -2 -2 -2 -2 -2 -3 -3 -3 -4 -4 -3 -2 -1 -1 -1 -1 -1 -0 -0 0 0 0 -0 -0 0 -0 -0
-4 -4 -4 -3 -2 -4 0 1 -0 -0 -0 -1 -1 -1 -1 -1 -2 -2 -2 -2 -2 -2 -3 -4 -4 -3 -4 -2 -2 -2 -2 -1 -1 -1 -0 0 0 0 0 0 -0 -0 -1 -1
-4 -4 -4 -4 -3 -1 -0 -0 -0 -1 1 0 -1 -1 -1 -1 -2 -2 -2 -1 -2 -2 -2 -2 -2 -3 -3 -3 -3 -3 -2 -1 -1 -0 0 0 1 0 0 -0 -1 -2 -2 -2
-4 -4 -4 -4 -4 -3 -0 0 0 0 1 -0 -1 -1 -1 -1 -1 -1 -1 -2 -2 -2 -2 -2 -2 -2 -2 -2 -1 -1 -1 -1 -1 -1 -1 -1 -1 -1 -2 -2 -2 -2 -3 -3
-5 -4 -4 -4 -4 -2 -0 -0 -0 -0 0 0 -0 -1 -1 -1 -2 -1 -1 -1 -2 -2 -2 -1 -1 -1 -2 -2 -1 -2 -1 -1 -2 -3 -2 -2 -2 -2 -2 -2 -2 -2 -4 -4
-3 -3 -4 -4 -4 -3 -1 -0 -1 0 1 0 0 -1 -1 -1 -1 -1 -1 -1 -1 -2 -1 -1 -1 -1 -1 -2 -2 -2 -2 -2 -2 -2 -2 -3 -3 -2 -3 -3 -4 -4 -4 -4
-2 -1 -2 -2 -0 -1 -0 -0 0 1 1 1 1 -1 -1 -1 -1 -2 -2 -2 -2 -1 -1 -1 -1 -1 -1 -2 -2 -2 -3 -2 -3 -3 -3 -3 -3 -4 -4 -4 -4 -4 -5 -5
-2 -2 -2 -1 -0 -1 -0 -0 0 1 1 1 1 1 0 -0 -1 -1 -2 -2 -2 -2 -2 -2 -2 -2 -2 -3 -3 -3 -3 -3 -3 -3 -4 -4 -4 -4 -5 -5 -5 -5 -5 -5
-2 -2 -2 -1 -0 -0 -0 -0 0 1 1 1 1 1 0 0 -0 -1 -1 -1 -2 -2 -3 -3 -2 -3 -3 -4 -4 -4 -4 -4 -5 -5 -5 -5 -5 -5 -5 -5 -5 -5 -5 -5
-1 -1 -1 -1 -1 -1 -0 -0 0 0 1 1 0 1 0 1 1 -0 -1 -1 -1 -2 -2 -2 -2 -3 -3 -3 -4 -5 -5 -5 -5 -5 -5 -5 -5 -5 -5 -5 -5 -5 -5 -5

GFSCGP_700_temp_048.txt.gz
Temp
-0 -0 0 -0 -1 0 -0 0 0 1 1 1 2 1 4 6 4 5 6 7 7 8 8 7 7 6 6 6 5 5 5 5 5 5 5 5 5 5 5 6 6 6 6 6
-1 -0 -0 -1 -1 -1 -1 -1 1 1 1 0 1 3 4 6 6 6 6 6 6 6 7 7 7 6 6 6 6 6 6 4 4 4 5 4 4 5 5 5 5 5 6 5
-1 -1 -0 -1 -1 -1 -1 -1 -1 -0 1 1 2 3 5 6 7 7 8 7 7 7 7 7 7 6 6 6 6 6 6 5 4 4 4 4 4 4 4 5 5 5 6 5
-2 -2 -1 -1 -0 -1 -1 -1 -1 -0 -0 -0 1 -1 5 6 6 7 7 7 7 6 7 7 7 7 7 6 6 6 6 5 4 4 4 4 4 4 4 4 4 4 5 5
-2 -2 -2 -1 -1 -2 -1 -1 -1 -1 -2 -2 0 -1 4 5 7 6 6 6 6 7 6 6 6 6 6 6 5 5 4 4 4 4 4 3 3 3 3 3 3 4 4 4
-2 -2 -2 -2 -2 -2 -2 -2 -2 -2 -2 -5 -0 -1 3 5 5 4 4 5 5 4 4 4 4 5 4 4 4 4 4 4 3 3 3 3 3 3 3 3 3 3 4 4
-3 -3 -3 -2 -3 -3 -3 -3 -5 -5 -7 -5 -2 -3 4 5 4 4 3 3 4 3 3 3 3 3 3 3 3 3 3 3 3 3 3 3 3 2 2 2 2 2 3 3
-3 -4 -3 -3 -3 -2 -3 -3 -3 -5 -5 -5 -1 -2 3 4 4 3 3 3 3 3 3 2 2 2 2 2 2 2 3 3 2 2 3 3 3 3 2 2 2 2 2 3
-3 -3 -3 -3 -3 -3 -3 -4 -3 -4 -4 -6 -2 0 3 3 3 3 3 2 2 2 2 2 2 1 1 1 1 1 2 2 3 3 3 3 3 2 2 2 2 2 2 2
-3 -3 -4 -4 -4 -4 -3 -3 -4 -4 -9 -6 -3 -2 3 3 2 2 1 1 1 1 1 1 1 0 -0 1 1 1 1 2 1 2 3 3 3 2 2 2 1 2 2 2
-3 -3 -4 -4 -4 -3 -4 -4 -4 -4 -4 -7 -5 -0 2 2 2 2 2 1 1 1 0 1 0 -0 -1 -1 -1 -0 0 0 1 1 2 2 3 2 1 1 2 2 1 1
-3 -4 -4 -4 -3 -4 -4 -3 -4 -3 -4 -4 -5 -2 1 2 1 0 -1 -1 -1 -1 -1 -1 -1 -3 -2 -2 -1 -1 -1 -1 0 1 1 2 2 2 1 1 1 1 1 1
-4 -4 -4 -5 -4 -4 -4 -4 -4 -4 -4 -4 -4 -1 1 0 -1 -2 -1 -2 -2 -1 -2 -3 -3 -3 -3 -3 -2 -1 -1 -1 0 1 1 1 1 1 0 0 0 1 1 1
-4 -4 -3 -4 -3 -3 -4 -3 -3 -4 -4 -4 -3 -0 -1 -2 -2 -1 -1 -2 -2 -2 -2 -2 -3 -3 -3 -3 -3 -2 -2 -1 -0 -0 -0 -0 -1 0 0 0 0 1 1 1
-4 -4 -4 -3 -3 -4 -3 -3 -3 -4 -2 -4 -0 -2 -1 -2 -2 -2 -2 -2 -2 -2 -2 -3 -3 -3 -3 -3 -3 -3 -2 -2 -2 -1 -1 -0 -2 -1 0 0 1 1 1 1
-4 -4 -4 -2 -2 -3 -3 -2 -3 -3 -2 -4 -1 -1 -2 -2 -2 -1 -1 -2 -2 -2 -3 -2 -3 -3 -4 -4 -3 -3 -2 -1 -2 -2 -1 -1 -0 -1 -1 0 0 0 0 1
-5 -5 -4 -3 -3 -3 -2 -0 -0 0 -0 -1 -1 -1 -2 -1 -2 -2 -2 -2 -2 -2 -3 -3 -4 -3 -3 -4 -3 -2 -2 -2 -2 -2 -1 -1 -1 -1 0 0 0 0 0 0
-4 -5 -5 -4 -3 -5 -1 0 -0 -0 -0 -1 -1 -2 -2 -1 -2 -2 -2 -2 -2 -3 -4 -4 -4 -3 -4 -3 -3 -2 -2 -2 -2 -1 -1 -1 -1 -1 -1 0 0 0 -0 -0
-5 -5 -4 -4 -4 -1 -1 -0 -0 -1 1 0 -1 -1 -1 -1 -1 -1 -2 -2 -2 -3 -2 -2 -3 -3 -3 -2 -3 -3 -3 -2 -2 -2 -2 -1 -1 -1 -1 -0 -1 -1 -2 -2
-5 -5 -5 -4 -5 -3 -0 -1 -0 -0 1 -0 -0 -1 -1 -2 -2 -2 -1 -1 -2 -3 -3 -3 -2 -2 -2 -2 -3 -3 -3 -3 -2 -1 -1 -1 -2 -2 -2 -2 -3 -2 -2 -3
-5 -5 -5 -5 -4 -2 -0 -1 -0 -0 0 0 0 -1 -1 -1 -2 -2 -2 -1 -2 -2 -2 -2 -1 -1 -1 -1 -1 -1 -2 -2 -1 -1 -1 -1 -2 -2 -3 -3 -3 -3 -3 -3
-4 -5 -5 -4 -4 -3 -1 -1 -1 -0 0 1 1 0 -1 -1 -2 -2 -2 -1 -1 -1 -2 -2 -2 -1 -1 -1 -1 -2 -2 -2 -2 -2 -3 -3 -3 -3 -3 -4 -4 -3 -3 -3
-3 -2 -2 -2 -1 -1 -1 -1 -1 -0 1 1 1 0 -1 -1 -2 -2 -2 -2 -2 -2 -2 -2 -2 -2 -2 -2 -3 -3 -3 -3 -3 -3 -3 -3 -3 -4 -3 -3 -3 -3 -3 -3
-2 -3 -2 -2 -1 -1 -1 -1 -1 -1 0 1 1 1 0 -1 -1 -2 -2 -2 -3 -2 -2 -2 -2 -2 -3 -3 -3 -3 -3 -3 -4 -4 -4 -4 -3 -3 -3 -3 -4 -4 -4 -4
-3 -2 -2 -1 -1 -1 -1 -1 -1 -1 -0 0 0 0 0 -1 -1 -1 -2 -2 -2 -3 -3 -3 -3 -3 -3 -3 -3 -4 -4 -3 -3 -3 -3 -3 -4 -4 -4 -5 -5 -5 -5 -5
-2 -2 -2 -2 -2 -2 -1 -1 -1 -0 -0 0 0 0 -0 -0 -0 -1 -1 -2 -2 -2 -3 -3 -3 -3 -4 -5 -4 -3 -3 -3 -4 -4 -4 -4 -5 -5 -5 -5 -5 -5 -5 -5

GFSCGP_700_temp_051.txt.gz
Temp
-0 -1 -1 -0 -0 -0 -0 0 0 1 1 1 2 1 4 5 4 5 6 6 7 7 7 7 6 6 5 5 5 5 4 4 5 5 5 5 6 6 6 6 6 5 5 5
-1 -1 -0 -1 -1 -1 -0 -1 -0 1 1 0 1 2 4 5 5 5 5 6 6 7 7 7 6 5 6 6 6 5 5 4 4 4 4 4 5 5 5 5 5 5 5 5
-1 -1 -1 -1 -1 -1 -1 -1 -0 -0 0 0 1 2 5 6 5 6 6 6 7 7 7 7 7 6 5 5 5 6 6 5 4 4 4 4 4 4 4 5 5 5 5 5
-2 -1 -1 -1 -1 -1 -1 -1 -1 -1 -0 -1 0 -1 4 5 6 6 6 5 6 6 6 6 7 7 7 6 6 5 5 5 4 4 4 4 4 3 4 4 4 4 4 4
-2 -2 -1 -1 -1 -1 -1 -1 -1 -1 -1 -1 0 -1 4 5 6 5 5 5 5 6 6 6 5 6 6 6 6 6 5 5 4 4 4 3 4 3 3 3 3 3 3 3
-2 -2 -2 -2 -2 -2 -2 -2 -1 -1 -2 -5 -2 -1 5 4 4 4 4 5 5 5 4 4 4 4 4 4 4 4 4 4 4 4 3 3 3 3 3 3 3 3 3 3
-3 -3 -2 -2 -2 -2 -2 -2 -4 -5 -6 -5 -2 -2 5 4 3 4 4 3 3 4 3 4 4 4 4 4 3 3 3 3 3 3 3 3 3 2 2 3 3 3 3 3
-3 -3 -3 -2 -2 -2 -3 -2 -3 -4 -5 -5 -3 -2 3 4 3 3 3 3 3 3 3 3 3 3 3 3 2 2 2 2 2 2 2 2 2 2 2 2 2 3 3 3
-3 -3 -3 -3 -3 -3 -3 -3 -3 -3 -5 -6 -2 1 3 3 3 3 3 2 1 2 2 2 2 2 1 2 1 1 1 1 1 1 2 2 2 2 2 2 2 2 2 2
-3 -3 -3 -3 -4 -4 -3 -3 -3 -3 -8 -5 -3 -1 2 2 2 2 1 1 1 1 1 1 1 1 1 1 1 0 0 1 1 1 1 2 2 2 2 3 2 2 2 2
-3 -3 -4 -4 -4 -4 -4 -4 -3 -3 -4 -8 -6 0 2 2 2 1 1 1 1 0 0 1 1 1 1 1 1 -1 -1 -1 -0 0 -0 0 1 2 2 2 2 2 1 1
-3 -3 -4 -4 -4 -4 -4 -3 -3 -3 -5 -5 -5 -1 1 1 -0 -1 -1 -0 -1 -2 -2 -1 -0 1 -0 -2 -2 -3 -3 -2 -2 -1 -1 -0 0 1 2 1 2 1 1 1
-3 -3 -4 -5 -4 -4 -4 -4 -4 -4 -4 -4 -5 -1 1 0 -1 -1 -1 -1 -1 -2 -2 -2 -1 -2 -1 -2 -3 -3 -3 -3 -2 -1 -1 -0 -0 -0 1 1 1 1 1 1
-3 -3 -3 -4 -3 -3 -4 -3 -3 -4 -5 -4 -2 -0 0 -1 -2 -2 -1 -1 -1 -1 -2 -2 -0 -2 -2 -2 -3 -3 -3 -3 -3 -2 -1 -1 -1 -1 -0 0 -0 -0 -0 -0
-4 -4 -4 -3 -3 -4 -3 -3 -3 -4 -3 -4 -1 -2 -0 -2 -2 -2 -2 -2 -1 -2 -2 -2 -2 -3 -3 -4 -4 -4 -3 -3 -2 -2 -2 -1 -1 -1 -1 -0 0 -1 -0 0
-4 -4 -4 -3 -3 -3 -3 -3 -3 -3 -3 -3 -1 -1 -1 -2 -2 -2 -2 -2 -2 -2 -3 -3 -3 -3 -4 -4 -3 -3 -3 -2 -2 -1 -2 -1 -1 -2 -1 -2 -1 -1 -1 0
-5 -5 -5 -3 -4 -3 -2 -1 -1 -0 -0 -1 -2 -1 -2 -2 -2 -2 -1 -2 -2 -2 -4 -3 -4 -4 -4 -4 -4 -4 -3 -3 -2 -2 -2 -1 -2 -2 -1 -1 -1 -1 -1 -0
-4 -5 -5 -4 -3 -6 -1 -0 -0 -0 -0 -1 -0 -2 -2 -2 -2 -2 -1 -2 -2 -3 -3 -3 -4 -4 -4 -3 -3 -3 -3 -3 -2 -2 -2 -2 -2 -2 -2 -2 -1 -2 -0 -1
-5 -5 -5 -5 -5 -2 -0 -1 -1 -0 1 0 -1 -1 -1 -2 -2 -2 -1 -2 -2 -3 -3 -3 -3 -3 -3 -3 -3 -4 -4 -3 -3 -3 -2 -2 -2 -2 -2 -2 -1 -2 -2 -2
-5 -5 -5 -4 -5 -4 -1 -1 -1 -0 1 -0 -1 -1 -2 -2 -2 -2 -1 -2 -2 -1 -3 -3 -3 -4 -3 -3 -3 -2 -2 -2 -2 -2 -2 -2 -2 -2 -1 -1 -2 -3 -3 -3
-5 -5 -5 -4 -5 -2 -1 -1 -0 -0 -0 -0 -0 -1 -2 -2 -2 -3 -1 -1 -2 -2 -3 -2 -2 -3 -3 -3 -2 -2 -2 -2 -2 -1 -2 -2 -2 -2 -3 -3 -3 -3 -3 -4
-4 -5 -5 -5 -4 -3 -1 -1 -1 -1 -1 -0 -0 -1 -2 -2 -2 -3 -1 -1 -1 -1 -1 -2 -2 -2 -3 -3 -2 -2 -2 -2 -3 -3 -4 -4 -3 -3 -3 -4 -4 -4 -3 -3
-3 -3 -3 -3 -2 -1 -2 -2 -1 -1 -1 -0 -0 -0 -1 -1 -1 -2 -2 -2 -1 -2 -2 -2 -1 -2 -3 -3 -2 -3 -3 -3 -3 -3 -3 -3 -3 -4 -3 -3 -3 -3 -3 -4
-2 -3 -3 -3 -2 -1 -2 -1 -1 -1 -1 -1 -0 -0 -0 -1 -1 -1 -2 -3 -2 -2 -2 -2 -2 -2 -2 -2 -2 -3 -3 -3 -4 -4 -3 -3 -4 -4 -4 -4 -4 -3 -3 -3
-3 -3 -3 -2 -1 -2 -1 -1 -1 -1 -1 -1 -1 -0 -0 -1 -1 -2 -2 -2 -3 -4 -3 -3 -3 -3 -3 -3 -3 -3 -3 -3 -3 -3 -4 -4 -4 -3 -3 -4 -4 -3 -3 -4
-3 -3 -3 -3 -3 -2 -1 -1 -1 -1 -0 -0 -0 -0 -0 -0 -1 -1 -1 -2 -2 -3 -4 -4 -4 -4 -3 -3 -3 -3 -3 -3 -3 -3 -4 -4 -4 -4 -4 -4 -4 -4 -4 -4

GFSCGP_700_temp_054.txt.gz
Temp
-2 -1 -1 -1 -2 -1 -0 -0 0 1 1 1 1 1 3 4 5 5 5 6 7 7 7 6 6 6 6 5 5 4 4 4 4 4 5 5 5 6 5 5 5 5 5 5
-1 -1 -1 -1 -1 -1 -1 -1 0 0 0 0 1 2 3 5 5 5 5 5 6 6 6 6 6 6 6 5 5 5 5 4 4 4 4 4 4 5 5 5 4 4 5 5
-1 -1 -1 -1 -1 -1 -1 -1 0 -0 0 0 1 2 5 6 5 5 5 6 5 6 7 7 6 6 6 6 5 5 5 5 5 5 4 4 4 4 4 4 4 4 4 4
-1 -1 -1 -1 -1 -1 -1 -1 -1 -0 -1 -1 0 -1 5 5 5 5 5 5 5 5 5 6 6 6 6 6 6 6 5 5 5 5 4 4 4 4 4 4 3 4 4 4
-2 -1 -1 -1 -2 -1 -1 -1 -1 -1 -1 -1 -0 -0 4 5 4 4 4 4 4 4 5 5 5 5 5 5 5 6 5 4 4 4 4 4 4 4 4 4 4 3 3 4
-2 -2 -2 -2 -2 -2 -2 -2 -2 -1 -1 -4 -2 -0 4 3 3 3 3 3 3 4 4 4 4 4 4 4 4 5 4 4 3 3 3 3 3 3 3 4 3 3 3 3
-3 -3 -3 -2 -2 -2 -2 -2 -3 -5 -6 -5 -2 -2 4 3 3 3 3 3 3 3 4 4 4 4 4 4 4 4 4 3 2 2 2 2 2 3 2 2 2 3 3 3
-2 -3 -3 -3 -2 -2 -3 -2 -2 -4 -4 -5 -3 -3 2 2 2 3 3 3 3 2 3 3 3 3 3 3 3 3 3 3 2 2 2 2 2 2 1 1 2 2 2 2
-2 -3 -3 -3 -3 -3 -3 -3 -3 -3 -5 -6 -2 1 2 3 3 2 1 1 2 2 3 2 2 2 3 3 3 3 2 2 2 2 2 1 1 1 1 1 1 1 1 2
-2 -3 -3 -3 -4 -3 -3 -3 -3 -3 -8 -5 -3 -1 2 1 1 0 0 1 1 1 1 2 2 2 2 2 2 2 1 1 1 1 1 1 1 1 1 1 1 2 2 1
-2 -3 -4 -4 -4 -3 -3 -3 -3 -3 -3 -7 -4 0 1 1 0 0 0 0 1 0 0 1 1 1 1 1 1 1 1 1 0 0 0 0 -0 0 0 1 1 2 2 2
-3 -3 -4 -4 -4 -4 -4 -4 -3 -2 -5 -4 -5 -1 1 1 -0 -1 -1 -1 -1 -1 -1 -1 -1 1 1 1 0 0 0 -1 -2 -3 -2 -2 -1 -1 -0 -0 0 1 2 2
-3 -3 -4 -5 -4 -4 -4 -4 -4 -3 -4 -4 -5 -0 1 0 -1 -1 -1 -1 -1 -1 -1 -1 -2 -0 -0 0 -0 -0 -1 -2 -3 -3 -3 -3 -2 -1 -1 -0 -0 0 1 1
-3 -3 -3 -4 -3 -3 -4 -3 -3 -4 -4 -4 -2 1 1 -0 -1 -1 -1 -1 -2 -2 -1 -1 -1 0 -1 -1 -1 -2 -2 -3 -3 -3 -3 -3 -3 -2 -1 -1 -0 -0 0 0
-4 -4 -3 -3 -3 -4 -3 -3 -3 -4 -4 -3 -0 -1 0 -1 -1 -1 -2 -1 -2 -2 -1 -2 -1 -1 -2 -2 -3 -3 -3 -3 -3 -3 -3 -3 -2 -2 -1 -1 -1 -1 -1 -0
-4 -4 -4 -3 -3 -3 -3 -3 -3 -3 -3 -3 -1 -0 -1 -1 -1 -2 -2 -1 -2 -2 -2 -2 -1 -2 -2 -2 -3 -4 -4 -3 -3 -2 -2 -2 -2 -2 -2 -2 -2 -2 -2 -1
-4 -4 -4 -4 -4 -3 -2 -1 -1 -1 -1 -1 -2 -0 -2 -1 -1 -2 -2 -2 -2 -2 -3 -3 -2 -2 -4 -4 -4 -3 -4 -3 -3 -2 -2 -2 -2 -2 -2 -2 -2 -2 -2 -2
-4 -5 -5 -4 -4 -6 -1 -1 -1 -0 -0 -1 -1 -1 -1 -1 -1 -2 -2 -2 -2 -3 -3 -3 -3 -4 -3 -3 -4 -4 -4 -3 -3 -3 -3 -2 -2 -2 -2 -2 -2 -2 -2 -2
-5 -4 -4 -5 -6 -2 -1 -1 -1 -0 -0 -0 -1 -1 -1 -1 -2 -2 -3 -1 -3 -3 -3 -4 -4 -4 -4 -4 -4 -4 -4 -2 -2 -2 -3 -3 -2 -2 -3 -2 -2 -2 -2 -2
-4 -5 -5 -5 -5 -5 -2 -1 -1 -1 -1 -1 -1 -1 -1 -2 -2 -3 -1 -1 -2 -3 -3 -4 -2 -4 -4 -4 -4 -4 -4 -2 -2 -2 -2 -2 -3 -2 -3 -3 -3 -3 -3 -3
-5 -5 -5 -4 -4 -3 -2 -2 -1 -1 -1 -1 -1 -1 -1 -2 -2 -3 -2 -1 -1 -1 -1 -3 -3 -3 -3 -2 -2 -3 -3 -3 -2 -2 -3 -3 -3 -4 -4 -4 -4 -4 -4 -4
-4 -4 -5 -5 -5 -4 -2 -2 -2 -2 -2 -1 -1 -1 -1 -1 -2 -2 -2 -1 -1 -0 -1 0 -2 -3 -2 -2 -3 -4 -3 -2 -3 -3 -3 -4 -4 -4 -4 -5 -5 -4 -4 -4
-4 -3 -3 -4 -2 -3 -2 -2 -2 -2 -1 -1 -1 -1 -1 -1 -1 -2 -3 -2 -2 -1 -1 -1 -1 -2 -3 -3 -3 -3 -3 -3 -4 -4 -4 -4 -4 -4 -4 -4 -4 -4 -4 -4
-3 -3 -3 -3 -2 -2 -2 -2 -2 -2 -1 -1 -1 -1 -1 -1 -1 -2 -2 -2 -2 -2 -2 -2 -2 -2 -2 -2 -3 -3 -3 -3 -4 -4 -4 -4 -4 -4 -4 -4 -4 -3 -3 -3
-4 -3 -3 -3 -3 -3 -2 -2 -2 -2 -2 -1 -1 -1 -1 -1 -1 -2 -2 -2 -3 -3 -3 -3 -3 -3 -3 -2 -3 -3 -3 -3 -3 -4 -4 -4 -4 -4 -4 -4 -4 -3 -3 -3
-4 -3 -3 -3 -3 -3 -2 -2 -2 -1 -1 -1 -1 -0 -1 -1 -1 -1 -1 -2 -2 -3 -4 -4 -3 -3 -3 -3 -3 -3 -3 -3 -4 -4 -4 -4 -4 -4 -4 -4 -4 -4 -4 -4

GFSCGP_700_temp_057.txt.gz
Temp
-2 -2 -1 -1 -2 -1 -0 1 1 2 1 1 1 1 3 3 4 5 5 6 6 6 6 6 6 6 6 5 5 5 4 4 4 5 5 5 5 5 5 5 5 5 5 5
-2 -2 -2 -1 -2 -2 -1 -0 -0 0 0 -0 1 1 3 4 5 5 5 6 6 6 6 6 6 6 6 6 6 6 5 5 4 4 4 4 4 4 4 4 5 4 5 4
-2 -2 -1 -1 -2 -2 -1 -0 -0 0 0 0 1 2 4 4 4 5 5 5 6 6 6 6 6 6 6 6 6 6 6 6 5 5 4 4 4 4 3 4 5 5 5 5
-2 -1 -2 -1 -2 -2 -1 -1 -0 -0 -0 0 1 0 4 4 4 4 5 4 5 5 5 5 5 5 6 6 6 5 5 5 5 5 5 5 5 4 4 4 3 3 3 3
-2 -1 -1 -1 -1 -1 -1 -1 -1 -1 -1 -1 -0 -0 3 2 2 2 3 3 4 4 4 4 4 4 4 5 5 5 5 5 5 4 4 4 4 4 4 4 3 3 3 3
-2 -2 -2 -2 -2 -2 -2 -2 -2 -1 -1 -2 -1 -0 2 1 2 2 2 2 3 3 3 3 3 3 3 4 4 4 4 4 5 4 3 3 3 3 3 3 3 3 3 3
-2 -2 -2 -2 -2 -3 -2 -2 -3 -3 -4 -2 -2 -3 2 1 1 1 2 2 2 3 3 3 3 3 3 3 3 3 3 3 4 4 3 3 2 2 2 2 2 2 2 2
-2 -3 -3 -3 -2 -2 -2 -2 -2 -2 -2 -3 -3 -2 1 1 1 1 2 2 2 2 2 3 3 3 3 3 3 3 3 3 3 3 3 2 2 2 2 1 2 2 2 2
-2 -4 -3 -3 -3 -2 -3 -3 -2 -2 -5 -5 -1 -0 1 1 1 1 0 1 2 2 2 2 3 3 3 3 3 3 3 2 2 2 2 2 2 2 1 1 1 1 1 1
-2 -3 -4 -3 -4 -3 -2 -2 -3 -2 -6 -3 -2 -1 1 0 -0 -1 0 2 2 2 2 2 2 2 3 3 3 3 3 2 2 1 1 1 1 1 1 1 0 1 1 1
-2 -2 -4 -4 -4 -3 -3 -3 -2 -2 -3 -4 -3 1 1 0 0 0 1 1 1 2 1 1 2 2 2 2 2 2 2 2 1 1 1 0 -0 -0 -0 0 0 0 1 1
-2 -3 -4 -4 -4 -4 -4 -3 -3 -2 -4 -4 -4 0 0 1 1 1 1 0 0 0 0 1 1 2 1 1 1 1 1 0 0 0 0 -0 -1 -2 -2 -2 -1 -1 -0 0
-2 -3 -5 -5 -4 -5 -4 -4 -3 -3 -2 -3 -4 0 1 0 -1 -1 -1 -1 -0 -0 0 0 1 1 1 1 0 0 1 1 2 1 -0 -1 -2 -3 -3 -2 -2 -1 -1 -0
-3 -3 -3 -3 -3 -3 -4 -3 -4 -4 -3 -3 -1 1 1 -0 -1 -1 -1 -1 -1 -1 -1 -0 1 1 1 1 1 1 1 1 1 0 -1 -2 -2 -3 -3 -3 -2 -2 -2 -1
-3 -3 -3 -3 -3 -3 -3 -3 -3 -4 -3 -2 -1 0 0 -1 -1 -1 -2 -2 -2 -2 -2 -1 1 0 1 0 0 0 0 -0 0 -1 -1 -2 -2 -2 -3 -3 -3 -3 -2 -2
-4 -4 -3 -3 -3 -3 -3 -3 -3 -3 -3 -3 -2 0 -1 -1 -1 -2 -2 -2 -2 -2 -1 -0 1 0 -0 0 0 -0 0 -1 -1 -1 -1 -1 -2 -2 -3 -3 -4 -3 -3 -2
-4 -4 -4 -4 -4 -4 -3 -2 -2 -2 -1 -1 -1 -0 -0 -1 -1 -2 -2 -2 -2 -3 -2 -0 0 -1 -2 -1 -2 -2 -3 -2 -2 -2 -2 -2 -3 -3 -3 -3 -3 -2 -3 -2
-4 -5 -5 -4 -4 -6 -1 -1 -1 -1 -0 -0 -0 -1 -1 -1 -2 -2 -2 -3 -2 -3 -2 0 -1 -2 -3 -4 -3 -3 -2 -2 -1 -1 -2 -3 -2 -3 -3 -3 -3 -3 -3 -3
-5 -4 -4 -5 -5 -3 -1 -1 -1 -1 -1 -1 -1 -1 -1 -1 -2 -2 -2 -1 -1 -2 -2 -1 -3 -3 -4 -3 -3 -3 -3 -2 -2 -2 -3 -4 -3 -3 -3 -3 -3 -3 -3 -3
-4 -5 -5 -5 -5 -5 -2 -2 -1 -1 -1 -1 -1 -1 -1 -2 -2 -2 -1 -1 -0 -0 -1 -3 -3 -3 -2 -3 -2 -2 -2 -2 -2 -3 -3 -2 -3 -3 -4 -3 -4 -4 -4 -4
-5 -5 -5 -5 -5 -4 -2 -2 -2 -2 -2 -1 -1 -1 -1 -1 -2 -2 -2 -2 -1 -1 -0 -0 -3 -3 -4 -2 -2 -2 -3 -3 -2 -3 -3 -3 -3 -4 -4 -4 -4 -5 -5 -5
-4 -5 -5 -6 -5 -5 -2 -2 -2 -2 -2 -2 -1 -1 -1 -1 -1 -2 -3 -2 -1 -1 -0 0 -2 -3 -4 -3 -4 -3 -3 -3 -3 -3 -3 -4 -4 -4 -4 -4 -4 -4 -4 -4
-4 -4 -4 -4 -3 -3 -3 -2 -2 -2 -2 -2 -1 -1 -1 -1 -1 -1 -2 -3 -2 -2 -1 -1 -1 -2 -3 -3 -3 -3 -3 -3 -3 -3 -4 -3 -3 -4 -4 -4 -4 -5 -5 -5
-4 -3 -4 -4 -3 -3 -3 -3 -2 -2 -2 -2 -1 -1 -1 -1 -1 -2 -1 -2 -3 -2 -2 -2 -2 -2 -2 -2 -3 -3 -3 -3 -3 -3 -3 -3 -3 -4 -4 -4 -4 -4 -4 -4
-4 -3 -3 -3 -3 -3 -3 -2 -2 -2 -2 -2 -2 -1 -1 -1 -1 -1 -2 -2 -3 -3 -2 -2 -3 -3 -3 -3 -3 -3 -3 -3 -3 -3 -3 -4 -4 -4 -4 -4 -4 -4 -4 -4
-3 -3 -4 -4 -4 -3 -3 -3 -2 -2 -2 -2 -1 -1 -1 -1 -1 -1 -1 -2 -2 -3 -3 -3 -3 -3 -3 -3 -3 -3 -3 -3 -3 -3 -4 -4 -4 -4 -4 -4 -4 -4 -4 -4

GFSCGP_700_temp_060.txt.gz
Temp
-3 -2 -1 -2 -1 -0 -0 -0 0 2 1 2 2 1 3 3 4 5 5 5 5 6 7 7 7 7 7 7 6 6 6 5 5 5 5 5 5 5 5 5 5 5 5 5
-3 -2 -2 -1 -2 -1 -1 -0 0 1 1 1 0 1 2 3 4 5 5 5 6 6 6 6 7 7 7 6 6 6 6 5 5 5 5 5 5 5 5 5 4 4 4 4
-3 -2 -2 -2 -2 -1 -1 -0 -1 -0 0 0 0 2 3 4 4 4 5 5 5 6 6 6 6 6 6 6 6 6 6 6 6 5 5 5 5 5 5 5 5 5 4 4
-3 -2 -2 -2 -2 -1 -1 -1 -0 -0 -0 2 1 5 2 2 3 3 4 4 5 5 5 6 5 5 5 6 6 6 6 6 6 5 5 5 5 5 4 4 4 3 4 4
-2 -2 -2 -1 -2 -2 -1 -1 -1 -1 -1 -0 1 2 0 1 1 2 3 3 3 3 4 4 4 4 5 5 5 5 5 5 5 6 5 5 5 5 4 4 4 4 4 3
-2 -2 -1 -1 -2 -2 -1 -1 -1 -1 -1 0 -0 0 1 0 0 1 1 1 2 2 3 3 3 4 4 4 4 4 4 4 5 5 5 5 4 4 4 3 3 3 3 3
-3 -2 -2 -2 -2 -2 -1 -2 -1 -0 -0 2 -1 -1 2 1 1 1 1 1 2 2 2 3 3 3 3 4 4 4 4 4 4 4 4 4 4 4 3 3 3 3 3 2
-3 -3 -3 -2 -2 -2 -3 -2 0 2 2 2 -2 -0 1 0 0 0 1 1 2 2 3 3 3 3 3 3 3 3 3 3 3 3 3 3 3 3 3 2 2 2 2 2
-3 -4 -3 -2 -2 -2 -3 -3 -1 -1 -3 -1 1 -0 -0 0 0 -0 0 1 1 2 2 3 3 3 4 4 4 4 3 3 3 3 2 2 2 2 2 1 1 1 1 1
-2 -4 -3 -3 -3 -3 -3 -2 -2 -1 -0 2 1 0 2 0 -0 -1 0 0 1 2 2 2 3 3 3 4 4 4 4 3 3 3 2 2 1 1 1 1 1 1 1 1
-2 -2 -4 -4 -3 -3 -3 -3 -2 -2 -2 1 4 3 0 -0 -0 -0 1 1 1 2 2 2 2 3 3 3 3 3 3 3 3 3 2 2 2 1 1 0 0 0 -0 -0
-2 -3 -4 -4 -3 -3 -3 -3 -2 -1 -2 -3 -3 2 0 -0 0 1 1 0 1 1 1 1 2 2 2 2 3 2 2 2 2 2 2 2 1 1 0 0 -1 -1 -1 -1
-2 -3 -4 -4 -4 -4 -4 -3 -2 -2 -2 -3 0 2 0 0 -0 -1 -0 -0 -0 0 0 1 1 2 2 2 1 1 1 1 1 1 1 2 2 1 1 -0 -2 -2 -2 -2
-2 -2 -2 -1 -3 -3 -4 -3 -3 -3 -3 -2 -1 -0 0 0 -1 -1 -1 -1 -1 -1 -0 -0 1 1 1 1 0 1 1 1 1 2 1 1 1 1 -0 -1 -2 -2 -2 -3
-3 -3 -3 -3 -3 -3 -3 -3 -3 -3 -3 -2 -1 0 -0 -1 -1 -1 -1 -2 -2 -2 -1 -0 -0 1 2 1 1 1 1 1 1 1 1 1 0 -0 -1 -1 -2 -2 -3 -3
-3 -3 -3 -3 -3 -3 -3 -3 -3 -3 -3 -2 -1 0 -1 -1 -1 -1 -1 -2 -2 -2 -1 -0 -0 1 1 2 1 1 1 1 1 0 0 -0 -0 -1 -1 -2 -2 -3 -2 -3
-4 -4 -4 -3 -4 -3 -3 -1 -1 -1 -1 -1 -1 -0 -1 -1 -1 -1 -2 -2 -2 -3 -3 -1 -1 0 1 2 1 1 1 1 1 0 -0 -1 -2 -2 -4 -3 -3 -3 -3 -3
-4 -5 -4 -4 -4 -2 -1 -1 -2 -1 -2 -1 -0 -1 -1 -1 -1 -2 -2 -1 -0 -1 -2 -1 -1 -0 1 2 1 1 0 1 -0 -1 -1 -1 -2 -2 -2 -2 -3 -3 -2 -3
-4 -5 -4 -4 -4 -2 -1 -1 -1 -1 -1 -1 -1 -1 -1 -1 -1 -2 -1 -1 -0 -0 -1 -0 -1 -0 0 1 1 1 0 0 -0 -1 -3 -2 -2 -2 -3 -3 -2 -3 -3 -4
-4 -5 -5 -6 -5 -1 -2 -1 -1 -1 -1 -1 -1 -1 -1 -1 -2 -2 -1 -1 -0 -0 -0 -0 -0 -3 -0 0 1 1 -0 -0 -1 -2 -2 -3 -3 -3 -3 -4 -4 -3 -3 -4
-5 -5 -5 -5 -4 -3 -2 -2 -2 -2 -2 -2 -1 -1 -1 -1 -1 -2 -2 -1 -1 -0 -0 1 0 -3 -2 -0 -0 -1 -1 -1 -2 -2 -2 -2 -3 -3 -3 -3 -4 -4 -4 -4
-5 -5 -6 -6 -5 -4 -2 -2 -2 -2 -2 -2 -1 -1 -1 -1 -1 -1 -2 -2 -1 -1 -1 0 0 -1 -0 -1 -1 -2 -2 -2 -2 -2 -2 -3 -3 -3 -3 -3 -3 -3 -4 -4
-4 -4 -4 -4 -3 -3 -3 -3 -3 -2 -2 -2 -1 -1 -1 -1 -1 -1 -2 -2 -2 -2 -1 -1 -0 -0 -0 -1 -2 -2 -2 -2 -2 -3 -3 -3 -3 -3 -3 -3 -4 -4 -4 -4
-4 -3 -4 -3 -3 -3 -4 -3 -3 -2 -2 -2 -2 -1 -1 -1 -1 -2 -2 -2 -2 -3 -2 -2 -1 -1 -1 -2 -2 -2 -3 -3 -3 -3 -3 -3 -3 -3 -4 -4 -4 -4 -4 -4
-4 -3 -4 -3 -3 -3 -3 -3 -3 -3 -2 -2 -2 -2 -1 -1 -1 -1 -2 -2 -2 -2 -3 -2 -2 -2 -2 -2 -2 -2 -3 -3 -3 -3 -3 -3 -4 -4 -4 -4 -4 -4 -4 -4
-3 -3 -3 -4 -3 -3 -3 -3 -3 -2 -2 -2 -2 -2 -1 -1 -1 -1 -1 -1 -2 -2 -2 -3 -3 -2 -3 -3 -3 -2 -3 -3 -3 -3 -3 -3 -4 -4 -4 -4 -4 -4 -4 -4

GFSCGP_700_temp_063.txt.gz
Temp
-2 -3 -2 -2 -0 1 2 2 3 3 2 1 1 2 2 2 3 5 5 5 5 6 6 7 7 7 7 7 7 7 6 6 6 6 5 6 6 5 5 5 5 5 5 5
-3 -2 -1 -1 -0 1 1 2 2 2 1 1 2 2 2 1 3 4 4 5 4 5 7 7 7 7 7 7 7 7 7 6 6 5 5 5 6 5 5 5 5 5 5 4
-3 -2 -2 -1 -1 -0 1 1 2 1 0 0 1 1 1 2 4 5 5 5 5 5 6 6 7 7 7 7 7 6 6 6 6 6 5 5 5 5 5 5 5 5 5 4
-2 -2 -2 -2 -1 -0 1 1 1 -1 -0 2 1 6 2 2 4 4 4 5 5 5 5 6 6 6 6 6 6 6 6 6 6 6 6 6 5 5 5 5 5 4 4 4
-3 -2 -2 -1 -1 -1 -1 -0 -0 -0 0 1 1 2 2 2 2 2 3 4 4 4 4 4 4 5 5 5 5 5 6 6 6 6 6 5 5 5 5 5 4 4 4 4
-2 -2 -2 -2 -1 -1 -1 -2 -1 -1 -0 1 3 3 2 2 1 0 2 2 3 3 3 3 3 3 4 4 4 4 5 5 5 5 5 5 5 5 5 4 4 4 3 3
-3 -3 -2 -2 -2 -2 -1 -1 -1 -1 -0 3 1 1 4 2 1 0 -1 1 1 2 2 2 3 3 3 3 4 4 4 4 4 4 5 5 4 4 4 4 3 3 2 2
-3 -3 -3 -2 -2 -2 -2 -1 1 2 3 4 -2 1 3 1 -0 -1 1 1 1 2 2 2 3 3 3 3 4 4 4 3 3 3 3 3 3 3 3 3 3 3 2 2
-2 -3 -3 -3 -2 -2 -2 -2 -1 -1 1 3 2 1 0 0 -0 -0 -0 1 1 2 2 2 3 3 3 3 3 3 3 3 3 3 3 3 3 3 2 2 2 2 2 2
-2 -3 -3 -2 -3 -2 -2 -2 -1 -1 1 3 3 3 4 0 -0 -0 -0 0 1 1 2 2 3 3 3 4 4 4 4 4 4 4 3 3 3 2 2 2 1 1 1 1
-2 -2 -4 -3 -3 -2 -2 -2 -1 -1 -0 3 5 4 2 1 0 -1 -0 0 0 1 2 2 3 3 3 3 3 4 4 4 4 3 3 3 3 2 2 2 1 1 0 0
-1 -3 -3 -3 -3 -2 -3 -2 -1 0 1 -1 -1 2 0 -1 -1 -0 0 1 1 1 1 2 2 2 2 3 3 3 3 3 3 3 3 3 2 2 2 2 1 1 1 0
-2 -3 -3 -3 -4 -3 -3 -3 -3 -2 -1 -2 2 2 -0 -1 -1 0 1 0 0 0 1 1 1 2 2 2 2 2 2 2 2 2 2 2 2 2 2 2 1 1 1 0
-2 -2 -2 0 -2 -2 -3 -3 -3 -3 -2 -0 -0 1 -0 -1 -0 -2 -1 -1 -1 -1 -1 -0 0 1 1 2 1 1 2 1 2 2 2 2 2 2 2 1 1 1 0 -0
-3 -3 -2 -2 -2 -2 -3 -3 -4 -3 -2 -2 -1 -0 0 -1 -1 -2 -1 -1 -1 -2 -2 -1 0 1 1 1 1 2 1 1 1 2 2 2 2 2 1 1 1 -0 -1 -2
-3 -3 -3 -3 -2 -2 -3 -2 -3 -3 -2 -3 -1 -0 -1 -1 -1 -1 -1 -1 -2 -2 -2 -1 -0 0 0 1 1 2 2 1 1 1 2 2 2 1 0 0 -0 -0 -1 -1
-4 -4 -3 -2 -3 -3 -3 -0 -1 -1 -1 -1 -1 -0 -1 -1 -1 -1 -1 -1 -1 -1 -1 -0 -0 0 1 1 2 1 2 1 1 1 1 1 2 1 1 -0 -0 -1 -1 -1
-4 -4 -4 -3 -3 -2 -1 -1 -1 -2 -1 -1 -0 -1 -1 -1 -1 -1 -1 -1 -1 -0 0 -0 0 0 1 1 1 1 1 1 1 1 1 1 1 -0 -1 -1 -1 -0 -1 -2
-4 -4 -4 -3 -2 -1 -1 -1 -1 -1 -1 -0 0 -1 -1 -1 -1 -1 -1 -1 -0 -0 -0 -0 -0 -0 0 0 0 1 1 1 1 1 1 1 0 -0 -1 -1 -1 -1 -2 -3
-4 -4 -4 -4 -3 -1 -2 -1 -1 -1 -1 -1 -1 -1 -1 -1 -1 -1 -2 -1 -1 -0 0 0 1 -1 -1 0 1 1 1 0 1 0 -0 -0 -1 -1 -1 -2 -2 -2 -2 -3
-5 -5 -5 -4 -4 -2 -2 -2 -1 -2 -2 -1 -1 -1 -1 -1 -1 -2 -2 -2 -2 -1 0 1 1 -0 -1 -0 0 1 0 0 -0 -0 -1 -1 -1 -2 -2 -2 -2 -2 -2 -3
-4 -4 -4 -4 -5 -3 -2 -2 -2 -2 -2 -2 -1 -1 -1 -1 -1 -1 -2 -2 -2 -2 -0 -0 0 -0 -0 -0 -0 -1 -1 -0 -1 -1 -1 -2 -2 -2 -2 -2 -2 -2 -2 -2
-4 -3 -3 -4 -3 -3 -2 -3 -2 -2 -2 -2 -2 -1 -1 -1 -1 -1 -2 -2 -2 -2 -1 -1 -1 -0 -0 -1 -1 -1 -1 -1 -1 -2 -2 -1 -2 -2 -2 -2 -2 -2 -3 -3
-4 -4 -4 -3 -3 -3 -3 -3 -3 -3 -2 -2 -2 -2 -1 -1 -1 -1 -2 -2 -2 -2 -2 -1 -1 -1 -1 -1 -1 -1 -2 -2 -2 -2 -2 -2 -2 -3 -3 -3 -3 -3 -3 -3
-3 -3 -3 -3 -3 -3 -3 -3 -3 -3 -3 -2 -2 -2 -2 -1 -1 -1 -1 -2 -2 -2 -3 -2 -2 -2 -1 -2 -2 -2 -2 -2 -2 -2 -2 -2 -3 -3 -3 -3 -3 -3 -3 -3
-4 -3 -4 -3 -3 -3 -4 -3 -3 -3 -2 -3 -2 -2 -2 -1 -1 -1 -1 -1 -1 -2 -2 -3 -3 -2 -2 -2 -2 -3 -2 -3 -3 -3 -3 -3 -3 -3 -3 -3 -3 -4 -4 -3

GFSCGP_700_temp_066.txt.gz
Temp
-2 -2 -2 -1 -0 0 1 1 1 2 2 2 3 2 3 2 3 4 4 5 5 6 6 6 7 7 7 7 7 7 7 7 6 6 5 6 6 6 5 5 5 5 5 5
-3 -2 -1 -1 -1 -0 -1 -1 2 2 2 2 2 2 2 3 3 4 4 5 5 4 4 5 7 8 7 7 7 7 7 7 6 6 6 5 6 6 6 5 5 5 5 5
-3 -2 -2 -2 -1 -1 -0 1 2 2 1 0 1 2 2 2 2 3 5 5 5 5 6 6 7 7 7 7 7 7 7 7 6 6 6 6 5 6 6 6 6 5 4 4
-2 -2 -1 -2 -1 -0 -0 1 2 1 1 1 1 2 4 4 3 4 5 5 5 5 5 6 6 7 7 7 7 6 6 6 6 6 6 6 6 5 6 6 6 6 5 5
-3 -2 -2 -1 -0 -1 0 1 1 0 1 1 0 1 4 3 2 3 3 4 5 5 5 5 5 6 5 6 6 6 6 6 6 6 6 6 6 5 4 4 5 5 5 5
-2 -2 -2 -2 -2 -2 -0 0 -0 -0 -0 -1 1 2 2 3 4 3 2 3 3 4 4 4 4 4 4 4 4 5 5 5 5 5 5 5 5 5 5 4 4 5 4 4
-2 -2 -3 -2 -2 -2 -2 -1 -1 -2 -2 -2 2 2 4 3 2 2 3 2 2 2 2 3 3 3 3 4 4 4 4 5 5 5 5 5 5 5 4 4 4 4 4 4
-2 -3 -3 -2 -2 -1 -2 -0 -0 -1 -1 -1 1 1 2 3 2 1 0 1 1 1 2 2 2 3 3 3 4 4 4 4 5 4 4 4 4 4 4 4 4 3 3 3
-3 -3 -4 -3 -3 -2 -1 -2 -1 -1 1 0 1 1 0 2 1 0 1 1 1 1 1 2 2 2 3 3 3 4 4 4 4 4 4 4 4 3 3 3 3 3 2 2
-2 -3 -3 -3 -2 -2 -2 -2 -1 -0 -2 0 1 2 3 2 1 1 -0 0 1 1 2 2 2 3 3 3 4 4 4 4 4 4 4 4 3 3 3 3 2 2 2 1
-2 -2 -3 -3 -3 -3 -3 -2 -1 -1 0 -3 -0 2 2 3 2 1 -0 0 1 1 1 2 2 2 3 3 4 4 4 4 4 4 4 3 3 3 3 2 2 2 2 1
-2 -3 -3 -3 -3 -2 -2 -2 -2 -1 0 -0 -0 -0 0 1 0 -1 -0 -0 0 1 1 2 2 2 3 3 3 3 3 3 3 3 3 3 3 3 3 2 2 2 2 2
-2 -2 -3 -3 -3 -2 -2 -1 -1 -1 -1 -1 -2 -0 -0 -0 -1 -1 -0 1 1 1 1 2 2 2 2 2 2 2 3 2 2 2 2 2 2 2 2 2 2 2 2 1
-2 -2 -2 -2 -2 -2 -2 -1 -2 -2 -2 -1 0 0 -0 -1 -1 -1 -0 0 0 0 0 0 1 1 1 1 2 2 2 1 2 2 2 2 2 2 2 2 2 2 2 2
-2 -3 -2 -2 -2 -2 -2 -2 -3 -3 -1 -1 -0 0 1 -0 -0 -1 -1 -0 -0 -1 -1 -1 -0 1 0 1 1 2 1 1 2 2 2 2 2 2 2 2 2 2 2 1
-3 -2 -2 -2 -2 -2 -2 -2 -2 -3 -2 -2 -1 0 -1 -1 -1 -2 -1 -0 -1 -1 -1 -0 -1 -1 0 0 1 1 1 2 2 2 2 2 2 2 2 2 2 1 1 1
-3 -3 -3 -2 -2 -2 -2 0 -1 -1 -1 -1 -1 0 -0 -1 -1 -1 -1 -1 -1 -1 -0 -0 -0 -0 0 0 1 1 1 1 2 2 2 1 2 2 2 1 1 1 1 1
-4 -4 -4 -4 -3 -6 -1 -0 -0 -1 -1 -1 -0 -1 -2 -2 -1 -1 -1 -1 -1 -1 -0 0 0 0 1 1 1 0 1 1 1 1 1 1 2 1 1 1 1 0 1 0
-4 -4 -4 -4 -2 -1 -1 -1 -1 -1 -2 -1 -1 -1 -1 -1 -1 -1 -1 -1 -1 -0 0 0 1 1 1 0 0 0 0 1 1 1 1 1 1 0 1 0 -0 -0 -0 -1
-4 -4 -4 -4 -4 -3 -1 -1 -1 -2 -1 -1 -0 -1 -1 -1 -1 -1 -1 -1 -1 -1 0 0 1 1 -1 -0 -0 -0 0 0 0 0 -0 0 0 -0 -0 -0 -1 -1 -1 -1
-5 -4 -4 -4 -3 -3 -2 -2 -2 -2 -2 -2 -1 -1 -1 -1 -1 -1 -2 -2 -2 -1 -1 -0 1 0 -0 -0 -0 -0 0 0 0 -0 -0 -0 -1 -1 -1 -1 -1 -1 -1 -1
-4 -4 -4 -4 -4 -4 -2 -2 -2 -2 -2 -2 -1 -1 -1 -1 -1 -1 -1 -2 -2 -2 -1 -0 0 0 -0 -1 -1 -1 -1 -0 -1 -1 -1 -1 -1 -1 -1 -1 -1 -1 -2 -2
-4 -3 -3 -3 -3 -3 -2 -2 -2 -2 -2 -2 -2 -2 -1 -1 -1 -1 -1 -2 -2 -3 -2 -1 -1 -1 -0 -1 -1 -1 -1 -1 -1 -1 -2 -1 -2 -1 -1 -1 -2 -2 -2 -2
-4 -4 -3 -3 -2 -3 -3 -3 -3 -3 -3 -2 -2 -2 -2 -2 -2 -1 -2 -2 -2 -2 -3 -2 -1 -1 -1 -1 -1 -1 -1 -1 -2 -2 -2 -2 -2 -2 -2 -2 -2 -2 -2 -2
-3 -3 -3 -3 -3 -3 -3 -3 -3 -3 -3 -3 -3 -2 -2 -2 -1 -1 -1 -1 -2 -2 -3 -2 -2 -2 -1 -1 -2 -2 -2 -2 -2 -2 -2 -2 -2 -2 -2 -3 -3 -3 -3 -3
-3 -3 -3 -3 -3 -3 -3 -3 -3 -3 -3 -3 -3 -3 -2 -2 -2 -1 -1 -1 -2 -2 -2 -2 -2 -2 -2 -2 -2 -2 -2 -2 -2 -2 -3 -3 -3 -3 -3 -3 -3 -3 -4 -4

GFSCGP_700_temp_069.txt.gz
Temp
-2 -2 -2 -1 -1 -1 -0 0 1 1 1 1 2 3 3 4 4 5 5 5 5 5 5 5 6 6 6 6 7 6 6 6 6 7 7 7 6 6 5 5 5 5 5 5
-3 -2 -2 -1 -1 -1 -0 -0 1 1 1 1 2 2 3 3 4 4 5 4 4 5 6 6 7 7 7 6 7 7 6 6 6 6 6 7 7 7 6 6 5 5 5 5
-2 -2 -2 -1 -1 -0 -1 -0 0 1 1 1 1 1 2 3 3 3 4 5 5 5 5 6 6 7 7 6 6 6 6 6 6 6 6 6 6 6 6 6 6 5 5 4
-3 -3 -2 -2 -1 -1 -1 0 0 1 1 0 1 1 3 3 4 4 4 5 5 5 5 5 6 6 6 6 6 6 6 6 6 6 6 6 6 6 6 6 6 6 5 5
-2 -3 -2 -2 -2 -1 -1 0 -0 1 1 1 1 1 2 4 3 4 5 5 5 5 5 5 5 5 6 6 6 6 6 6 6 6 6 6 6 6 6 5 6 6 5 5
-3 -2 -3 -2 -2 -1 -1 -0 -0 0 -0 -2 1 0 3 4 5 5 4 4 4 5 5 5 4 5 5 5 5 5 5 5 5 5 5 5 5 5 5 5 5 5 5 5
-3 -2 -1 -1 -1 -2 -1 -2 -2 -2 -3 -4 1 1 2 3 4 5 4 4 4 4 4 3 4 4 4 4 4 4 4 5 5 5 5 5 5 5 5 5 4 4 4 4
-2 -3 -3 -2 -2 -1 -2 -1 -1 -3 -4 -3 1 0 2 3 3 3 3 3 3 3 3 3 3 3 3 3 3 3 4 4 5 5 5 5 5 5 5 5 4 4 4 4
-2 -3 -3 -3 -3 -2 -2 -2 -1 -0 -0 -2 1 1 1 2 2 3 3 3 2 2 2 2 2 2 2 3 3 3 4 4 4 5 5 5 5 5 5 4 4 4 3 3
-2 -3 -4 -4 -3 -3 -2 -2 -2 -1 -3 -2 -1 0 2 1 2 2 1 2 1 1 2 2 2 2 2 2 3 3 4 4 4 4 4 4 4 4 4 4 4 3 3 3
-3 -2 -4 -4 -3 -3 -2 -2 -2 -1 -1 -4 -2 1 2 2 3 2 1 0 1 1 1 1 1 1 2 2 3 3 4 4 4 4 4 4 4 4 4 4 3 3 3 3
-2 -2 -4 -3 -3 -3 -2 -2 -1 -1 -1 -1 -1 0 2 2 2 1 0 -0 0 0 0 1 1 1 2 2 3 3 3 4 4 4 4 4 3 3 3 3 3 3 3 3
-2 -3 -4 -4 -4 -3 -3 -3 -2 -2 -2 -1 -3 -0 1 1 -0 -1 -0 -0 -0 -0 0 1 1 1 2 2 3 2 3 3 3 3 3 3 3 3 3 3 3 3 2 2
-2 -2 -2 -3 -2 -1 -2 -2 -2 -3 -3 -1 -0 -0 -0 -0 -0 -1 -1 -0 0 0 0 0 0 1 1 1 1 1 2 2 2 2 2 2 2 2 2 2 2 2 2 2
-2 -2 -2 -2 -2 -1 -1 -1 -1 -2 -1 -1 0 -0 -0 0 0 -0 -0 0 0 0 0 -0 0 0 0 1 1 1 2 2 2 2 2 2 2 2 2 2 2 1 1 2
-2 -2 -2 -2 -2 -2 -2 -1 -2 -2 -2 -2 -1 -0 0 -1 -1 -1 -1 -0 -0 -0 -0 -0 -0 0 -0 -0 0 1 1 1 2 1 2 2 2 2 2 2 1 1 2 1
-2 -3 -3 -2 -3 -3 -3 0 -0 -1 -1 -0 -2 0 -0 -1 -1 -1 -1 -1 -1 -1 -1 -0 -0 0 -0 0 0 0 0 1 1 1 1 2 1 2 1 1 1 1 1 1
-4 -4 -4 -4 -4 -7 -1 -0 -0 -0 -0 -1 -1 -1 -1 -1 -1 -1 -1 -1 -1 -1 -0 -0 -0 -0 -0 -0 -0 0 0 1 0 1 1 1 1 1 1 1 1 1 1 1
-4 -4 -4 -4 -4 -2 -1 -1 -1 -1 -1 -1 -0 -1 -2 -2 -1 -1 -1 -1 -1 -1 -1 -0 0 0 0 0 -0 -0 -1 -0 -0 0 0 1 1 1 0 0 -0 -0 -0 -1
-4 -4 -4 -4 -4 -4 -2 -1 -1 -1 -1 -1 -0 -1 -2 -1 -1 -1 -1 -1 -1 -1 -1 -0 0 1 1 0 -1 -1 -1 -1 0 0 0 -0 0 -0 -0 -1 -1 -1 -1 -1
-5 -4 -4 -4 -4 -3 -2 -2 -2 -2 -1 -1 -0 -1 -1 -1 -1 -1 -1 -2 -2 -2 -2 -1 -0 0 0 -0 -0 -0 -0 -0 -0 -0 -0 -1 -1 -1 -1 -1 -1 -2 -1 -1
-4 -4 -5 -5 -4 -4 -2 -3 -3 -1 -1 -1 -1 -1 -1 -1 -1 -1 -1 -2 -2 -3 -2 -2 -1 -1 -0 -0 -0 -0 -0 -0 -1 -1 -1 -1 -1 -1 -1 -2 -2 -2 -2 -2
-4 -3 -4 -3 -3 -3 -3 -2 -2 -2 -2 -2 -2 -2 -2 -1 -1 -1 -1 -1 -2 -2 -3 -2 -1 -1 -0 -0 -0 -0 -1 -1 -1 -1 -1 -1 -2 -2 -2 -2 -2 -2 -2 -2
-4 -4 -4 -4 -3 -3 -3 -3 -3 -3 -3 -2 -2 -2 -2 -2 -2 -2 -1 -2 -2 -2 -3 -3 -2 -1 -1 -1 -1 -1 -1 -2 -2 -2 -2 -2 -2 -2 -2 -2 -2 -2 -2 -3
-4 -4 -4 -3 -3 -3 -3 -3 -3 -3 -3 -3 -3 -3 -2 -2 -2 -2 -2 -2 -2 -2 -2 -3 -2 -2 -1 -2 -2 -2 -2 -2 -2 -2 -2 -2 -2 -2 -2 -2 -3 -3 -3 -3
-4 -4 -4 -3 -3 -3 -3 -3 -3 -3 -3 -3 -3 -3 -3 -3 -2 -2 -2 -2 -2 -2 -2 -2 -2 -2 -2 -2 -2 -2 -2 -2 -2 -2 -2 -3 -3 -3 -3 -3 -3 -3 -3 -4

GFSCGP_700_temp_072.txt.gz
Temp
-3 -2 -2 -2 -2 -1 -1 0 1 1 1 1 1 2 3 4 4 5 5 5 5 5 5 6 6 6 6 6 6 7 7 7 6 6 6 6 6 6 6 6 6 6 5 5
-3 -3 -2 -2 -2 -1 -0 0 1 1 1 1 1 2 3 3 4 4 5 5 5 5 5 6 6 6 6 6 6 6 6 6 6 6 6 6 6 6 5 5 5 5 5 5
-3 -3 -2 -2 -2 -1 -1 -0 0 1 1 1 1 1 2 3 3 4 5 4 4 5 5 5 6 6 6 6 6 6 6 6 6 6 6 6 7 7 7 6 6 5 5 5
-2 -3 -3 -2 -1 -2 -1 -1 -0 0 0 0 0 -0 2 3 3 4 5 5 4 5 5 5 5 5 5 5 6 6 6 6 6 6 6 6 6 7 7 7 6 6 6 5
-3 -2 -2 -2 -2 -1 -1 -1 -0 -0 0 0 0 0 2 3 4 4 5 5 4 4 4 4 5 5 5 5 5 5 6 6 6 6 6 6 6 6 6 6 6 6 6 5
-2 -2 -3 -2 -2 -2 -1 -1 -1 -0 -0 -1 1 1 2 3 4 5 5 4 4 4 4 5 5 5 5 5 5 5 5 5 5 5 5 5 5 5 5 5 5 5 5 5
-3 -3 -3 -3 -2 -2 -1 -0 -2 -2 -2 -3 0 0 1 3 4 5 5 4 3 3 3 3 3 4 4 4 4 4 5 4 4 4 4 5 5 5 5 4 4 5 5 5
-3 -3 -2 -2 -2 -1 -2 -1 -1 -2 -3 -3 -0 -0 1 3 4 3 4 4 3 3 3 3 3 4 4 4 4 4 4 4 4 4 4 4 4 4 4 4 4 4 4 4
-3 -4 -4 -3 -2 -2 -2 -2 -2 -1 -2 -3 0 1 2 3 3 4 3 3 3 3 3 3 2 3 3 3 3 3 3 3 4 4 4 4 4 4 4 4 4 4 4 4
-2 -3 -3 -4 -3 -3 -2 -2 -3 -2 -5 -3 -1 -0 2 3 4 3 4 4 3 2 2 2 2 1 2 2 2 2 3 3 3 4 4 4 4 4 5 5 5 4 4 4
-2 -2 -4 -4 -3 -4 -3 -3 -3 -1 -1 -5 -3 -0 2 2 3 4 3 3 2 2 1 1 1 1 1 2 2 2 2 3 3 4 4 4 4 4 4 4 4 4 4 3
-2 -3 -5 -4 -3 -3 -3 -3 -2 -1 -2 -1 -2 0 2 2 2 2 2 1 1 0 0 0 0 1 1 1 2 2 3 3 3 3 4 4 4 4 3 3 3 4 3 3
-2 -3 -4 -4 -4 -4 -3 -2 -2 -2 -1 -1 -3 1 2 2 2 1 0 -0 -0 -0 -0 0 0 1 1 1 2 2 3 3 3 3 3 3 3 3 3 3 3 3 3 3
-2 -2 -2 -2 -1 -1 -3 -2 -2 -2 -2 -1 -1 1 1 2 2 1 -0 -1 -0 -0 -0 0 0 0 0 1 1 2 2 2 2 2 2 2 2 2 2 2 2 2 3 2
-3 -2 -2 -2 -2 -2 -2 -2 -2 -2 -1 -2 -1 -1 0 1 2 1 0 -0 -0 -0 -0 -0 -0 -0 -0 -0 1 1 1 1 1 2 2 2 2 2 2 2 2 2 2 2
-3 -3 -2 -2 -2 -2 -2 -2 -2 -2 -2 -2 -1 -1 0 1 0 -1 -1 -1 -0 -0 -0 -0 -0 -0 -0 0 0 0 0 1 1 1 2 2 2 2 2 2 2 2 2 2
-3 -3 -3 -3 -2 -3 -3 0 -0 -0 -0 -0 -2 1 -1 -0 0 0 -1 -1 -1 -1 -1 -1 -1 -0 -0 0 -0 -0 0 0 0 1 1 1 1 1 2 2 1 1 1 1
-3 -4 -4 -4 -4 -7 -0 -1 -0 -0 -0 -0 -0 -0 -1 -1 -1 -1 -1 -1 -1 -1 -1 -1 -1 -0 -0 0 -0 0 0 0 0 0 0 1 1 1 1 1 1 1 0 0
-4 -4 -4 -4 -5 -2 -0 -1 -0 -0 0 0 0 -0 -1 -2 -2 -1 -1 -1 -1 -1 -1 -1 -1 -0 -0 -0 -0 -0 -0 -0 -0 -0 -0 0 0 0 0 0 0 -0 -0 0
-4 -4 -4 -4 -5 -5 -2 -2 -2 -2 -1 0 0 -0 -1 -2 -1 -1 -1 -1 -1 -2 -2 -1 -1 -0 0 0 0 -0 -0 -0 -1 -1 -0 -0 -1 -1 -1 -1 -1 -1 -1 -1
-5 -5 -5 -5 -4 -4 -2 -2 -2 -2 -1 -1 -1 -1 -1 -1 -0 -2 -2 -2 -2 -2 -2 -2 -1 -1 -0 0 0 -0 -0 -1 -0 -0 -1 -1 -1 -1 -1 -1 -1 -1 -1 -1
-4 -4 -4 -5 -5 -5 -2 -3 -2 -2 -1 -1 -1 -1 -1 -1 -2 -1 -2 -2 -2 -3 -3 -3 -2 -1 -0 -0 -0 -0 -0 -0 -1 -1 -1 -2 -2 -2 -1 -1 -2 -2 -2 -2
-4 -4 -4 -4 -3 -3 -3 -3 -2 -2 -2 -2 -2 -2 -2 -2 -2 -2 -2 -2 -2 -2 -3 -3 -3 -2 -1 -0 -0 -0 -1 -1 -1 -1 -1 -2 -2 -2 -2 -2 -2 -2 -2 -2
-3 -4 -4 -4 -3 -3 -3 -3 -3 -3 -3 -3 -3 -2 -2 -2 -2 -2 -2 -2 -2 -2 -3 -3 -3 -2 -1 -1 -1 -1 -1 -1 -1 -2 -2 -2 -2 -2 -2 -2 -2 -3 -3 -3
-3 -4 -4 -4 -3 -3 -3 -3 -3 -3 -3 -3 -3 -3 -3 -3 -3 -3 -2 -2 -2 -2 -3 -3 -3 -3 -2 -2 -2 -2 -2 -2 -2 -2 -2 -2 -2 -2 -2 -3 -3 -3 -3 -3
-3 -3 -4 -4 -3 -3 -3 -3 -3 -3 -3 -3 -3 -3 -3 -3 -3 -3 -2 -2 -2 -2 -2 -2 -2 -2 -2 -2 -2 -2 -2 -2 -2 -2 -2 -2 -3 -3 -3 -3 -3 -3 -3 -3

GFSCGP_700_temp_075.txt.gz
Temp
-2 -3 -3 -2 -2 -2 -1 -0 0 -0 1 1 0 1 0 0 1 2 3 4 5 5 5 5 5 5 6 6 6 7 6 6 6 6 6 6 6 6 6 6 6 6 6 5
-3 -3 -2 -2 -2 -2 -1 -0 0 0 0 1 1 1 2 1 2 3 4 4 4 5 5 5 5 5 5 6 6 6 6 6 6 6 6 6 6 6 6 6 5 5 5 5
-3 -2 -2 -2 -2 -2 -1 -1 -0 0 0 0 0 1 2 3 3 3 4 5 5 4 5 5 5 5 5 5 5 5 5 6 6 6 6 6 6 6 6 6 6 5 6 5
-3 -3 -2 -2 -2 -2 -2 -1 -1 -0 -0 -0 0 -1 2 3 3 4 4 4 5 4 5 5 5 5 5 5 5 5 5 6 5 6 6 6 6 6 6 6 6 5 5 5
-3 -3 -2 -2 -2 -2 -1 -1 -1 -1 -0 -1 -0 -0 1 2 3 4 5 4 4 4 5 5 5 5 5 4 4 5 5 5 6 6 6 6 6 6 6 6 6 6 5 5
-3 -3 -3 -2 -2 -2 -2 -2 -1 -1 -1 -3 -0 0 1 2 4 4 4 5 4 4 4 5 4 4 4 4 4 4 5 5 5 6 6 6 5 5 5 5 5 5 5 5
-3 -3 -3 -2 -2 -2 -2 -1 -2 -2 -2 -3 0 0 1 3 3 3 4 4 4 4 4 4 4 4 4 4 4 4 5 5 5 5 5 5 5 5 4 4 4 4 4 5
-2 -3 -3 -3 -2 -2 -2 -2 -1 -3 -3 -3 -0 -0 1 3 3 3 3 4 4 4 4 4 3 3 3 3 4 4 4 4 4 4 4 4 4 4 4 4 4 4 4 4
-2 -3 -3 -2 -3 -2 -2 -2 -2 -2 -2 -4 -1 1 2 2 3 3 4 3 4 4 3 3 3 2 2 3 3 3 3 3 3 3 3 3 3 3 4 4 4 4 4 4
-2 -2 -3 -3 -3 -3 -2 -2 -2 -3 -5 -4 -2 -0 2 3 3 3 3 4 4 3 3 3 2 2 2 2 2 2 2 2 3 3 3 3 3 3 4 4 4 4 4 4
-2 -2 -4 -4 -4 -3 -3 -3 -3 -2 -2 -4 -3 0 3 3 3 2 3 3 3 3 2 2 2 2 2 1 1 2 2 2 2 3 3 3 3 4 4 4 4 4 4 4
-2 -3 -4 -5 -4 -4 -3 -4 -3 -3 -3 -2 -3 -0 2 3 3 2 2 2 2 1 1 1 1 1 1 1 1 1 1 2 2 2 3 3 3 3 3 3 3 3 3 3
-3 -3 -4 -4 -4 -4 -4 -3 -3 -3 -3 -2 -3 0 2 2 3 3 2 1 1 1 0 0 0 0 0 0 1 1 1 1 2 2 2 3 3 3 3 3 3 3 3 3
-3 -3 -2 -2 -2 -2 -3 -3 -3 -4 -3 -2 -1 0 1 2 2 2 2 1 0 -0 -0 -0 -0 0 0 0 0 0 1 1 2 2 2 2 2 2 2 2 2 2 2 2
-3 -3 -3 -2 -2 -2 -2 -3 -3 -3 -3 -3 -1 -1 1 1 1 1 1 1 -1 -1 -0 -0 -0 -0 -0 -0 -0 0 0 1 1 1 1 1 2 2 2 2 2 2 2 2
-3 -3 -3 -3 -3 -3 -3 -2 -2 -2 -2 -2 -1 -1 1 0 0 1 2 0 -0 -1 -1 -1 -0 -0 -1 -0 -0 -0 -0 0 0 0 0 1 1 1 2 2 2 2 2 1
-3 -3 -3 -3 -3 -3 -4 -1 -1 -0 -0 0 -2 2 -0 0 0 1 1 1 0 -1 -1 -1 -1 -1 -1 -0 -0 -0 -0 -0 -0 -0 0 1 1 1 2 2 2 1 1 1
-4 -3 -4 -4 -4 -7 -1 -1 -1 -1 -1 -1 -0 1 0 -0 -1 -1 -0 -0 -0 -1 -1 -1 -1 -1 -1 -0 -0 -0 -0 -0 -0 -0 -0 0 1 1 1 1 1 1 1 1
-4 -4 -4 -4 -5 -3 -1 -1 -1 -1 0 -0 0 0 0 -1 -2 -1 -1 -1 -1 -1 -1 -1 -1 -1 -1 -0 -0 0 -0 -1 -1 -1 -0 -0 0 1 1 1 1 1 0 0
-5 -4 -4 -5 -5 -5 -2 -2 -2 -2 -1 -0 -0 0 0 -1 -1 -1 -1 -1 -2 -1 -1 -2 -2 -1 -1 -1 -0 0 0 -0 -1 -1 -1 -0 0 0 0 0 -0 -1 -0 -1
-5 -5 -5 -5 -5 -4 -3 -2 -3 -3 -1 -1 -1 -1 -0 0 -0 -1 -1 -2 -2 -2 -2 -2 -2 -2 -1 -1 -0 -0 -0 -1 -1 -1 -1 -1 -1 -1 -1 -1 -1 -1 -1 -1
-4 -5 -5 -5 -5 -5 -3 -3 -3 -2 -2 -2 -1 -0 -1 -1 -1 -2 -2 -2 -2 -2 -2 -3 -3 -2 -2 -1 -1 -0 -1 -0 -0 -1 -1 -1 -1 -1 -2 -2 -2 -1 -1 -1
-4 -4 -4 -4 -3 -3 -3 -3 -3 -3 -2 -2 -2 -1 -2 -2 -2 -2 -2 -2 -2 -2 -2 -2 -3 -3 -2 -1 -1 -1 -1 -1 -1 -1 -1 -1 -2 -2 -2 -2 -2 -2 -2 -2
-3 -3 -4 -4 -3 -3 -3 -3 -3 -3 -3 -3 -3 -3 -2 -2 -2 -2 -2 -2 -2 -2 -2 -3 -2 -3 -3 -2 -2 -1 -1 -1 -1 -1 -1 -1 -2 -2 -2 -2 -2 -2 -2 -2
-3 -3 -4 -4 -3 -3 -3 -3 -3 -3 -3 -3 -3 -3 -3 -3 -3 -3 -3 -2 -2 -2 -2 -3 -3 -3 -3 -3 -2 -2 -2 -2 -2 -2 -2 -2 -2 -2 -2 -2 -2 -3 -3 -3
-3 -3 -3 -2 -3 -3 -3 -3 -3 -3 -3 -3 -3 -3 -3 -3 -3 -3 -3 -3 -2 -2 -2 -3 -3 -3 -3 -3 -3 -2 -2 -2 -2 -2 -2 -2 -2 -2 -3 -3 -3 -3 -3 -3

GFSCGP_700_temp_078.txt.gz
Temp
-3 -3 -2 -2 -2 -2 -2 -1 -1 -1 -0 -1 -1 -1 -0 -1 -0 1 1 3 3 3 4 5 5 5 6 6 6 6 6 6 6 6 6 6 6 6 6 6 6 5 5 5
-3 -2 -2 -2 -2 -2 -1 -1 -0 -1 -0 -0 -0 -0 -1 -0 1 1 1 3 3 3 3 4 5 5 5 6 6 6 6 6 6 6 6 6 6 6 6 6 6 5 5 5
-3 -2 -2 -2 -2 -2 -1 -1 -1 -1 -0 -0 -0 -0 1 1 1 1 1 3 3 3 3 4 4 4 5 5 5 5 5 5 6 6 6 6 6 6 6 6 6 5 5 5
-3 -2 -2 -2 -2 -3 -2 -1 -1 -1 -1 -1 -0 -1 1 1 2 2 4 3 3 3 4 4 4 4 4 5 5 5 5 5 5 5 5 5 5 6 6 6 6 5 5 5
-3 -3 -3 -2 -2 -2 -2 -1 -1 -1 -1 -1 -1 -1 1 2 3 3 3 3 3 3 4 4 4 4 4 5 5 5 5 5 5 5 5 5 5 6 6 6 6 5 5 5
-3 -3 -3 -3 -2 -2 -2 -2 -1 -1 -1 -2 -1 -1 0 2 4 4 4 4 4 3 4 4 4 4 4 4 5 5 5 4 5 5 5 5 5 5 5 6 6 6 6 5
-3 -3 -3 -3 -2 -2 -3 -2 -2 -3 -2 -3 0 -1 0 2 3 4 4 4 4 4 3 3 3 3 4 4 4 4 4 4 4 5 5 5 5 5 5 5 5 5 5 5
-3 -3 -3 -3 -3 -2 -2 -2 -2 -3 -4 -4 -0 -2 2 3 3 4 3 3 3 4 4 4 3 3 3 3 3 3 3 4 4 5 5 5 5 4 4 5 5 4 4 4
-3 -3 -3 -3 -3 -2 -3 -3 -2 -2 -3 -5 -0 0 2 3 3 3 4 3 4 4 3 4 3 3 3 3 3 3 3 3 4 4 4 4 4 4 4 4 4 4 4 4
-2 -3 -4 -3 -3 -3 -2 -2 -3 -3 -4 -4 -2 -1 1 3 4 3 3 3 2 3 3 4 4 3 2 2 2 3 3 3 2 2 3 3 3 3 3 3 3 3 4 4
-3 -2 -4 -4 -4 -3 -3 -3 -3 -2 -2 -5 -4 0 2 2 3 3 3 2 2 2 3 3 2 1 1 1 2 2 2 2 2 2 2 2 2 3 3 3 3 4 4 4
-3 -3 -3 -4 -4 -4 -4 -3 -3 -3 -3 -3 -3 -1 2 2 2 3 3 3 2 2 1 1 0 1 1 1 1 1 1 1 1 2 2 2 2 3 3 3 3 3 3 3
-3 -3 -4 -4 -4 -4 -4 -4 -4 -3 -3 -3 -3 -1 1 1 2 2 2 2 2 1 1 0 0 0 0 0 1 0 0 1 1 1 2 2 2 3 3 3 3 3 3 3
-3 -3 -2 -3 -2 -2 -4 -3 -3 -4 -4 -3 -3 -2 -1 1 1 2 2 1 2 1 0 -0 -0 -0 -0 -0 -0 0 0 0 1 1 2 2 2 2 2 2 2 2 2 2
-4 -3 -3 -3 -3 -3 -3 -2 -3 -4 -4 -4 -3 -2 -2 -0 1 1 1 1 1 1 0 -0 -0 -1 -1 -1 -1 -0 -0 0 1 1 1 1 1 1 1 2 2 2 2 2
-3 -4 -3 -3 -3 -3 -3 -3 -3 -3 -3 -4 -4 -2 -0 -0 0 1 0 1 1 1 -0 -1 -1 -1 -1 -1 -1 -0 0 0 0 0 0 0 0 1 1 1 1 1 2 2
-4 -4 -4 -4 -3 -3 -4 -1 -1 -1 -1 -1 -3 1 -0 0 0 1 0 0 0 1 -0 -1 -1 -1 -1 -1 -1 -1 -0 -0 -0 -0 -0 -0 -0 -0 0 1 1 1 1 1
-4 -4 -4 -4 -4 -7 -2 -1 -1 -1 -0 -1 -1 1 0 0 -0 -1 -1 -1 -0 -0 -1 -1 -1 -1 -1 -1 -1 -1 -0 -0 -0 -0 -1 -1 -1 -0 0 1 1 1 1 1
-4 -4 -4 -5 -5 -4 -1 -1 -1 -2 -0 -1 -0 0 -0 -0 -0 -0 -1 -1 -1 -1 -1 -1 -1 -1 -1 -1 -1 -1 -0 -0 -0 -1 -1 -1 -1 -1 -0 0 0 -0 0 0
-5 -5 -4 -5 -5 -6 -2 -2 -2 -2 -1 -2 -1 -1 -0 -0 0 1 -1 -1 -1 -1 -1 -2 -2 -2 -2 -2 -1 -1 -0 -0 -1 -1 -1 -1 -1 -1 -1 -0 -0 -1 -1 -1
-5 -5 -5 -5 -5 -4 -3 -3 -3 -3 -2 -2 -1 -1 -1 0 0 -1 -1 -2 -1 -1 -2 -2 -2 -2 -2 -2 -1 -1 -1 -0 -0 -1 -1 -1 -1 -1 -1 -1 -1 -1 -2 -1
-4 -5 -5 -5 -5 -5 -3 -3 -3 -2 -3 -2 -2 -1 -0 -0 -1 -1 -2 -2 -2 -2 -2 -2 -3 -3 -3 -2 -2 -1 -1 -1 -1 -1 -1 -1 -1 -2 -2 -2 -2 -2 -2 -2
-4 -4 -3 -4 -4 -3 -3 -3 -3 -3 -3 -3 -2 -2 -2 -2 -2 -2 -3 -3 -2 -2 -2 -3 -3 -3 -3 -3 -2 -1 -1 -1 -1 -1 -1 -1 -1 -2 -2 -2 -2 -2 -2 -2
-4 -3 -4 -4 -3 -3 -3 -3 -3 -3 -3 -3 -3 -3 -3 -3 -2 -2 -2 -2 -2 -2 -3 -3 -3 -3 -3 -3 -3 -2 -1 -1 -1 -1 -1 -1 -2 -2 -2 -2 -2 -2 -2 -2
-5 -4 -3 -3 -3 -3 -3 -3 -3 -3 -3 -3 -3 -3 -3 -3 -3 -3 -3 -3 -2 -2 -3 -2 -2 -3 -3 -3 -3 -3 -2 -2 -2 -1 -1 -2 -2 -2 -2 -2 -2 -3 -3 -3
-5 -4 -4 -3 -3 -3 -3 -4 -3 -3 -3 -3 -3 -3 -4 -3 -3 -3 -3 -3 -3 -3 -3 -2 -3 -3 -3 -3 -3 -4 -3 -2 -2 -2 -2 -2 -3 -3 -3 -3 -3 -3 -3 -3

GFSCGP_700_temp_081.txt.gz
Temp
-3 -3 -3 -3 -2 -2 -1 -1 -1 -1 -0 -0 1 1 1 1 3 4 2 2 3 4 4 4 5 5 6 5 6 6 7 6 7 7 6 6 6 6 6 6 6 6 6 5
-3 -4 -3 -3 -3 -2 -2 -1 -1 -1 -1 -1 0 1 1 1 1 1 1 2 3 4 3 3 4 5 5 5 5 6 6 6 6 6 6 6 6 6 6 6 6 6 6 5
-3 -3 -3 -3 -3 -2 -2 -1 -1 -1 -1 -1 -0 -0 -0 -0 1 1 2 2 3 3 3 3 3 4 4 5 5 5 5 5 6 6 6 6 6 6 6 6 6 6 6 6
-4 -3 -3 -3 -3 -2 -2 -2 -1 -1 -1 -1 -1 -0 1 0 1 2 2 3 4 4 3 3 3 3 4 4 4 4 5 5 5 5 5 6 6 6 6 6 6 6 6 6
-3 -3 -3 -3 -2 -2 -2 -2 -1 -1 -1 -1 -1 -1 0 1 1 1 2 2 3 3 3 3 3 3 4 4 4 4 4 5 5 5 5 5 5 5 6 6 6 6 6 6
-3 -3 -3 -3 -3 -3 -2 -2 -2 -2 -1 -2 -1 -1 0 1 2 2 3 3 2 1 3 4 4 4 4 4 4 4 4 4 4 4 4 5 5 5 5 6 6 6 6 6
-3 -3 -3 -3 -3 -3 -3 -2 -3 -3 -3 -3 -1 -1 0 2 3 2 3 3 3 3 4 3 3 3 4 4 4 4 4 4 4 4 4 4 5 5 5 5 5 5 5 5
-3 -4 -3 -3 -3 -2 -2 -2 -2 -3 -3 -3 -1 -2 2 3 3 3 2 3 3 3 3 4 4 3 3 3 3 3 3 3 4 4 4 4 5 5 5 5 5 5 5 4
-3 -3 -3 -3 -3 -3 -2 -3 -2 -3 -4 -4 -1 -1 1 2 3 3 3 4 3 3 3 3 3 3 3 3 3 3 3 3 3 4 4 4 5 5 5 4 4 4 4 4
-3 -3 -4 -3 -3 -3 -3 -2 -3 -3 -4 -3 -3 -1 2 2 2 2 3 4 4 3 3 3 3 3 3 3 2 2 2 2 3 3 3 3 3 4 4 3 3 3 4 4
-3 -3 -4 -4 -4 -3 -3 -3 -3 -2 -2 -3 -3 0 2 2 2 2 2 3 3 3 3 2 3 3 3 1 1 1 1 2 2 2 2 2 3 2 3 3 3 3 3 3
-3 -3 -4 -4 -3 -4 -3 -3 -3 -3 -3 -3 -2 -1 2 2 2 1 2 3 3 3 2 2 2 1 0 0 0 1 1 1 2 1 1 2 2 2 2 2 3 3 3 3
-3 -4 -5 -5 -4 -4 -4 -3 -3 -3 -3 -3 -3 -1 1 1 1 1 1 1 2 2 2 2 1 0 -0 -0 0 0 0 0 0 1 1 1 2 2 2 2 3 3 3 3
-4 -4 -3 -2 -2 -2 -4 -4 -4 -3 -4 -3 -3 -2 0 1 1 2 1 1 1 1 2 1 1 0 0 -0 -0 -0 -0 0 0 0 1 1 1 2 2 2 2 2 2 3
-4 -4 -3 -2 -3 -3 -3 -3 -3 -4 -3 -4 -3 -1 -0 1 0 -0 -0 0 0 0 1 1 0 -0 -0 -1 -1 -1 -1 -1 -0 0 1 0 1 1 1 2 2 2 2 2
-4 -4 -4 -4 -3 -3 -3 -3 -3 -3 -3 -3 -3 -2 1 0 -1 -1 -1 -0 0 -0 -0 0 -0 -1 -1 -1 -1 -1 -1 -1 -1 -0 0 0 0 0 0 1 1 1 2 2
-4 -4 -4 -4 -4 -4 -5 -3 -2 -1 -1 -1 -2 1 -0 0 -0 -0 -1 -0 1 0 -0 -0 -1 -1 -1 -1 -1 -1 -1 -1 -1 -0 -0 0 0 -0 -0 -0 0 1 1 1
-4 -4 -5 -4 -4 -6 -3 -2 -2 -2 -1 -1 -2 0 -0 -0 0 -1 -1 -1 -0 0 -0 -1 -1 -1 -1 -1 -1 -1 -1 -1 -1 -1 -1 -1 -1 -1 -1 -1 -0 0 1 1
-4 -5 -5 -5 -6 -4 -2 -2 -2 -2 -0 -1 -1 -0 -1 -0 -0 2 1 -0 -1 -1 -1 -1 -2 -2 -2 -1 -1 -1 -1 -1 -1 -1 -1 -1 -1 -1 -1 -1 -1 -0 0 0
-5 -5 -5 -5 -5 -6 -3 -3 -3 -3 -1 -2 -2 -1 -1 -1 0 2 -0 0 -0 -1 -1 -1 -2 -2 -2 -2 -2 -2 -2 -1 -1 -1 -1 -1 -1 -2 -2 -1 -1 -1 -1 -1
-5 -5 -5 -5 -5 -4 -3 -2 -2 -3 -2 -2 -2 -2 -1 -1 -1 -0 -0 -0 -0 -1 -1 -1 -2 -2 -2 -2 -2 -2 -2 -1 -1 -1 -1 -1 -1 -2 -2 -2 -2 -1 -1 -1
-3 -5 -5 -5 -5 -5 -3 -3 -3 -3 -3 -3 -3 -2 -2 -1 -1 -1 -1 -1 -2 -2 -1 -2 -2 -2 -3 -3 -3 -2 -2 -1 -1 -1 -1 -1 -2 -2 -3 -3 -2 -2 -2 -2
-5 -4 -4 -3 -3 -3 -3 -3 -3 -3 -3 -3 -3 -3 -3 -2 -2 -2 -2 -2 -2 -2 -2 -2 -2 -3 -3 -3 -3 -3 -2 -2 -1 -1 -2 -2 -2 -2 -2 -2 -2 -3 -3 -3
-5 -5 -5 -4 -3 -3 -3 -3 -3 -3 -3 -3 -4 -4 -4 -3 -3 -3 -3 -3 -3 -3 -3 -2 -3 -3 -3 -3 -3 -3 -3 -2 -2 -2 -1 -1 -2 -2 -2 -3 -3 -3 -3 -3
-6 -5 -5 -4 -3 -3 -3 -3 -4 -4 -3 -3 -3 -3 -4 -4 -3 -3 -3 -3 -3 -3 -3 -3 -3 -3 -3 -3 -4 -4 -3 -3 -2 -2 -2 -1 -2 -2 -2 -3 -3 -3 -3 -3
-5 -5 -5 -5 -4 -4 -4 -4 -4 -4 -3 -3 -4 -4 -4 -4 -4 -4 -4 -3 -3 -3 -3 -3 -3 -3 -3 -3 -3 -3 -3 -3 -3 -2 -2 -2 -2 -2 -2 -3 -3 -3 -3 -3

GFSCGP_700_temp_084.txt.gz
Temp
-3 -3 -3 -2 -2 -1 -0 -0 0 -0 0 0 -0 1 2 3 4 5 5 5 4 4 4 5 5 5 5 5 5 6 6 6 6 6 7 7 7 6 6 6 6 6 6 6
-3 -3 -3 -2 -2 -2 -1 0 0 -0 0 -0 0 0 2 2 4 3 4 5 5 3 4 4 5 5 5 5 5 5 5 5 5 6 6 6 6 6 6 6 6 6 6 6
-3 -3 -3 -2 -2 -2 -1 -0 -0 0 -1 -1 -1 0 0 2 3 3 4 5 4 3 3 4 4 5 5 5 4 5 5 4 5 5 5 6 6 6 6 6 6 6 6 6
-3 -2 -3 -3 -2 -2 -1 -1 -1 -1 -1 1 -1 3 2 2 3 3 2 3 3 4 3 3 4 4 4 4 4 4 4 4 5 5 5 5 6 6 6 6 6 6 6 6
-3 -3 -3 -3 -2 -2 -1 -1 -1 -1 -0 -1 -1 -0 3 2 2 3 2 2 2 3 3 3 3 3 4 4 4 4 4 4 4 5 5 5 5 5 6 6 6 6 6 6
-3 -3 -4 -3 -3 -2 -2 -2 -2 -1 -1 0 1 0 3 2 3 4 3 3 2 3 2 3 3 3 3 3 4 4 4 4 4 4 5 5 5 5 5 5 5 6 6 6
-3 -4 -3 -3 -3 -3 -2 -2 -1 -0 -1 1 -0 -0 2 2 3 3 3 3 2 0 1 1 2 3 3 4 4 4 4 4 5 4 4 4 4 4 5 5 5 5 6 6
-3 -4 -3 -3 -3 -3 -2 -1 0 -1 1 2 -2 0 2 3 3 3 3 3 3 3 2 3 2 2 2 3 3 3 3 3 3 4 4 4 4 4 4 5 5 5 5 5
-3 -3 -3 -3 -3 -3 -3 -3 -2 -2 -2 -1 1 -0 2 3 3 3 2 2 2 2 3 3 2 2 4 4 3 3 3 3 3 3 3 3 4 4 4 5 5 5 5 5
-2 -3 -4 -3 -3 -3 -3 -2 -3 -3 -1 0 1 0 3 2 2 2 2 3 3 3 3 3 3 3 4 4 3 2 3 3 3 3 3 3 3 4 4 4 4 4 4 4
-3 -3 -4 -3 -3 -3 -3 -3 -2 -2 -1 1 2 3 2 2 2 2 2 3 3 4 3 3 3 3 3 3 3 2 2 2 2 2 2 3 3 3 3 3 3 3 3 3
-3 -4 -4 -3 -3 -3 -3 -3 -3 -2 -2 -2 -1 1 2 1 2 1 2 2 2 2 3 3 3 2 2 2 2 2 1 1 1 1 2 2 2 2 2 2 2 3 3 3
-3 -4 -4 -4 -4 -3 -4 -3 -3 -3 -3 -3 -1 1 1 1 1 2 1 2 2 1 2 2 2 3 2 2 1 0 0 0 1 1 1 1 1 1 1 2 2 2 2 3
-4 -3 -3 -1 -1 -2 -4 -4 -4 -3 -3 -2 -2 -1 -0 1 1 1 2 2 2 1 1 2 2 1 1 1 0 -0 0 0 0 0 0 0 1 1 1 1 1 2 2 2
-4 -4 -3 -3 -2 -2 -2 -3 -4 -4 -3 -3 -2 -2 -2 1 1 1 0 0 0 1 0 1 1 1 1 0 0 0 -0 -0 -0 -0 0 0 1 0 1 1 1 1 1 1
-4 -4 -4 -4 -4 -4 -4 -3 -3 -3 -3 -3 -3 -3 -2 -0 -0 0 -0 -0 0 -0 -0 0 0 0 0 -0 -1 -1 -1 -1 -1 -0 -0 0 0 0 0 1 1 1 1 1
-4 -4 -5 -4 -4 -4 -4 -2 -2 -2 -2 -1 -3 0 -1 -1 -1 -1 -1 -2 -1 0 -0 -0 -0 -0 -0 -1 -1 -1 -1 -1 -0 -1 -0 -0 0 0 0 -0 -0 0 -0 -0
-5 -5 -5 -4 -5 -4 -2 -2 -2 -2 -1 -2 -2 -0 -0 -1 -0 0 1 0 0 -0 0 0 0 -1 -1 -1 -1 -1 -1 -1 -1 -1 -1 -1 -0 0 -0 -1 -1 -1 -1 -1
-5 -5 -5 -4 -4 -3 -2 -2 -2 -2 -1 -1 -1 -0 -1 -1 -0 1 1 1 0 -0 -0 0 -0 -1 -2 -2 -2 -1 -1 -1 -1 -1 -1 -1 -0 -0 -1 -1 -1 -1 -1 -1
-5 -5 -5 -5 -4 -3 -2 -2 -3 -3 -2 -2 -1 -1 -2 -1 -0 -0 0 0 1 0 -0 -0 -1 -1 -2 -2 -2 -2 -2 -2 -2 -1 -1 -1 -0 -1 -1 -1 -2 -2 -2 -1
-5 -5 -5 -5 -4 -4 -3 -2 -2 -3 -2 -2 -2 -2 -2 -2 -1 -0 -0 0 1 1 0 -0 -1 -1 -2 -2 -2 -2 -2 -2 -2 -1 -1 -1 -1 -1 -2 -2 -2 -3 -2 -2
-5 -5 -5 -5 -5 -4 -3 -3 -3 -3 -3 -3 -3 -3 -2 -2 -1 -1 -1 -0 0 -1 -1 -1 -1 -2 -2 -2 -2 -2 -2 -2 -2 -1 -1 -1 -2 -2 -2 -2 -3 -3 -3 -2
-5 -5 -5 -4 -4 -3 -3 -3 -3 -3 -3 -3 -3 -3 -3 -3 -2 -2 -2 -2 -1 -1 -1 -2 -2 -2 -2 -2 -2 -3 -3 -3 -2 -2 -2 -1 -2 -2 -2 -2 -3 -3 -3 -3
-6 -5 -5 -4 -3 -3 -3 -3 -3 -3 -4 -3 -3 -4 -4 -4 -3 -3 -3 -2 -2 -2 -2 -2 -2 -2 -2 -3 -3 -3 -3 -3 -3 -2 -2 -2 -2 -2 -2 -2 -3 -3 -3 -3
-6 -6 -5 -5 -4 -4 -4 -4 -4 -4 -4 -4 -3 -3 -3 -4 -4 -3 -3 -3 -3 -3 -3 -2 -3 -3 -3 -3 -3 -3 -4 -4 -3 -3 -2 -2 -2 -2 -2 -3 -3 -3 -3 -3
-5 -5 -6 -6 -5 -5 -4 -4 -4 -4 -4 -4 -3 -4 -4 -4 -4 -4 -4 -4 -3 -3 -3 -3 -3 -3 -3 -3 -3 -3 -3 -3 -3 -3 -3 -3 -2 -2 -2 -2 -3 -3 -3 -3

GFSCGP_700_temp_087.txt.gz
Temp
-3 -3 -2 -1 -0 0 2 2 4 3 1 1 1 2 2 2 3 3 4 3 4 4 4 5 6 6 6 6 6 6 6 6 6 6 6 6 6 6 6 6 6 6 6 6
-3 -2 -2 -1 -0 -0 1 2 3 1 0 0 2 2 2 2 2 2 3 3 3 5 4 5 5 6 6 5 5 5 5 5 5 6 6 6 6 6 6 6 6 6 6 6
-3 -3 -2 -2 -1 -0 1 2 1 2 0 0 1 2 2 2 2 2 4 4 5 5 4 4 5 5 5 5 5 5 5 5 5 5 5 5 5 5 5 5 6 6 6 6
-2 -2 -2 -2 -1 -0 1 1 1 1 1 2 1 4 5 4 3 2 3 4 4 5 4 3 5 6 5 5 5 5 5 5 5 5 5 5 4 4 4 5 5 5 6 6
-3 -3 -3 -2 -1 -1 0 -0 -0 -0 1 1 1 1 4 4 3 3 3 4 4 5 5 3 3 5 5 5 4 5 4 4 4 4 4 4 3 4 4 4 5 5 5 5
-3 -2 -3 -2 -2 -1 -2 -1 -1 -1 -0 -1 2 2 3 4 4 3 3 3 3 3 3 1 2 3 4 4 4 4 4 4 4 4 4 4 4 4 4 4 4 5 5 5
-3 -3 -3 -2 -2 -2 -2 -0 -0 -0 -1 1 2 3 3 4 3 3 3 3 2 2 2 2 2 3 3 4 3 4 3 3 3 4 4 4 4 4 4 4 4 5 5 5
-3 -4 -3 -2 -2 -2 -2 -0 1 1 3 4 0 2 2 3 3 3 2 2 3 3 3 3 2 2 2 3 3 3 2 2 3 3 3 3 3 4 4 4 4 4 5 5
-3 -3 -3 -2 -3 -2 -2 -1 -0 -1 -0 1 2 2 2 3 2 3 3 3 3 3 3 3 3 1 2 3 3 2 2 2 3 2 2 3 3 4 3 3 4 4 5 5
-3 -3 -3 -3 -2 -2 -2 -2 -2 -2 -0 1 4 3 4 3 3 2 2 3 3 3 3 3 3 2 1 1 1 2 2 2 2 3 3 3 3 3 3 3 3 4 4 5
-3 -3 -4 -3 -3 -3 -3 -3 -2 -2 0 2 4 4 3 2 2 2 2 3 3 3 3 3 2 2 1 1 1 1 0 1 2 2 3 2 2 3 3 3 3 4 4 4
-3 -3 -3 -3 -3 -3 -3 -3 -2 -1 -0 -0 0 1 2 2 2 2 2 2 3 3 3 3 3 3 2 2 2 2 3 2 2 2 2 2 2 2 2 2 2 3 3 3
-4 -4 -3 -3 -4 -3 -3 -3 -3 -2 -1 -3 -0 2 1 2 1 1 1 2 2 2 2 2 2 2 2 2 2 2 2 2 1 1 1 1 1 1 2 2 2 2 2 2
-4 -3 -3 -1 -2 -2 -3 -3 -3 -3 -3 -1 -1 -0 1 1 1 1 1 1 1 2 2 2 2 2 2 2 2 2 1 1 1 0 1 1 1 1 1 1 1 1 1 2
-4 -4 -4 -3 -4 -3 -2 -2 -3 -3 -3 -2 -1 -1 -0 -0 -0 -0 0 -0 1 1 2 2 1 2 1 1 1 1 1 1 0 0 1 1 1 1 1 1 1 1 1 1
-4 -4 -3 -3 -3 -4 -3 -2 -3 -3 -3 -3 -3 -2 -2 -0 -1 -1 -1 -1 -2 -1 0 1 1 1 1 1 1 0 -0 0 0 -0 -0 -0 -0 0 0 1 1 1 1 1
-5 -4 -4 -4 -4 -4 -4 -2 -2 -2 -3 -3 -3 -2 -2 -1 -1 -0 -0 -0 0 1 0 0 0 0 0 0 -0 -0 -0 -0 -0 -1 -1 -1 -0 -0 -0 0 -0 0 1 0
-6 -5 -4 -4 -4 -3 -1 -1 -1 -2 -2 -2 -3 -1 -0 -2 -1 -1 1 1 1 0 -0 -0 -0 -0 -0 -0 -1 -1 -1 -1 -1 -1 -1 -1 -1 -0 -0 -0 0 -0 -0 -0
-5 -5 -4 -4 -3 -1 -2 -2 -1 -2 -1 -1 -1 -1 -1 -1 -1 1 -0 -0 0 0 -0 -1 -0 0 0 -0 -1 -1 -1 -1 -1 -1 -1 -1 -1 -1 -1 -0 -0 -0 -1 -1
-6 -5 -5 -4 -4 -2 -2 -2 -2 -2 -2 -1 -1 -1 -1 -1 -1 -2 -1 -1 0 0 -0 -0 -0 0 0 -0 -1 -1 -1 -1 -1 -1 -1 -1 -1 -1 -1 -0 -1 -1 -1 -1
-6 -6 -5 -5 -3 -3 -2 -2 -2 -3 -1 -2 -2 -2 -2 -2 -2 -1 -1 0 -0 0 0 0 -0 0 -1 -1 -1 -1 -1 -2 -2 -1 -1 -1 -1 -1 -1 -1 -1 -1 -2 -2
-5 -5 -5 -5 -5 -3 -3 -3 -4 -3 -3 -3 -3 -3 -3 -3 -2 -1 -1 -0 -0 -0 0 -1 -1 -1 -1 -1 -2 -2 -2 -2 -2 -2 -2 -2 -1 -1 -1 -1 -1 -2 -2 -2
-5 -5 -4 -4 -4 -3 -3 -3 -3 -3 -4 -4 -4 -4 -4 -3 -3 -2 -2 -2 -2 -1 -1 -1 -1 -1 -2 -2 -2 -2 -2 -2 -3 -3 -2 -2 -2 -2 -1 -1 -2 -2 -2 -3
-6 -5 -5 -5 -4 -4 -3 -4 -4 -4 -4 -4 -4 -4 -4 -4 -4 -3 -3 -3 -3 -3 -2 -2 -2 -2 -2 -2 -2 -2 -3 -3 -3 -3 -3 -2 -2 -2 -2 -2 -2 -2 -3 -3
-7 -7 -6 -5 -5 -4 -4 -4 -4 -4 -4 -4 -4 -4 -4 -4 -4 -4 -3 -3 -3 -3 -3 -3 -3 -3 -3 -3 -3 -3 -3 -3 -3 -4 -3 -3 -2 -2 -2 -2 -2 -3 -3 -3
-6 -7 -8 -7 -6 -5 -5 -4 -4 -4 -4 -4 -4 -4 -4 -4 -4 -4 -4 -4 -3 -3 -3 -3 -3 -3 -3 -3 -3 -3 -3 -3 -4 -4 -3 -3 -3 -3 -2 -2 -2 -3 -3 -3

GFSCGP_700_temp_090.txt.gz
Temp
-3 -2 -1 -1 -1 1 1 1 3 2 2 1 1 1 2 3 3 3 3 4 4 4 4 6 6 6 6 6 7 7 7 7 7 7 7 7 7 7 7 7 7 6 6 6
-3 -3 -2 -1 -0 0 1 1 2 1 1 1 1 1 2 2 3 3 3 4 4 4 4 4 6 6 6 6 6 6 6 6 7 7 7 6 6 5 5 5 6 6 5 6
-3 -2 -2 -1 -0 -0 1 1 2 1 0 1 1 1 2 3 2 3 3 3 4 3 4 4 4 5 6 6 6 6 6 6 6 6 6 6 5 4 4 4 5 5 5 5
-3 -3 -2 -1 -1 -0 0 1 0 1 1 1 1 1 3 4 3 3 3 3 5 4 5 4 4 4 6 6 6 6 6 6 6 6 6 5 5 4 3 4 4 3 3 5
-3 -2 -2 -2 -1 -1 0 1 1 1 0 1 1 1 3 4 4 3 3 3 4 4 5 5 4 4 4 6 6 5 6 5 5 5 5 5 5 4 4 4 4 2 3 4
-3 -3 -2 -2 -2 -1 -1 -0 -0 -0 -0 -1 1 2 2 4 4 4 4 3 3 4 5 5 4 4 3 5 6 6 6 5 5 4 5 5 4 4 4 4 3 3 4 4
-3 -2 -2 -1 -2 -2 -1 -1 -1 -2 -1 -3 2 1 2 4 4 4 3 3 3 3 3 4 3 4 4 4 4 3 4 4 4 4 4 5 4 4 4 4 4 4 4 4
-3 -3 -2 -2 -2 -2 -1 -1 0 -1 -1 -0 2 1 2 3 4 3 3 3 3 3 2 2 3 3 4 3 2 2 3 3 3 3 3 3 4 3 3 3 4 4 4 4
-3 -3 -2 -2 -2 -2 -2 -1 -0 -2 0 0 1 2 3 3 3 3 3 3 3 3 2 2 1 2 2 2 2 2 2 2 3 3 3 3 3 3 3 3 3 3 3 4
-3 -3 -3 -3 -3 -3 -2 -1 -1 -2 -4 -0 2 3 3 3 3 2 2 2 2 3 2 2 3 2 2 2 2 1 0 1 1 2 1 2 2 2 1 2 3 3 3 3
-3 -3 -3 -3 -3 -3 -3 -2 -2 -1 -0 -3 -1 2 2 3 3 2 1 2 2 3 3 2 3 3 2 2 3 2 0 0 0 1 0 -0 0 1 2 3 3 3 3 3
-3 -3 -3 -2 -2 -3 -3 -3 -3 -2 -1 -0 0 0 2 2 2 2 2 2 2 2 2 2 2 2 2 2 2 2 -0 0 -0 -0 1 0 -1 -0 2 2 2 2 2 2
-4 -4 -4 -3 -3 -3 -3 -2 -3 -3 -2 -2 -2 -0 1 1 1 1 1 1 1 2 2 2 2 2 2 2 2 2 1 0 0 1 1 1 -0 -0 1 2 2 3 2 2
-4 -4 -3 -2 -1 -2 -3 -2 -2 -3 -3 -2 -1 0 1 1 1 1 1 1 0 1 2 2 2 2 2 2 1 1 1 1 1 1 1 0 0 1 1 1 1 1 1 1
-5 -4 -4 -3 -2 -3 -3 -3 -3 -3 -2 -2 -1 -1 0 1 1 1 -1 -0 -0 -0 0 2 2 2 2 2 2 2 2 1 1 1 0 -0 -0 0 0 1 1 1 1 1
-5 -5 -4 -4 -3 -3 -4 -3 -3 -2 -2 -2 -2 -1 -0 0 0 0 -0 -1 -1 -1 -1 0 1 2 2 1 2 2 1 1 0 -0 -0 -0 -0 -0 -0 -0 0 0 0 0
-6 -6 -5 -4 -4 -4 -4 -2 -2 -2 -2 -2 -3 0 -0 -1 -1 -1 -1 -2 -0 0 0 1 1 2 1 1 1 1 0 0 -0 -0 -0 -0 -1 -1 -0 -0 -0 0 0 0
-7 -6 -7 -4 -4 -4 -2 -1 -1 -2 -1 -1 -2 -2 -1 -2 -2 -2 -1 -0 -0 0 1 1 1 1 -0 -0 0 0 0 -0 -0 -0 -1 -1 -1 -1 -0 -1 -0 -0 -0 0
-6 -6 -6 -4 -4 -3 -2 -1 -1 -2 -1 -2 -2 -1 -2 -3 -3 -1 -1 -0 -0 0 1 1 0 -0 -0 -1 -0 0 -0 -0 -1 -1 -1 -1 -1 -1 -1 -1 -1 -0 -0 -0
-8 -6 -7 -5 -4 -3 -2 -1 -2 -2 -2 -1 -2 -2 -2 -2 -2 -2 -2 -1 -1 -0 -0 0 1 0 -0 -0 -0 -0 -1 -1 -1 -2 -2 -1 -1 -1 -1 -1 -1 -0 -0 -0
-7 -7 -6 -6 -5 -3 -2 -2 -2 -2 -2 -2 -2 -2 -2 -2 -2 -2 -2 -1 -1 -0 -0 -0 0 -0 -1 -0 -0 -1 -1 -2 -2 -2 -2 -2 -2 -1 -1 -1 -1 -1 -1 -1
-6 -6 -5 -6 -5 -4 -3 -3 -3 -3 -3 -3 -3 -3 -3 -3 -3 -2 -2 -1 -1 -1 -1 -0 -0 -1 -1 -1 -1 -2 -2 -2 -2 -2 -2 -2 -2 -2 -2 -2 -1 -1 -2 -2
-6 -5 -5 -5 -4 -4 -4 -4 -3 -4 -4 -4 -4 -4 -4 -4 -4 -3 -3 -2 -2 -2 -2 -1 -1 -2 -2 -2 -2 -2 -2 -2 -2 -2 -2 -3 -3 -2 -2 -2 -2 -2 -2 -2
-6 -6 -6 -5 -5 -5 -4 -4 -4 -4 -4 -4 -4 -4 -4 -4 -4 -4 -4 -3 -3 -3 -3 -2 -2 -2 -2 -2 -2 -2 -2 -3 -3 -3 -3 -3 -3 -3 -3 -2 -2 -2 -2 -2
-6 -6 -6 -6 -5 -5 -5 -5 -4 -4 -4 -4 -4 -4 -4 -4 -4 -4 -4 -4 -4 -3 -3 -3 -3 -3 -3 -3 -3 -3 -3 -3 -3 -3 -3 -3 -4 -3 -3 -3 -2 -2 -2 -2
-6 -7 -7 -8 -8 -7 -6 -5 -5 -4 -4 -4 -4 -4 -4 -4 -4 -4 -4 -4 -4 -4 -4 -4 -4 -3 -3 -3 -3 -3 -3 -3 -3 -3 -3 -3 -3 -3 -3 -3 -3 -2 -2 -2

GFSCGP_700_temp_093.txt.gz
Temp
-2 -2 -1 -1 0 1 1 -0 0 1 -1 -0 -1 0 2 3 3 3 3 3 3 5 6 6 6 6 7 7 6 7 7 6 7 8 8 8 8 7 7 7 7 7 7 7
-2 -1 -2 -1 0 0 0 1 1 1 1 0 1 1 2 3 2 2 3 3 3 4 4 6 6 5 5 6 7 7 6 6 6 7 7 7 7 7 6 6 6 5 5 5
-2 -2 -2 -1 -1 -1 0 1 1 1 1 -0 -1 1 1 2 2 2 2 3 3 4 4 5 5 6 6 6 6 6 6 6 6 6 6 6 6 6 6 5 5 4 4 3
-2 -2 -2 -1 -1 -0 -0 0 1 1 1 0 0 -0 2 3 4 3 3 3 4 4 4 4 4 6 6 6 6 5 6 6 6 6 6 6 5 5 5 5 4 4 4 4
-3 -2 -2 -2 -1 -1 -1 -0 0 0 -0 1 1 1 2 3 3 3 3 3 3 4 3 4 4 5 6 6 6 6 6 6 6 5 6 5 5 5 5 4 4 4 4 3
-3 -3 -2 -2 -1 -1 -1 -1 -0 -1 -1 -2 1 1 2 3 4 4 4 4 3 4 4 4 4 4 4 5 5 5 5 5 5 5 5 5 5 4 4 4 4 4 4 3
-2 -3 -2 -2 -1 -2 -1 -1 -2 -3 -4 -4 2 1 2 4 3 3 4 4 3 3 3 4 4 4 4 4 4 5 4 4 5 4 4 5 5 5 4 3 3 4 3 3
-3 -2 -2 -1 -1 -1 -1 -1 -1 -2 -4 -2 2 1 2 3 3 3 3 3 3 3 3 2 4 4 4 4 3 3 4 4 4 4 4 4 4 3 3 1 3 3 3 3
-3 -3 -2 -1 -1 -2 -2 -1 -1 -1 -1 -2 1 1 2 3 3 3 3 3 3 3 3 3 2 3 2 2 3 2 2 3 3 3 3 3 3 3 2 2 2 2 2 2
-3 -3 -2 -2 -2 -2 -2 -1 -1 -2 -2 -2 -0 2 3 3 3 3 3 3 3 3 3 2 2 2 2 3 3 2 1 2 2 2 2 2 2 2 2 2 2 1 1 1
-4 -4 -3 -3 -3 -2 -3 -2 -2 -1 -1 -4 -2 1 2 3 3 3 2 2 2 2 3 3 2 2 2 2 2 2 1 1 1 2 2 1 1 1 1 1 0 0 1 1
-4 -3 -4 -3 -3 -3 -3 -2 -2 -2 -2 -1 -0 1 1 2 2 2 2 2 2 2 3 3 2 2 2 2 2 2 1 1 1 1 1 0 -1 -1 -1 -0 1 -0 -1 -0
-4 -4 -4 -4 -4 -4 -3 -3 -2 -2 -2 -1 -2 -0 1 1 1 1 1 1 1 1 1 1 2 2 2 2 2 1 1 1 1 1 -0 -0 -1 -1 -1 -0 -1 -1 -0 -0
-5 -5 -4 -4 -3 -3 -3 -3 -3 -3 -3 -2 -1 0 1 1 1 1 0 -0 0 1 1 1 1 1 2 2 2 2 2 1 1 1 0 0 0 -1 -1 -1 -0 -0 -0 0
-5 -5 -4 -4 -4 -4 -3 -3 -3 -3 -3 -3 -1 -1 0 1 1 0 -1 -0 -0 -1 -1 0 1 1 1 1 2 2 2 1 1 1 0 0 0 -0 -1 -1 -0 -0 -0 0
-7 -5 -6 -5 -4 -4 -4 -3 -4 -3 -3 -3 -2 -1 -0 0 1 1 1 -1 -1 -1 -1 -1 0 1 1 1 1 2 2 2 1 1 1 0 -1 -1 -1 -1 -1 -1 -0 -0
-7 -6 -6 -5 -3 -4 -4 -3 -2 -3 -2 -2 -3 0 -0 -1 -0 -1 -1 -1 -1 -0 -1 -1 -0 0 1 1 2 1 1 1 1 1 0 -0 -1 -1 -1 -1 -1 -1 -1 -1
-8 -6 -6 -5 -4 -5 -2 -1 -1 -1 -1 -2 -2 -1 -1 -1 -1 -2 -2 -1 -1 -1 -0 -0 -0 0 1 1 1 0 0 1 1 0 -0 -1 -1 -1 -1 -1 -1 -1 -1 -1
-8 -7 -6 -5 -5 -4 -2 -2 -2 -1 -1 -2 -2 -2 -1 -2 -3 -2 -2 -2 -1 -1 -1 -0 0 0 1 1 0 -1 -0 -0 -0 -1 -1 -1 -2 -2 -1 -1 -1 -1 -1 -1
-8 -8 -7 -5 -5 -4 -2 -2 -2 -2 -2 -2 -2 -2 -2 -2 -2 -2 -2 -2 -2 -1 -1 -0 0 0 0 0 -0 -1 -1 -1 -1 -1 -2 -2 -2 -2 -2 -2 -2 -1 -1 -1
-7 -7 -8 -7 -6 -4 -3 -3 -3 -2 -3 -3 -3 -3 -3 -3 -3 -2 -2 -2 -1 -1 -1 -0 -0 0 0 -0 -1 -1 -1 -1 -2 -2 -2 -2 -2 -2 -2 -2 -2 -2 -2 -1
-6 -6 -6 -7 -6 -5 -4 -4 -4 -4 -3 -3 -3 -3 -3 -3 -3 -3 -3 -2 -2 -1 -1 -1 -0 -1 -1 -1 -1 -1 -1 -2 -2 -2 -2 -2 -2 -3 -3 -3 -3 -2 -2 -2
-6 -6 -6 -5 -5 -5 -5 -5 -5 -4 -4 -4 -4 -4 -4 -4 -4 -4 -4 -3 -3 -2 -2 -1 -1 -1 -1 -2 -2 -2 -2 -2 -3 -3 -3 -3 -3 -3 -3 -3 -3 -3 -2 -2
-6 -6 -6 -5 -5 -5 -5 -5 -5 -5 -4 -4 -4 -4 -4 -4 -4 -4 -4 -4 -4 -3 -3 -3 -3 -2 -2 -2 -2 -2 -3 -3 -3 -3 -3 -3 -3 -3 -3 -4 -3 -3 -3 -2
-6 -6 -6 -6 -5 -5 -6 -6 -5 -5 -4 -4 -4 -4 -4 -4 -4 -4 -4 -4 -4 -4 -4 -3 -3 -3 -3 -3 -3 -3 -3 -3 -3 -3 -3 -3 -3 -3 -3 -3 -3 -3 -3 -2
-6 -6 -7 -7 -7 -7 -6 -7 -6 -5 -5 -4 -4 -5 -4 -4 -4 -4 -5 -4 -4 -4 -4 -4 -4 -4 -4 -4 -4 -4 -4 -4 -3 -4 -3 -4 -4 -4 -4 -3 -3 -3 -3 -3

GFSCGP_700_temp_096.txt.gz
Temp
-2 -1 -1 -1 -0 -0 1 1 0 -0 -1 -0 1 0 0 0 1 3 2 3 4 4 5 5 5 6 6 6 6 7 7 7 7 7 7 7 8 7 7 7 7 7 7 7
-2 -2 -1 -1 -0 -0 -0 0 1 1 1 1 1 1 1 1 2 4 3 4 4 5 5 5 5 5 6 6 6 7 6 6 6 6 6 6 6 6 6 6 7 7 6 6
-2 -2 -2 -1 -1 -1 -0 -0 0 1 2 0 1 1 0 0 1 2 3 3 4 4 4 5 5 5 5 5 5 6 6 6 6 6 6 6 6 6 7 7 7 6 5 5
-2 -2 -2 -1 -1 -1 -0 0 0 1 1 -0 0 -0 3 1 1 2 3 3 3 3 4 4 5 6 6 6 5 5 5 6 6 6 6 6 6 6 6 6 5 5 4 4
-3 -2 -2 -1 -1 -1 -1 -0 1 0 1 0 -0 -0 2 3 3 3 3 3 3 4 4 4 5 5 5 6 6 6 6 6 6 6 6 6 5 5 5 5 5 5 5 4
-3 -2 -2 -2 -1 -1 -1 -0 -1 -1 -1 -1 1 -0 2 3 4 4 3 4 5 4 4 4 4 4 4 5 5 5 5 6 6 6 6 5 5 5 5 5 5 5 4 4
-3 -2 -2 -2 -2 -2 -2 -2 -2 -2 -2 -2 0 0 2 3 3 4 3 4 4 4 4 4 3 3 3 4 4 4 5 5 5 5 5 5 4 4 4 4 4 4 4 3
-4 -3 -2 -2 -2 -1 -2 -1 -2 -2 -3 -2 0 -1 2 3 3 3 3 4 4 4 3 3 2 3 3 3 3 4 4 4 4 4 4 4 4 4 4 4 4 3 3 3
-4 -3 -2 -1 -2 -2 -2 -2 -2 -1 -2 -3 0 1 2 3 4 3 3 3 3 3 3 3 3 2 2 2 3 3 3 3 4 3 3 3 3 3 3 3 3 3 2 2
-4 -4 -2 -2 -2 -2 -2 -1 -2 -3 -3 -2 -1 0 2 2 3 3 2 3 3 3 3 3 3 3 2 2 2 2 2 2 3 2 2 2 2 2 2 2 2 2 1 1
-4 -4 -3 -3 -3 -2 -3 -2 -2 -2 -1 -3 -2 0 2 3 3 3 3 3 3 3 3 3 3 3 2 2 2 2 1 1 1 1 1 1 2 2 2 2 1 1 0 -0
-4 -4 -4 -3 -3 -2 -3 -2 -2 -2 -3 -1 -1 0 2 3 3 2 2 2 2 2 2 2 2 3 2 2 2 2 2 1 1 0 1 1 1 1 1 0 1 -0 -1 -1
-4 -5 -4 -4 -4 -4 -3 -3 -2 -2 -2 -1 -2 -0 1 1 1 1 1 1 1 1 1 2 2 2 2 2 2 2 2 1 1 0 0 1 1 1 0 -0 -1 -1 -1 -1
-5 -5 -5 -5 -5 -4 -4 -3 -3 -3 -3 -2 -1 -0 1 0 0 1 1 1 1 1 1 1 1 1 1 1 1 2 2 2 2 1 0 0 0 0 -1 -1 -1 -1 -1 -1
-6 -6 -6 -4 -4 -5 -4 -3 -3 -3 -3 -3 -2 -1 0 -0 0 0 0 0 -0 0 0 1 1 1 1 1 1 1 2 2 2 1 1 0 -0 -0 -1 -1 -0 0 -1 -2
-8 -8 -6 -5 -4 -4 -4 -3 -4 -3 -3 -3 -2 -1 -1 -1 -1 -1 -0 -0 -1 -1 -1 -1 -0 1 1 1 1 1 1 1 2 2 1 1 0 -0 -1 -1 -1 -2 -2 -1
-8 -7 -6 -4 -4 -4 -5 -3 -3 -3 -2 -2 -3 -1 -2 -2 -3 -2 -1 -1 -1 -1 -1 -1 -0 0 0 1 1 1 1 1 1 1 1 0 -0 -1 -1 -1 -1 -1 -1 -1
-8 -7 -7 -5 -5 -5 -3 -3 -2 -2 -2 -3 -3 -2 -2 -1 -1 -2 -2 -1 -1 -1 -2 -1 -0 0 0 0 0 0 1 1 1 1 1 -0 -1 -1 -1 -1 -2 -2 -2 -2
-8 -8 -7 -6 -5 -4 -3 -3 -2 -2 -2 -2 -2 -2 -2 -2 -2 -3 -3 -2 -2 -2 -1 -0 -0 0 0 1 0 -0 0 -0 -0 -0 -0 -1 -1 -1 -2 -2 -2 -2 -2 -1
-8 -9 -8 -7 -6 -4 -3 -3 -3 -2 -3 -3 -2 -2 -2 -3 -3 -2 -2 -2 -2 -2 -1 -0 -0 0 0 0 0 -0 -1 -1 -1 -1 -1 -2 -2 -2 -2 -2 -2 -2 -2 -1
-7 -8 -8 -7 -7 -4 -4 -4 -3 -3 -4 -4 -3 -2 -2 -3 -3 -3 -3 -3 -2 -2 -2 -1 -0 -0 -0 -0 -0 -1 -1 -2 -2 -2 -2 -2 -2 -2 -2 -2 -2 -2 -2 -2
-6 -6 -7 -7 -7 -6 -4 -4 -4 -5 -5 -4 -4 -3 -3 -3 -3 -3 -2 -2 -2 -2 -1 -1 -0 -1 -1 -1 -1 -1 -2 -2 -2 -2 -2 -3 -3 -3 -3 -2 -2 -3 -3 -3
-6 -6 -6 -6 -6 -5 -5 -5 -5 -5 -4 -5 -4 -4 -4 -4 -4 -4 -4 -4 -3 -3 -2 -2 -1 -1 -1 -2 -2 -2 -2 -2 -2 -2 -3 -3 -4 -3 -3 -3 -3 -3 -3 -3
-6 -6 -6 -6 -6 -5 -5 -6 -5 -5 -5 -5 -4 -4 -4 -4 -4 -4 -4 -4 -4 -4 -3 -3 -2 -2 -2 -2 -2 -3 -2 -3 -3 -3 -3 -3 -3 -3 -3 -3 -3 -3 -3 -3
-5 -6 -6 -6 -6 -6 -6 -6 -6 -6 -5 -5 -5 -4 -4 -4 -4 -4 -4 -4 -4 -4 -4 -4 -3 -3 -3 -3 -3 -3 -3 -3 -3 -3 -3 -3 -3 -4 -4 -4 -3 -3 -3 -3
-5 -6 -6 -7 -7 -7 -8 -8 -8 -8 -6 -5 -5 -5 -5 -5 -5 -5 -5 -5 -4 -4 -4 -4 -4 -4 -4 -4 -4 -4 -4 -4 -4 -4 -4 -4 -4 -4 -4 -4 -4 -4 -4 -4

GFSCGP_700_temp_099.txt.gz
Temp
-1 -2 -2 -1 -1 -0 -0 1 -0 -1 1 -1 -1 0 0 2 3 3 4 5 4 4 4 5 6 6 6 6 6 6 6 6 6 7 7 7 8 8 8 8 7 8 8 7
-2 -2 -2 -1 -1 -0 -0 -0 0 -0 0 -1 1 0 -0 1 2 3 3 5 5 4 4 4 4 5 5 6 6 6 6 6 6 7 7 7 7 7 7 6 6 7 7 7
-2 -2 -2 -1 -1 -1 -1 -1 0 0 0 -1 1 1 2 2 2 3 3 4 5 5 5 4 5 5 5 5 6 6 6 6 6 6 6 6 6 6 6 6 7 7 6 6
-2 -1 -2 -1 -1 -1 -1 -1 -0 -0 -0 -1 -0 1 3 3 3 3 4 4 4 5 5 5 5 5 5 5 5 6 6 6 6 6 6 6 6 6 6 6 5 6 6 6
-2 -2 -1 -1 -1 -1 -1 -0 -0 -0 -0 -0 -1 1 3 3 4 5 5 4 5 5 5 6 6 5 5 5 5 5 5 6 5 5 5 5 6 6 5 5 5 5 5 5
-3 -2 -2 -2 -2 -1 -1 -1 -0 -0 -1 -2 0 -0 1 4 5 4 4 3 4 5 5 5 5 4 4 4 5 5 5 5 5 5 5 5 5 5 5 5 5 5 5 4
-3 -2 -2 -1 -2 -2 -2 -1 -2 -2 -2 -3 -0 -1 3 3 3 4 3 3 4 5 5 4 4 4 4 4 4 4 5 5 5 5 5 5 5 5 5 5 4 5 4 4
-3 -2 -2 -2 -1 -2 -2 -1 -2 -3 -3 -3 -2 -1 1 3 3 3 3 3 4 4 5 4 4 3 4 3 3 3 3 4 4 4 4 4 4 4 4 4 4 4 4 4
-4 -3 -3 -2 -2 -2 -2 -2 -2 -3 -3 -3 -1 0 1 2 3 3 3 3 4 4 4 4 3 3 3 2 3 3 3 3 3 3 3 3 4 4 4 4 4 4 3 3
-4 -4 -3 -3 -3 -3 -3 -2 -3 -3 -3 -3 -2 -1 2 3 3 3 4 3 3 4 4 4 3 3 2 2 2 2 2 3 3 3 3 3 3 2 2 3 3 3 2 2
-4 -5 -4 -3 -3 -3 -3 -3 -2 -3 -2 -5 -3 -0 2 2 2 2 2 3 3 3 3 3 3 3 3 2 2 2 2 2 3 2 2 2 2 2 2 2 2 2 2 2
-4 -5 -5 -4 -3 -3 -4 -3 -2 -2 -3 -2 -2 -1 1 2 2 2 2 2 2 2 2 2 3 3 3 3 2 2 2 2 2 2 2 2 1 1 1 1 1 1 1 1
-5 -5 -5 -4 -4 -4 -4 -4 -4 -3 -2 -2 -3 -1 1 1 2 2 2 1 1 1 1 2 1 2 2 2 1 1 1 1 1 2 2 2 1 1 1 1 1 0 -1 -0
-6 -6 -6 -6 -5 -6 -5 -4 -4 -4 -3 -3 -2 -1 0 1 1 1 1 1 1 1 1 1 1 1 1 1 1 1 1 1 2 2 1 1 0 0 0 0 0 -0 -0 -0
-6 -7 -7 -6 -5 -6 -5 -4 -4 -3 -3 -3 -2 -2 -1 -0 0 0 -0 0 0 0 0 0 0 1 1 1 1 1 1 1 1 1 1 1 0 -0 -0 -0 -0 -1 -1 -1
-7 -8 -8 -7 -5 -5 -4 -4 -4 -4 -3 -4 -3 -2 -2 -1 -1 -0 -1 -1 -1 -1 -1 -0 0 0 0 0 1 1 1 1 1 1 1 1 1 0 0 -0 -0 -1 -1 -1
-8 -8 -8 -7 -6 -4 -4 -3 -3 -3 -3 -3 -3 -2 -2 -3 -2 -1 -1 -2 -2 -1 -1 -1 -0 0 1 0 1 1 1 1 1 1 1 2 1 1 0 -1 -1 -1 -2 -1
-8 -8 -8 -6 -6 -6 -4 -4 -4 -3 -3 -3 -3 -2 -3 -3 -3 -3 -3 -3 -3 -2 -2 -1 -1 -0 0 0 0 0 0 0 1 1 1 1 1 1 0 -0 -1 -2 -2 -2
-8 -8 -7 -8 -7 -4 -4 -4 -4 -4 -4 -4 -3 -3 -3 -3 -4 -3 -3 -3 -3 -2 -2 -1 -1 -0 0 0 0 0 0 0 0 1 0 0 0 -0 -1 -1 -2 -2 -2 -2
-7 -8 -8 -8 -8 -6 -4 -4 -4 -3 -4 -4 -3 -3 -2 -3 -3 -3 -2 -2 -2 -2 -1 -1 -1 -0 0 -0 0 -0 -0 -0 -0 -0 -1 -1 -1 -1 -2 -2 -2 -2 -2 -2
-7 -7 -8 -8 -8 -4 -4 -4 -4 -4 -4 -4 -4 -4 -4 -3 -3 -3 -3 -3 -2 -2 -2 -2 -1 -1 -1 -0 -1 -1 -1 -1 -2 -2 -2 -2 -2 -2 -2 -2 -3 -3 -3 -2
-6 -7 -8 -7 -8 -7 -5 -4 -5 -4 -5 -5 -5 -4 -4 -4 -4 -3 -3 -3 -3 -3 -2 -2 -1 -1 -1 -0 -1 -1 -2 -2 -3 -2 -2 -2 -2 -2 -3 -3 -3 -3 -3 -3
-6 -6 -6 -6 -5 -5 -5 -5 -5 -5 -5 -5 -4 -4 -4 -4 -5 -5 -4 -4 -4 -4 -3 -3 -2 -2 -1 -1 -1 -2 -2 -3 -3 -2 -2 -2 -3 -3 -3 -3 -3 -3 -3 -3
-6 -6 -6 -6 -5 -5 -5 -5 -5 -5 -5 -5 -5 -5 -5 -4 -4 -4 -4 -4 -4 -4 -4 -3 -3 -3 -2 -2 -2 -2 -3 -3 -3 -3 -3 -3 -3 -3 -3 -4 -3 -3 -3 -3
-5 -5 -5 -5 -6 -6 -6 -7 -7 -6 -6 -6 -6 -5 -5 -5 -5 -5 -5 -5 -5 -4 -4 -4 -4 -3 -3 -3 -3 -3 -3 -3 -3 -3 -3 -4 -4 -4 -4 -4 -4 -4 -3 -3
-4 -4 -5 -5 -6 -6 -7 -8 -8 -8 -8 -7 -6 -6 -5 -5 -5 -5 -5 -5 -5 -5 -4 -4 -4 -4 -4 -4 -4 -4 -4 -4 -4 -3 -3 -4 -4 -4 -4 -4 -5 -5 -5 -5

GFSCGP_700_temp_102.txt.gz
Temp
-2 -2 -2 -2 -1 -1 -1 -1 -2 -0 -1 1 1 2 2 3 4 4 4 4 4 5 4 4 5 4 4 4 4 4 4 4 4 4 4 4 5 6 6 7 7 7 6 6
-2 -2 -2 -2 -1 -1 -1 -1 -2 -2 -2 -1 -2 0 1 2 3 3 3 3 4 4 5 4 5 4 4 5 5 4 4 4 4 4 4 4 3 5 6 6 6 6 6 7
-2 -2 -3 -2 -2 -1 -1 -1 -1 -0 -2 -2 -1 0 2 2 2 3 3 3 4 4 4 4 4 5 5 5 5 5 4 4 5 5 5 4 4 4 5 6 6 6 6 6
-2 -2 -2 -2 -1 -1 -1 -1 -1 -1 -1 -1 -1 -0 1 3 3 3 3 4 4 4 4 5 5 5 5 5 5 5 5 5 5 5 5 5 4 5 5 6 6 5 5 6
-2 -2 -2 -2 -1 -2 -1 -1 -0 -0 -1 -1 -1 -1 1 3 4 4 2 4 4 4 4 4 4 5 5 5 5 5 5 5 5 6 5 5 4 4 6 5 5 6 6 6
-1 -2 -2 -2 -2 -2 -2 -1 -0 -1 -2 -2 -0 -1 1 3 5 4 4 5 5 5 4 4 5 5 5 5 5 5 5 5 5 4 5 5 5 5 5 5 5 5 5 5
-2 -2 -2 -2 -3 -2 -2 -1 -2 -2 -2 -3 -1 -1 1 2 3 4 4 4 4 4 5 4 4 4 4 4 4 4 5 5 4 5 5 5 5 5 5 5 5 5 5 5
-4 -2 -2 -2 -2 -2 -2 -1 -1 -3 -4 -4 -1 -2 1 3 2 3 4 5 4 3 3 4 4 4 3 3 3 3 4 4 4 4 4 4 4 4 4 4 4 4 4 4
-4 -4 -3 -3 -3 -3 -3 -2 -1 -2 -3 -4 -2 -0 1 3 3 3 3 4 4 4 4 4 5 4 3 3 3 2 3 4 3 3 3 3 4 3 4 4 4 4 4 3
-5 -5 -3 -3 -3 -3 -3 -3 -3 -3 -3 -3 -3 -1 2 3 3 3 3 4 3 3 4 4 4 4 4 3 3 2 2 2 3 3 3 3 3 3 3 3 3 3 3 3
-4 -5 -4 -4 -4 -3 -3 -3 -3 -3 -2 -5 -4 -1 1 2 2 2 2 3 3 3 3 3 4 3 3 3 2 2 2 2 2 2 3 3 3 3 3 3 3 3 3 3
-4 -5 -6 -4 -4 -4 -4 -4 -3 -3 -4 -3 -3 -1 1 1 2 2 2 2 2 2 2 3 3 3 3 3 2 2 2 2 2 2 2 2 2 2 2 2 2 2 2 2
-5 -6 -6 -5 -4 -5 -5 -4 -4 -3 -3 -2 -4 -1 1 1 2 2 2 1 1 2 2 2 2 2 3 3 2 2 2 2 1 1 2 2 2 2 1 1 1 1 1 1
-6 -6 -6 -7 -5 -6 -5 -5 -5 -4 -3 -3 -2 -1 0 0 1 1 1 1 1 1 1 1 1 2 2 1 1 2 1 1 1 1 1 2 2 1 1 0 0 0 0 0
-6 -6 -7 -7 -6 -6 -5 -4 -4 -5 -4 -4 -3 -2 -2 -0 -1 0 0 0 0 0 0 0 0 0 0 0 0 1 1 1 1 1 1 1 1 1 0 0 -0 -0 -0 0
-7 -8 -8 -7 -7 -7 -6 -4 -4 -4 -4 -4 -4 -3 -2 -1 -1 -1 -1 -1 -1 -1 -1 -1 -1 -0 0 0 0 1 1 1 1 1 1 1 1 1 1 0 -0 -0 -1 -1
-8 -8 -8 -7 -7 -6 -6 -4 -4 -3 -4 -5 -4 -3 -4 -3 -2 -2 -2 -1 -1 -1 -0 -1 -1 -0 -0 0 0 1 1 1 1 1 1 1 1 1 1 1 -0 -0 -1 -1
-7 -8 -8 -7 -6 -8 -5 -5 -4 -4 -5 -5 -5 -4 -4 -4 -3 -2 -2 -2 -2 -2 -2 -2 -1 -1 -1 -0 0 0 1 1 1 1 1 1 1 1 1 1 -0 -1 -1 -1
-7 -7 -7 -9 -8 -5 -5 -5 -4 -4 -4 -5 -4 -4 -3 -3 -3 -4 -4 -3 -3 -3 -2 -2 -1 -1 -1 -1 -0 -0 -0 0 0 0 0 1 1 1 0 0 -0 -1 -1 -2
-7 -7 -8 -8 -8 -7 -5 -5 -5 -5 -5 -4 -4 -4 -3 -3 -4 -4 -4 -3 -3 -2 -2 -2 -1 -1 -1 -1 -0 0 -0 0 0 0 -0 -0 -0 -0 -1 -1 -1 -2 -2 -2
-6 -7 -8 -8 -8 -5 -5 -5 -5 -5 -5 -5 -5 -4 -4 -4 -4 -4 -4 -5 -4 -3 -3 -2 -2 -2 -1 -1 -0 -0 -0 -0 -1 -1 -1 -1 -1 -1 -1 -2 -2 -2 -2 -2
-6 -7 -8 -8 -8 -7 -5 -5 -5 -5 -5 -5 -5 -5 -5 -5 -5 -5 -4 -4 -4 -4 -3 -2 -2 -2 -1 -1 -1 -0 -1 -1 -2 -2 -1 -1 -2 -2 -2 -2 -2 -2 -3 -3
-5 -5 -6 -6 -5 -5 -4 -5 -5 -5 -5 -6 -5 -5 -5 -5 -5 -5 -5 -5 -4 -4 -4 -3 -3 -3 -2 -1 -1 -1 -1 -2 -2 -2 -2 -2 -3 -3 -3 -3 -3 -3 -3 -3
-5 -5 -5 -5 -5 -5 -6 -6 -6 -6 -6 -6 -6 -6 -5 -5 -5 -5 -5 -5 -5 -4 -4 -4 -4 -4 -3 -2 -2 -2 -2 -3 -3 -3 -3 -3 -3 -3 -3 -3 -3 -3 -4 -4
-4 -5 -5 -5 -5 -5 -6 -6 -7 -7 -7 -7 -7 -6 -6 -5 -5 -5 -5 -5 -5 -5 -4 -4 -4 -4 -4 -3 -3 -3 -3 -4 -4 -4 -3 -3 -3 -3 -4 -4 -4 -4 -4 -4
-3 -4 -4 -5 -5 -6 -6 -7 -8 -7 -8 -9 -8 -7 -6 -6 -6 -5 -5 -5 -5 -5 -5 -5 -5 -5 -4 -4 -4 -4 -4 -4 -4 -4 -4 -4 -4 -4 -4 -4 -4 -5 -4 -4

GFSCGP_700_temp_105.txt.gz
Temp
-2 -2 -2 -3 -1 -0 1 3 -2 -2 -1 -3 1 1 2 3 4 4 5 5 4 4 4 3 3 4 4 3 4 5 5 5 4 4 4 5 5 6 6 6 6 6 6 6
-2 -2 -2 -2 -2 -1 -1 -0 -2 -2 -2 -2 1 1 1 2 3 4 4 5 5 4 4 4 3 3 3 4 4 3 4 3 4 4 4 4 4 5 5 5 6 5 5 6
-2 -2 -2 -2 -2 -2 -1 -1 -1 -2 -2 -2 1 0 2 2 2 3 4 4 4 4 4 4 4 4 4 3 3 4 4 4 3 3 3 3 4 4 5 5 4 4 5 5
-2 -2 -2 -2 -2 -2 -1 -1 -1 -1 -2 -2 -2 -0 2 2 2 3 3 4 5 4 4 4 5 4 4 4 4 3 4 4 3 2 5 4 2 3 4 4 3 3 4 3
-2 -2 -2 -2 -2 -2 -1 -1 -1 -1 -1 -1 -2 -2 3 3 4 4 3 3 4 4 4 4 4 4 4 4 4 4 4 4 4 4 4 4 4 4 2 3 3 3 3 4
-3 -3 -2 -2 -2 -2 -2 -1 -1 -1 -2 -2 -1 -1 2 2 5 5 4 4 3 4 4 4 4 4 4 4 4 4 4 4 4 4 4 4 4 4 4 4 4 3 4 5
-3 -3 -3 -3 -3 -3 -2 -2 -3 -2 -2 -2 -1 -2 2 2 3 5 4 3 3 3 4 4 4 4 4 5 4 4 4 4 4 4 4 4 5 4 4 4 4 4 4 4
-4 -3 -4 -4 -4 -3 -3 -2 -2 -3 -3 -3 -2 -2 2 2 3 2 2 3 2 1 3 3 3 4 4 5 5 5 4 4 4 4 4 4 4 4 4 4 4 4 4 4
-4 -4 -4 -4 -4 -3 -3 -3 -2 -2 -4 -3 -1 -1 1 2 2 3 3 2 3 3 3 4 3 4 4 4 4 4 4 4 4 4 4 4 4 4 4 4 4 4 4 4
-5 -5 -4 -4 -4 -4 -4 -3 -3 -3 -3 -3 -3 -2 1 2 2 2 3 3 3 3 2 3 3 4 4 4 4 3 3 3 4 4 3 3 3 3 4 4 3 3 4 4
-5 -5 -4 -4 -4 -4 -4 -4 -3 -3 -3 -3 -3 -0 1 2 2 2 2 3 3 2 2 3 3 4 4 4 3 3 3 2 3 3 3 3 3 3 3 3 3 3 3 3
-5 -5 -6 -5 -5 -5 -5 -4 -4 -3 -4 -3 -3 -0 1 1 2 2 2 2 2 2 2 3 3 3 3 3 3 2 2 2 2 3 2 2 2 2 2 3 3 3 3 3
-5 -6 -6 -5 -5 -5 -5 -5 -5 -5 -4 -3 -3 -1 -0 0 1 2 1 1 2 2 2 2 2 2 2 2 2 2 2 2 2 2 1 1 2 2 2 2 1 1 1 2
-6 -6 -6 -7 -6 -6 -6 -5 -5 -6 -4 -4 -2 -1 -0 -0 -1 0 1 1 1 1 1 1 2 2 2 2 2 2 2 2 1 1 1 1 1 1 1 1 1 1 1 1
-6 -6 -7 -7 -7 -7 -7 -5 -5 -5 -5 -4 -4 -3 -2 -1 -1 -1 -0 0 0 0 0 0 0 0 1 1 1 1 1 1 1 1 1 1 1 1 1 1 0 0 0 -0
-6 -7 -8 -8 -8 -7 -6 -5 -5 -4 -4 -4 -4 -4 -3 -2 -1 -1 -1 -1 -0 0 0 0 -0 -0 -0 -0 -0 -0 0 0 1 1 1 1 1 1 1 1 -0 -1 -1 -1
-6 -6 -7 -7 -7 -7 -6 -5 -5 -4 -4 -5 -5 -4 -4 -3 -3 -2 -2 -2 -2 -1 -1 -0 -0 -0 -0 -0 -0 0 0 0 1 1 1 1 1 1 1 1 1 0 -0 -1
-5 -6 -6 -6 -6 -9 -5 -5 -5 -5 -5 -5 -5 -5 -4 -3 -2 -3 -3 -2 -2 -2 -2 -1 -1 -1 -0 -0 0 0 1 1 1 1 1 1 1 1 1 1 1 1 0 -0
-6 -6 -6 -7 -9 -5 -5 -5 -5 -5 -5 -5 -5 -5 -3 -3 -3 -3 -4 -3 -3 -3 -2 -2 -2 -1 -1 -0 0 0 -0 -0 0 1 0 0 1 1 0 1 1 1 0 -0
-5 -6 -6 -7 -8 -7 -5 -5 -5 -5 -5 -5 -5 -5 -4 -3 -3 -4 -4 -4 -4 -3 -3 -3 -2 -2 -1 -1 -1 -0 -1 -1 -0 -0 -0 -0 -0 -0 -0 -0 -0 -0 -0 -1
-5 -5 -6 -7 -7 -5 -5 -5 -5 -5 -5 -5 -5 -5 -5 -4 -5 -5 -4 -4 -4 -4 -4 -3 -2 -2 -2 -1 -1 -1 -1 -1 -1 -1 -0 -0 -1 -1 -1 -1 -1 -1 -1 -2
-5 -5 -5 -7 -8 -6 -5 -5 -5 -5 -6 -5 -5 -5 -5 -5 -5 -5 -5 -5 -5 -4 -4 -4 -3 -2 -2 -2 -1 -1 -1 -1 -1 -1 -1 -1 -1 -1 -1 -2 -2 -2 -2 -3
-4 -4 -4 -4 -4 -4 -5 -5 -5 -6 -6 -6 -6 -6 -5 -5 -5 -5 -5 -5 -5 -4 -4 -4 -3 -3 -3 -2 -2 -1 -1 -1 -1 -1 -2 -2 -2 -2 -2 -3 -3 -3 -3 -3
-4 -4 -4 -4 -4 -5 -5 -5 -6 -6 -6 -6 -6 -6 -6 -5 -5 -5 -5 -5 -5 -4 -4 -4 -4 -4 -3 -3 -3 -2 -2 -2 -2 -2 -3 -3 -3 -3 -3 -3 -3 -3 -3 -4
-4 -4 -4 -3 -4 -5 -5 -6 -6 -6 -7 -8 -8 -8 -7 -6 -6 -5 -5 -5 -5 -5 -5 -5 -4 -4 -4 -3 -3 -3 -3 -3 -4 -4 -4 -4 -3 -4 -4 -4 -4 -3 -4 -4
-3 -3 -3 -3 -4 -5 -5 -6 -6 -6 -7 -7 -8 -8 -8 -8 -6 -6 -6 -5 -5 -5 -5 -5 -5 -5 -4 -4 -4 -4 -4 -5 -5 -5 -5 -5 -5 -4 -4 -5 -4 -4 -4 -4

GFSCGP_700_temp_108.txt.gz
Temp
-2 -2 -2 -2 -2 -1 -2 -1 2 -1 0 1 1 0 0 1 3 4 4 4 4 4 3 3 3 4 4 3 3 4 4 4 5 5 6 6 6 6 6 6 6 6 6 5
-3 -2 -2 -2 -2 -1 -2 -1 -1 0 1 0 1 0 -1 2 3 4 4 4 4 4 3 3 3 4 3 3 3 2 3 3 4 6 6 5 5 5 5 5 5 6 5 5
-3 -2 -2 -2 -2 -2 -1 -1 -1 -1 -1 -1 -0 2 1 2 3 4 4 4 4 4 4 4 4 3 3 3 2 2 4 3 4 4 6 5 5 5 4 4 5 5 4 4
-2 -2 -2 -2 -2 -2 -1 -1 -1 -1 -2 -1 -1 4 0 0 3 3 4 5 4 4 5 4 5 4 4 3 2 3 4 5 5 4 5 5 4 4 4 4 3 4 4 4
-2 -2 -2 -2 -2 -2 -1 -1 -1 -1 -1 -1 -1 -0 3 2 3 3 3 4 4 5 5 5 5 4 4 3 3 3 2 2 3 4 4 2 3 2 2 3 3 3 4 4
-2 -2 -3 -3 -2 -2 -2 -1 -1 -1 -1 0 1 -0 4 2 2 3 3 3 3 4 4 5 5 5 5 4 3 3 4 4 2 3 3 3 3 3 3 2 3 3 3 3
-4 -3 -3 -3 -3 -2 -2 -2 -0 -1 -1 1 -1 -1 2 2 2 2 3 2 3 3 3 4 5 5 5 4 4 4 4 4 4 4 3 4 3 3 2 3 3 4 3 4
-4 -3 -4 -4 -3 -3 -3 -2 0 0 1 2 -2 0 2 2 2 1 2 2 2 4 3 3 3 4 4 4 4 4 4 4 4 4 4 4 4 3 3 3 3 4 4 4
-4 -4 -4 -4 -3 -3 -3 -3 -2 -2 -2 -0 1 0 2 2 2 2 2 2 3 3 3 3 3 3 3 3 3 4 4 4 3 4 4 4 4 3 3 3 3 3 4 4
-4 -5 -4 -4 -4 -4 -4 -4 -3 -3 -1 0 1 -0 2 1 1 1 1 2 3 3 3 3 2 2 2 3 3 3 3 3 3 4 4 4 4 4 3 3 3 4 4 3
-5 -5 -5 -4 -4 -5 -5 -4 -4 -4 -3 1 2 2 0 0 1 1 2 2 2 2 2 2 3 3 3 2 2 3 3 3 3 3 3 3 3 3 3 4 4 4 3 4
-5 -5 -6 -5 -5 -5 -5 -5 -5 -4 -3 -3 -2 1 -0 -0 1 1 1 1 2 2 2 2 3 3 3 3 3 3 3 3 3 3 3 3 3 3 2 3 3 3 3 3
-5 -6 -5 -4 -5 -6 -6 -6 -6 -5 -4 -3 -0 0 -1 -1 0 1 1 1 1 1 2 2 2 3 3 3 3 3 3 2 2 2 2 2 2 2 2 2 2 2 2 2
-6 -6 -6 -5 -6 -6 -7 -7 -6 -5 -5 -5 -2 -2 -1 -0 -1 -1 -0 0 0 0 1 1 2 2 2 2 2 2 2 2 2 2 2 2 1 1 2 2 2 2 2 2
-6 -6 -7 -7 -7 -7 -7 -6 -6 -5 -5 -5 -4 -3 -2 -1 -1 -1 -2 -1 -0 -0 0 0 1 2 2 2 2 2 2 2 2 2 1 1 1 1 1 1 1 1 1 1
-5 -5 -6 -7 -7 -7 -6 -6 -5 -5 -5 -5 -4 -4 -3 -2 -2 -1 -1 -2 -2 -1 -1 -1 -0 -0 -0 1 1 1 1 1 1 1 1 1 1 1 1 1 1 1 1 0
-4 -5 -6 -6 -6 -6 -5 -5 -5 -5 -5 -6 -5 -5 -4 -3 -2 -2 -2 -2 -1 -1 -1 -1 -1 -1 -1 -0 -0 -0 0 0 0 1 1 1 1 1 1 1 1 1 0 -0
-4 -5 -5 -5 -5 -4 -5 -5 -5 -5 -5 -5 -5 -5 -5 -4 -3 -3 -3 -3 -2 -2 -2 -1 -1 -1 -1 -1 -0 -0 -0 -0 0 0 0 1 1 1 1 1 1 1 0 -0
-5 -5 -5 -6 -6 -5 -5 -5 -5 -5 -5 -5 -5 -5 -4 -4 -3 -3 -3 -3 -3 -3 -3 -2 -1 -1 -1 -1 -0 -0 -0 -0 -0 0 0 0 0 0 0 0 0 0 0 -0
-5 -5 -5 -6 -6 -3 -5 -4 -4 -4 -5 -5 -5 -5 -4 -5 -4 -3 -3 -4 -4 -4 -4 -3 -3 -2 -2 -1 -1 -0 -0 -0 -1 -1 -1 -1 -1 -1 -1 -1 -1 -1 -1 -1
-4 -5 -6 -7 -6 -4 -4 -4 -5 -5 -5 -5 -5 -5 -5 -5 -5 -5 -4 -4 -4 -4 -4 -4 -4 -3 -3 -2 -2 -1 -1 -1 -1 -1 -1 -1 -1 -1 -1 -1 -1 -1 -1 -1
-4 -4 -4 -5 -6 -4 -4 -4 -5 -5 -5 -5 -5 -5 -5 -5 -5 -5 -5 -5 -5 -4 -5 -5 -4 -4 -3 -3 -2 -2 -2 -1 -1 -1 -1 -1 -1 -1 -1 -1 -1 -1 -2 -2
-4 -3 -3 -3 -3 -4 -4 -4 -5 -5 -5 -5 -6 -6 -5 -5 -5 -5 -5 -5 -5 -5 -5 -5 -5 -4 -4 -3 -3 -3 -2 -2 -1 -1 -1 -1 -2 -2 -2 -2 -2 -3 -3 -3
-3 -3 -3 -3 -3 -3 -4 -4 -4 -5 -5 -6 -6 -6 -7 -6 -6 -5 -5 -5 -5 -5 -5 -5 -4 -4 -4 -3 -3 -3 -3 -2 -2 -2 -2 -2 -2 -3 -3 -3 -3 -3 -3 -4
-3 -3 -2 -2 -3 -3 -4 -4 -4 -5 -5 -6 -7 -8 -7 -7 -7 -6 -5 -5 -5 -5 -5 -5 -5 -4 -4 -4 -4 -3 -3 -3 -3 -3 -3 -3 -4 -4 -4 -4 -4 -4 -4 -3
-2 -2 -2 -3 -3 -3 -4 -3 -4 -5 -5 -6 -6 -8 -8 -7 -7 -7 -6 -5 -5 -5 -5 -5 -5 -5 -5 -5 -5 -4 -4 -4 -4 -5 -5 -5 -4 -5 -5 -4 -4 -4 -4 -4

GFSCGP_700_temp_111.txt.gz
Temp
-2 -3 -2 -2 -2 -1 -1 1 2 2 0 -0 -0 1 0 1 1 3 4 4 4 4 4 4 4 4 5 5 5 3 4 4 4 5 5 6 6 6 6 6 5 5 5 5
-2 -2 -2 -2 -2 -1 -0 2 2 1 1 1 -0 -0 -1 2 2 2 4 5 4 4 4 4 3 4 4 4 4 2 4 4 4 4 5 5 5 6 5 5 5 5 5 5
-2 -2 -1 -2 -2 -1 0 1 2 1 -1 -1 -1 1 0 2 2 2 4 4 4 4 4 3 3 3 3 3 2 2 4 3 3 3 4 5 5 5 5 5 5 5 5 5
-2 -2 -2 -2 -2 -1 0 -0 -0 0 0 3 0 2 1 3 1 2 4 4 4 4 3 3 1 2 2 2 2 2 2 2 3 4 3 4 5 5 5 4 4 4 4 4
-2 -2 -3 -2 -1 -2 -1 -1 -1 0 1 1 2 2 3 1 2 2 3 4 4 4 4 3 3 3 3 3 2 3 2 1 1 3 3 2 3 4 5 5 4 3 3 3
-3 -2 -3 -3 -2 -2 -2 -1 -0 0 -0 1 3 2 3 2 2 3 3 2 4 4 4 3 3 3 3 3 3 4 2 2 1 2 3 3 3 3 3 4 4 3 2 2
-3 -3 -3 -3 -3 -2 -2 -1 -0 -0 0 2 0 1 3 2 2 2 2 2 2 4 4 4 4 4 4 3 3 2 2 2 3 3 4 4 3 4 4 5 4 3 2 2
-3 -2 -3 -3 -4 -3 -3 -2 -1 -0 2 4 0 2 2 1 2 1 1 1 1 2 3 4 4 4 4 3 4 4 4 3 3 3 3 3 3 4 4 3 3 2 2 2
-3 -2 -3 -4 -3 -4 -3 -3 -2 -2 1 2 3 2 1 1 1 1 1 1 1 2 3 3 3 3 4 4 3 4 3 3 3 3 3 3 3 3 3 2 3 3 3 3
-4 -4 -4 -4 -3 -3 -4 -4 -3 -2 -1 1 3 2 1 -0 -0 0 0 1 2 2 2 2 2 2 2 3 3 3 3 3 3 3 3 3 3 3 4 3 4 3 3 3
-5 -4 -3 -4 -4 -4 -4 -4 -4 -4 -3 -1 1 -0 -2 -1 0 1 1 2 2 2 3 2 2 2 2 2 2 2 3 2 3 3 3 3 3 3 3 3 3 3 3 3
-5 -5 -4 -3 -5 -5 -5 -5 -4 -3 -3 -2 -2 -2 -2 -1 1 1 1 2 2 2 2 2 2 2 2 2 1 2 2 2 3 3 3 3 3 3 3 3 3 3 3 3
-5 -5 -4 -3 -5 -5 -6 -5 -5 -5 -5 -3 -1 -2 -2 -2 -1 0 1 1 2 2 2 2 2 3 3 2 2 1 1 1 1 2 2 2 2 2 2 2 2 2 2 2
-5 -6 -6 -4 -6 -6 -6 -6 -6 -6 -5 -4 -2 -3 -2 -3 -3 -3 -1 -0 0 1 1 1 2 2 2 3 3 2 2 1 1 2 2 2 2 2 2 2 2 2 2 2
-5 -6 -6 -7 -7 -7 -7 -6 -5 -5 -5 -5 -4 -4 -3 -4 -3 -3 -3 -1 -0 -0 0 1 1 1 2 2 2 2 2 1 1 0 1 2 2 2 2 2 2 2 2 2
-4 -5 -5 -6 -7 -7 -6 -6 -5 -5 -5 -5 -5 -3 -3 -3 -3 -2 -3 -2 -2 -1 -0 -0 0 0 1 1 1 1 2 2 2 2 1 1 1 1 1 1 1 1 1 1
-4 -4 -5 -5 -5 -5 -4 -5 -5 -5 -5 -5 -5 -4 -4 -3 -3 -3 -2 -2 -2 -2 -2 -1 -1 -0 -0 -0 0 0 1 1 1 1 1 1 1 0 0 0 1 1 1 1
-4 -4 -4 -5 -4 -2 -5 -4 -5 -5 -5 -5 -5 -4 -5 -4 -4 -3 -3 -3 -3 -2 -2 -2 -1 -1 -1 -1 -0 -0 -0 -0 -0 0 0 0 0 0 0 1 1 1 0 0
-3 -4 -5 -4 -2 -3 -4 -4 -5 -5 -5 -5 -5 -5 -4 -4 -4 -3 -3 -3 -3 -2 -2 -2 -2 -3 -2 -1 -1 -0 -0 -0 -0 -0 -0 0 0 0 0 0 1 0 0 0
-3 -4 -4 -5 -4 -1 -3 -3 -4 -4 -5 -4 -5 -4 -4 -4 -4 -4 -3 -3 -3 -3 -3 -3 -3 -2 -2 -2 -1 -1 -1 -0 -0 -0 -0 -0 -0 -0 0 0 0 0 0 0
-3 -4 -5 -5 -4 -3 -2 -3 -4 -5 -4 -4 -4 -5 -5 -4 -4 -4 -4 -4 -4 -4 -4 -4 -4 -3 -3 -3 -2 -2 -2 -1 -1 -0 -0 -0 -0 -0 -0 -1 -1 -0 -0 -0
-3 -4 -4 -5 -5 -3 -2 -3 -4 -4 -4 -5 -4 -5 -5 -5 -5 -4 -4 -4 -4 -4 -4 -4 -5 -4 -4 -4 -4 -3 -3 -2 -2 -2 -1 -1 -1 -1 -1 -1 -1 -1 -1 -1
-3 -3 -4 -3 -3 -3 -3 -3 -3 -4 -4 -5 -5 -5 -6 -5 -5 -5 -5 -5 -5 -5 -5 -5 -5 -5 -5 -4 -4 -3 -3 -2 -2 -2 -2 -2 -2 -2 -2 -2 -2 -2 -2 -2
-2 -2 -3 -2 -2 -2 -3 -3 -3 -4 -4 -5 -5 -6 -6 -6 -6 -6 -5 -5 -5 -5 -5 -5 -5 -5 -4 -4 -4 -4 -3 -3 -2 -2 -2 -2 -2 -2 -2 -3 -3 -3 -3 -3
-3 -2 -2 -1 -2 -3 -3 -3 -3 -3 -4 -4 -4 -5 -6 -7 -6 -7 -6 -6 -5 -5 -5 -5 -5 -5 -5 -4 -4 -4 -4 -3 -3 -3 -3 -3 -3 -3 -3 -4 -4 -4 -4 -4
-0 -1 -1 -2 -2 -2 -2 -3 -3 -3 -3 -3 -4 -5 -6 -7 -7 -7 -6 -6 -6 -5 -5 -5 -5 -5 -5 -5 -5 -5 -4 -4 -4 -4 -4 -4 -5 -5 -5 -5 -5 -5 -4 -4

GFSCGP_700_temp_114.txt.gz
Temp
-3 -2 -2 -2 -2 -2 -2 -1 0 2 1 0 1 1 -0 1 1 2 3 3 3 3 3 4 5 4 5 5 5 5 3 4 4 5 5 5 6 6 6 6 6 6 5 5
-3 -2 -2 -2 -1 -2 -2 -1 0 1 1 1 1 1 0 0 1 1 2 3 3 3 2 3 4 4 4 3 5 6 3 3 3 4 4 5 5 6 6 5 5 5 5 5
-2 -2 -2 -2 -2 -2 -1 -1 -0 -0 0 0 -0 2 2 0 1 1 3 4 3 3 3 3 3 4 4 4 5 5 4 3 2 4 4 4 4 5 5 5 5 5 5 5
-2 -2 -2 -2 -2 -1 -1 -1 -1 0 0 -0 1 0 2 1 1 2 3 4 4 4 3 3 3 4 3 3 4 4 4 4 2 2 4 4 5 5 5 5 5 5 5 4
-2 -3 -3 -2 -2 -2 -2 -1 -1 -0 0 -0 2 2 1 2 2 2 3 4 4 4 4 4 3 4 2 3 4 3 3 2 4 2 3 4 4 4 5 5 5 5 5 5
-3 -3 -3 -3 -2 -2 -2 -1 -1 -0 0 -0 2 2 -1 0 1 2 2 4 4 4 3 3 3 3 3 2 2 2 2 1 1 2 2 2 2 3 3 3 4 5 5 4
-3 -3 -3 -3 -3 -2 -3 -2 -2 -2 -3 -2 2 2 1 1 1 1 1 2 3 4 3 3 3 2 3 3 2 2 2 2 1 2 1 2 1 2 2 2 3 3 3 3
-2 -2 -3 -3 -4 -4 -3 -3 -2 -1 -1 -1 1 0 1 1 1 1 1 1 2 3 3 3 2 2 2 2 1 2 2 3 2 2 1 1 1 1 1 2 3 3 3 3
-3 -3 -3 -4 -3 -4 -3 -3 -3 -3 0 -0 2 1 1 -0 0 0 -1 0 -0 1 3 3 3 3 3 2 3 3 3 3 3 2 1 1 1 1 2 3 3 3 3 4
-4 -4 -3 -4 -4 -4 -4 -3 -3 -2 -5 -1 -1 -1 -2 -1 -0 -1 0 -0 1 0 0 1 3 3 3 3 3 3 3 2 3 2 3 3 2 3 3 1 2 3 3 3
-4 -4 -3 -3 -5 -5 -4 -4 -4 -4 -4 -2 -2 -3 -2 -2 -1 -2 -0 0 1 1 0 1 2 2 2 2 2 2 2 3 3 3 3 2 2 3 3 3 3 2 2 2
-5 -5 -5 -4 -5 -5 -5 -5 -4 -4 -3 -3 -3 -3 -2 -3 -2 -1 -1 0 0 1 1 2 2 2 1 2 2 1 1 1 2 2 3 3 3 3 3 3 3 3 3 3
-4 -5 -5 -5 -5 -5 -5 -5 -5 -5 -5 -4 -3 -3 -3 -3 -2 -2 -1 -1 -1 0 1 1 2 2 2 2 1 1 1 1 1 2 2 2 2 3 3 3 3 3 3 3
-5 -5 -6 -6 -6 -6 -6 -5 -5 -5 -4 -4 -4 -4 -3 -3 -2 -2 -3 -1 -1 -0 0 1 1 2 2 2 2 2 2 1 0 0 1 1 1 1 1 2 2 2 2 2
-4 -5 -5 -6 -7 -7 -7 -5 -4 -4 -5 -5 -4 -4 -4 -4 -3 -3 -2 -2 -1 -1 -0 0 1 1 2 2 2 2 2 1 1 1 0 -0 0 0 1 1 2 1 1 2
-4 -4 -5 -5 -5 -4 -4 -5 -4 -4 -5 -5 -5 -5 -4 -4 -4 -2 -2 -2 -2 -1 -1 -1 -0 0 1 1 1 2 2 1 1 1 0 -0 -1 -1 -0 1 1 1 1 1
-3 -4 -4 -5 -4 -4 -4 -5 -5 -5 -5 -5 -5 -4 -4 -4 -4 -2 -2 -2 -2 -2 -2 -1 -1 -1 -1 -0 -0 0 0 0 0 0 0 -0 -1 0 1 1 1 1 1 1
-3 -3 -4 -4 -4 -7 -3 -3 -4 -3 -3 -4 -4 -4 -4 -4 -4 -4 -3 -2 -2 -2 -2 -2 -2 -1 -1 -1 -1 -1 -1 -1 -1 -1 -1 -0 -0 -0 0 0 0 1 1 1
-3 -3 -4 -4 -3 -3 -3 -3 -3 -3 -3 -4 -4 -4 -4 -4 -4 -4 -4 -4 -3 -2 -2 -2 -2 -2 -2 -2 -2 -1 -1 -1 -1 -0 -0 -0 -0 -0 -0 0 0 0 0 0
-3 -3 -4 -4 -4 -3 -3 -2 -3 -3 -3 -3 -3 -4 -4 -4 -5 -4 -4 -4 -4 -3 -3 -2 -2 -2 -2 -2 -2 -1 -1 -1 -1 -1 -1 -1 -1 -0 -0 -0 -0 -0 0 0
-2 -3 -4 -5 -5 -3 -2 -2 -3 -4 -3 -3 -3 -4 -4 -4 -4 -4 -4 -4 -5 -4 -4 -3 -3 -2 -3 -2 -2 -2 -2 -2 -1 -1 -1 -1 -1 -1 -0 -0 -0 -1 -1 -0
-3 -3 -3 -5 -5 -5 -2 -2 -3 -3 -3 -3 -4 -4 -4 -4 -5 -4 -4 -4 -4 -5 -5 -5 -4 -4 -3 -3 -3 -3 -3 -2 -2 -2 -2 -1 -1 -1 -1 -1 -1 -1 -1 -1
-3 -2 -3 -3 -2 -1 -2 -2 -3 -3 -4 -3 -5 -5 -5 -5 -5 -5 -5 -5 -5 -4 -5 -5 -5 -5 -4 -4 -4 -4 -4 -4 -3 -3 -2 -2 -2 -2 -2 -2 -2 -2 -2 -2
-2 -2 -3 -2 -1 -1 -2 -2 -2 -2 -3 -3 -4 -4 -5 -5 -6 -6 -6 -6 -5 -5 -5 -5 -5 -5 -5 -5 -5 -4 -4 -4 -3 -3 -2 -2 -2 -2 -2 -2 -2 -3 -3 -3
-2 -2 -1 -1 -1 -1 -2 -2 -2 -2 -3 -3 -3 -3 -4 -4 -5 -6 -6 -6 -6 -5 -5 -5 -5 -5 -5 -5 -5 -5 -4 -4 -3 -3 -3 -3 -2 -2 -2 -3 -3 -3 -4 -4
0 0 0 -0 -0 -1 -1 -2 -2 -2 -2 -2 -3 -3 -2 -3 -4 -5 -6 -6 -6 -6 -5 -5 -5 -5 -5 -5 -5 -5 -5 -5 -5 -4 -4 -4 -4 -4 -4 -4 -5 -5 -5 -5

GFSCGP_700_temp_117.txt.gz
Temp
-3 -3 -2 -2 -2 -2 -2 -2 -2 -1 -0 -0 0 0 1 1 0 1 2 1 2 3 3 4 3 3 3 2 3 3 4 3 3 2 3 4 5 5 5 5 6 6 6 5
-3 -2 -2 -2 -2 -2 -2 -2 -1 -1 -1 -1 0 1 2 0 0 1 1 2 3 3 4 3 2 2 3 3 4 3 3 3 4 2 3 4 5 5 5 6 5 5 5 5
-3 -2 -2 -2 -2 -2 -2 -2 -2 -2 -0 0 0 2 1 0 1 1 2 2 3 3 5 2 3 3 3 3 4 3 3 3 5 4 2 3 4 4 5 5 5 5 5 5
-2 -3 -3 -3 -3 -3 -2 -2 -2 -1 -1 -0 0 -0 -0 1 1 1 2 2 2 3 3 2 3 3 3 3 3 3 4 4 3 3 4 3 3 4 5 5 5 5 5 5
-2 -2 -3 -3 -3 -3 -3 -2 -2 -1 -1 -0 1 -1 -2 -0 0 1 1 2 3 3 2 2 3 3 3 3 3 3 4 4 3 3 3 2 1 3 4 5 5 5 5 5
-3 -3 -3 -4 -3 -3 -3 -2 -1 -0 -0 -2 1 1 -1 -1 -1 1 1 1 2 2 3 2 2 2 2 2 1 3 3 4 3 4 3 2 1 1 2 3 4 4 4 4
-3 -3 -3 -4 -3 -3 -3 -2 -5 -3 -5 -4 0 -0 -3 -1 -1 -2 1 1 1 2 2 2 1 2 2 1 1 1 2 3 3 3 2 1 1 1 2 3 3 4 4 4
-4 -3 -4 -4 -4 -4 -3 -4 -4 -2 -2 -3 0 -1 -3 -1 -1 -1 -0 1 1 1 2 1 1 1 1 1 1 2 1 1 2 3 1 1 1 1 2 2 2 2 3 2
-4 -3 -4 -4 -4 -4 -4 -3 -3 -3 -3 -2 -2 -2 -0 -1 -1 -2 -1 -1 -1 -1 1 1 1 1 1 0 1 1 1 1 1 1 2 1 1 1 1 2 2 2 2 2
-4 -4 -4 -4 -4 -4 -4 -4 -3 -3 -4 -2 -3 -3 -4 -3 -3 -1 -1 -2 -2 -0 -0 1 1 1 1 1 2 1 1 1 2 2 1 1 1 1 1 1 1 2 2 1
-4 -5 -5 -4 -5 -5 -4 -4 -4 -4 -3 -3 -3 -3 -4 -3 -3 -3 -2 -1 -1 0 -0 0 0 0 0 1 1 2 1 1 2 2 2 1 1 1 1 1 1 1 1 1
-5 -5 -5 -6 -5 -5 -5 -5 -4 -4 -4 -3 -3 -3 -4 -4 -4 -3 -3 -1 -1 -0 0 0 1 1 0 1 1 1 1 1 2 1 1 2 2 2 1 2 2 2 2 1
-4 -4 -5 -6 -5 -4 -5 -5 -5 -4 -4 -5 -4 -4 -4 -4 -4 -4 -3 -2 -1 -0 0 1 1 1 1 1 1 1 1 0 1 1 2 1 1 1 1 1 1 1 2 2
-4 -5 -5 -7 -7 -6 -4 -4 -4 -3 -4 -5 -5 -4 -4 -4 -4 -3 -3 -2 -2 -1 -0 0 1 1 1 1 1 2 2 2 2 0 0 1 1 0 0 0 0 0 1 1
-3 -4 -5 -5 -5 -5 -4 -4 -4 -4 -4 -4 -5 -5 -4 -4 -3 -3 -3 -2 -2 -2 -1 -0 0 1 1 1 1 2 2 2 1 1 0 0 0 -0 0 0 -0 0 2 2
-3 -3 -4 -4 -4 -4 -3 -3 -3 -4 -4 -4 -4 -5 -4 -4 -4 -3 -3 -2 -2 -2 -2 -2 -1 -0 0 1 1 1 1 1 1 1 0 0 0 -0 -0 -0 0 -1 0 1
-3 -3 -3 -4 -4 -4 -4 -3 -3 -3 -3 -3 -4 -4 -4 -4 -3 -2 -2 -2 -2 -2 -2 -2 -2 -2 -1 -1 -0 0 0 1 1 0 0 0 -0 -0 -1 -1 -1 -0 0 1
-3 -3 -3 -3 -4 -8 -2 -3 -3 -3 -3 -3 -3 -4 -4 -3 -3 -4 -3 -3 -2 -2 -2 -2 -2 -2 -2 -2 -2 -1 -1 -1 -0 -0 -0 -1 -0 -0 -0 -1 -0 0 0 0
-2 -3 -3 -3 -4 -3 -2 -2 -2 -3 -3 -3 -3 -4 -4 -3 -3 -4 -4 -3 -3 -3 -2 -2 -2 -2 -2 -2 -2 -2 -2 -1 -1 -1 -1 -1 -1 -1 -1 -1 -1 -0 -0 0
-2 -3 -3 -4 -5 -5 -2 -2 -2 -2 -3 -3 -3 -4 -4 -4 -4 -3 -4 -4 -4 -3 -3 -3 -2 -2 -2 -2 -2 -1 -1 -1 -1 -1 -1 -1 -1 -1 -1 -1 -0 -0 -0 -0
-2 -2 -3 -4 -4 -2 -1 -2 -2 -3 -2 -3 -3 -4 -4 -4 -4 -4 -4 -4 -4 -4 -4 -3 -3 -2 -2 -2 -2 -2 -1 -1 -1 -1 -1 -1 -1 -1 -1 -1 -1 -1 -1 -1
-3 -2 -2 -4 -5 -3 -1 -2 -2 -2 -2 -3 -3 -3 -4 -4 -4 -4 -4 -4 -4 -4 -4 -4 -4 -3 -3 -3 -2 -2 -2 -2 -2 -2 -1 -1 -2 -2 -1 -1 -1 -1 -1 -1
-2 -1 -2 -2 0 -0 -1 -1 -1 -2 -2 -2 -3 -2 -3 -3 -4 -4 -5 -5 -4 -4 -4 -4 -4 -4 -4 -4 -4 -3 -3 -3 -3 -3 -3 -3 -2 -2 -2 -2 -2 -2 -1 -1
-1 -2 -2 -1 0 0 -1 -0 -1 -1 -2 -2 -2 -3 -3 -3 -3 -5 -5 -5 -5 -5 -4 -4 -3 -4 -4 -4 -4 -4 -4 -4 -3 -3 -3 -3 -3 -3 -2 -2 -2 -2 -2 -3
-1 -1 -1 0 1 0 -0 -0 -1 -1 -1 -2 -2 -2 -2 -2 -3 -3 -4 -5 -5 -5 -5 -5 -4 -4 -4 -4 -4 -4 -4 -4 -4 -4 -3 -4 -3 -3 -3 -3 -3 -3 -3 -3
1 1 0 1 1 1 1 -0 -0 -1 -1 -2 -2 -2 -2 -2 -2 -2 -2 -3 -4 -5 -6 -5 -4 -4 -4 -4 -4 -4 -4 -4 -4 -4 -4 -4 -4 -3 -3 -4 -4 -4 -3 -4